Darstellungsparameter: Aktuell verwendete Einstellungen:
Skalierung der Graphiken ... ?
xyx+y,   Skalierungsfaktor:      Skalierung: Modus: x, Faktor: 1
Darstellungszeitraum ... ?
Vom - - bis: - -   Zeitraum: 20.12.2019 - 17.01.2020
Min/Max/Avg-Anzeige ... ?
Zeige MMA aktuell
Zeige MMA Monat
Zeige MMA alles
Zeige --A aktuell
Zeige --A Monat
Zeige --A alles
Keine MMA-Anzeige
MMA:
Average (ber die Originaldaten)
MMA-Basis: 20.12.2019 - 17.01.2020
Quicknavigation für Darstellung... ?
Tage:      1T, 2T, 3T, 5T -1T -2T -3T -5T +1T +2T +3T +5T
Wochen: 1W, 2W, 3W -1W -2W -3W +1W +2W +3W
Monate: 1M, 3M, 6M -1M -3M -6M +1M +3M +6M
Jahre:    1J, 3J, 5J, 10J -1J -3J -5J -10J +1J +3J +5J +10J
Nutze für die Darstellung ... ?
Originaldaten oder Mittelwerte auf ...
Stundenbasis Tagesbasis Wochenbasis
Monatsbasis Jahresbasis      Datenbasis: Original-Daten
Darstellen als:
Statistik (Auto) Statistik J:M      Darstellung:
Zur Graphik,    zurück zur Übersicht aller Sensoren.
 
Tabellarische Datenbersicht: ?
 
Sensor: Nr:Datum:Temp:Feuchte:
Aussen-T/F 1 20-12-2019 00:02:17 4.8 C 42 %
2 20-12-2019 00:12:17 4.3 C 41 %
3 20-12-2019 00:22:17 4 C 41 %
4 20-12-2019 00:32:17 3.9 C 43 %
5 20-12-2019 00:42:17 3.7 C 42 %
6 20-12-2019 00:52:17 3.4 C 43 %
7 20-12-2019 01:02:17 3.1 C 42 %
8 20-12-2019 01:12:17 3 C 43 %
9 20-12-2019 01:22:17 3.3 C 44 %
10 20-12-2019 01:32:17 3.1 C 43 %
11 20-12-2019 01:42:17 3.1 C 43 %
12 20-12-2019 01:52:17 2.8 C 44 %
13 20-12-2019 02:02:17 2.8 C 44 %
14 20-12-2019 02:12:17 2.6 C 44 %
15 20-12-2019 02:22:17 2.5 C 44 %
16 20-12-2019 02:32:18 3.2 C 44 %
17 20-12-2019 02:42:18 3.4 C 44 %
18 20-12-2019 02:52:17 3.8 C 44 %
19 20-12-2019 03:02:17 4.7 C 42 %
20 20-12-2019 03:12:17 4.2 C 41 %
21 20-12-2019 03:22:17 4.6 C 41 %
22 20-12-2019 03:32:17 4.4 C 40 %
23 20-12-2019 03:42:17 4.4 C 40 %
24 20-12-2019 03:52:17 4.6 C 41 %
25 20-12-2019 04:02:17 4.4 C 40 %
Sensor: Nr:Datum:Temp:Feuchte:
Aussen-T/F 26 20-12-2019 04:12:17 4.2 C 40 %
27 20-12-2019 04:22:17 4 C 41 %
28 20-12-2019 04:32:18 4.8 C 42 %
29 20-12-2019 04:42:18 4.5 C 41 %
30 20-12-2019 04:52:17 4.7 C 40 %
31 20-12-2019 05:02:17 4.7 C 40 %
32 20-12-2019 05:12:17 5.3 C 38 %
33 20-12-2019 05:22:17 5.2 C 36 %
34 20-12-2019 05:32:17 5.3 C 36 %
35 20-12-2019 05:42:17 5.4 C 35 %
36 20-12-2019 05:52:18 5.5 C 35 %
37 20-12-2019 06:02:18 5.2 C 35 %
38 20-12-2019 06:12:18 5.3 C 35 %
39 20-12-2019 06:22:17 5.6 C 35 %
40 20-12-2019 06:32:17 6 C 32 %
41 20-12-2019 06:42:17 6 C 31 %
42 20-12-2019 06:52:17 5.7 C 32 %
43 20-12-2019 07:02:17 5.8 C 31 %
44 20-12-2019 07:12:17 5.9 C 31 %
45 20-12-2019 07:22:17 6.1 C 31 %
46 20-12-2019 07:32:17 5.9 C 33 %
47 20-12-2019 07:42:17 6.4 C 31 %
48 20-12-2019 07:52:17 6.8 C 30 %
49 20-12-2019 08:02:17 7.1 C 27 %
50 20-12-2019 08:12:17 6.4 C 31 %
Sensor: Nr:Datum:Temp:Feuchte:
Aussen-T/F 51 20-12-2019 08:22:17 6.4 C 32 %
52 20-12-2019 08:32:18 6.5 C 32 %
53 20-12-2019 08:42:18 6.3 C 32 %
54 20-12-2019 08:52:17 6.3 C 33 %
55 20-12-2019 09:02:17 6.5 C 33 %
56 20-12-2019 09:12:17 6.7 C 31 %
57 20-12-2019 09:22:17 6.5 C 33 %
58 20-12-2019 09:32:17 6.4 C 35 %
59 20-12-2019 09:42:17 6.5 C 35 %
60 20-12-2019 09:52:17 6.5 C 34 %
61 20-12-2019 10:02:17 6.2 C 31 %
62 20-12-2019 10:12:17 6 C 33 %
63 20-12-2019 10:22:17 5.7 C 35 %
64 20-12-2019 10:32:17 5.8 C 40 %
65 20-12-2019 10:42:17 5.9 C 42 %
66 20-12-2019 10:52:17 6 C 42 %
67 20-12-2019 11:02:17 6.1 C 42 %
68 20-12-2019 11:12:17 6 C 42 %
69 20-12-2019 11:22:17 6.3 C 42 %
70 20-12-2019 11:32:17 6.5 C 42 %
71 20-12-2019 11:42:17 6.7 C 41 %
72 20-12-2019 11:52:17 6.8 C 40 %
73 20-12-2019 12:02:18 7 C 39 %
74 20-12-2019 12:12:18 7.3 C 39 %
75 20-12-2019 12:22:18 7.5 C 39 %
Sensor: Nr:Datum:Temp:Feuchte:
Aussen-T/F 76 20-12-2019 12:32:17 7.7 C 39 %
77 20-12-2019 12:42:18 8 C 39 %
78 20-12-2019 12:52:17 8.1 C 38 %
79 20-12-2019 13:02:18 8.1 C 39 %
80 20-12-2019 13:12:18 8.2 C 39 %
81 20-12-2019 13:22:17 8.3 C 37 %
82 20-12-2019 13:32:17 8.4 C 36 %
83 20-12-2019 13:42:17 8.6 C 37 %
84 20-12-2019 13:52:17 8.5 C 36 %
85 20-12-2019 14:02:17 8.6 C 36 %
86 20-12-2019 14:12:17 8.6 C 35 %
87 20-12-2019 14:22:17 8.7 C 36 %
88 20-12-2019 14:32:17 8.7 C 36 %
89 20-12-2019 14:42:17 8.5 C 35 %
90 20-12-2019 14:52:18 8.3 C 36 %
91 20-12-2019 15:02:17 8.2 C 37 %
92 20-12-2019 15:12:17 8.3 C 38 %
93 20-12-2019 15:22:17 8.3 C 39 %
94 20-12-2019 15:32:17 8.2 C 40 %
95 20-12-2019 15:42:17 8.3 C 41 %
96 20-12-2019 15:52:17 8.2 C 40 %
97 20-12-2019 16:02:17 8.2 C 40 %
98 20-12-2019 16:12:18 8.3 C 40 %
99 20-12-2019 16:22:17 8.3 C 41 %
100 20-12-2019 16:32:17 8.4 C 41 %
Sensor: Nr:Datum:Temp:Feuchte:
Aussen-T/F 101 20-12-2019 16:42:17 8.4 C 41 %
102 20-12-2019 16:52:18 8.6 C 41 %
103 20-12-2019 17:02:17 9 C 41 %
104 20-12-2019 17:12:18 9 C 40 %
105 20-12-2019 17:22:17 9.1 C 36 %
106 20-12-2019 17:32:17 8.7 C 38 %
107 20-12-2019 17:42:17 8.8 C 37 %
108 20-12-2019 17:52:18 8.7 C 38 %
109 20-12-2019 18:02:17 8.9 C 37 %
110 20-12-2019 18:12:17 8.9 C 36 %
111 20-12-2019 18:22:17 8.9 C 37 %
112 20-12-2019 18:32:17 8.9 C 37 %
113 20-12-2019 18:42:17 9.7 C 33 %
114 20-12-2019 18:52:18 9.5 C 31 %
115 20-12-2019 19:02:17 9.8 C 30 %
116 20-12-2019 19:12:17 10.1 C 28 %
117 20-12-2019 19:22:17 9.9 C 29 %
118 20-12-2019 19:32:17 9.8 C 29 %
119 20-12-2019 19:42:17 10 C 27 %
120 20-12-2019 19:52:18 9.7 C 29 %
121 20-12-2019 20:02:18 9.6 C 28 %
122 20-12-2019 20:12:18 9.5 C 28 %
123 20-12-2019 20:22:17 9.5 C 27 %
124 20-12-2019 20:32:18 9 C 28 %
125 20-12-2019 20:42:18 9 C 27 %
Sensor: Nr:Datum:Temp:Feuchte:
Aussen-T/F 126 20-12-2019 20:52:17 8.9 C 28 %
127 20-12-2019 21:02:18 8.5 C 28 %
128 20-12-2019 21:12:18 8.6 C 28 %
129 20-12-2019 21:22:17 8.9 C 27 %
130 20-12-2019 21:32:17 8.7 C 27 %
131 20-12-2019 21:42:17 8.3 C 28 %
132 20-12-2019 21:52:17 8.3 C 28 %
133 20-12-2019 22:02:17 8.3 C 28 %
134 20-12-2019 22:12:17 8.1 C 28 %
135 20-12-2019 22:22:17 8.7 C 27 %
136 20-12-2019 22:32:17 8.9 C 26 %
137 20-12-2019 22:42:17 8.7 C 27 %
138 20-12-2019 22:52:17 8.7 C 27 %
139 20-12-2019 23:02:17 8.5 C 27 %
140 20-12-2019 23:12:17 8.4 C 27 %
141 20-12-2019 23:22:17 8.2 C 28 %
142 20-12-2019 23:32:17 8 C 28 %
143 20-12-2019 23:42:17 8.3 C 27 %
144 20-12-2019 23:52:18 8.1 C 27 %
145 21-12-2019 00:02:17 7.9 C 28 %
146 21-12-2019 00:12:17 7.7 C 28 %
147 21-12-2019 00:22:17 7.5 C 30 %
148 21-12-2019 00:32:17 7.5 C 30 %
149 21-12-2019 00:42:17 7.2 C 30 %
150 21-12-2019 00:52:18 7 C 30 %
Sensor: Nr:Datum:Temp:Feuchte:
Aussen-T/F 151 21-12-2019 01:02:17 6.9 C 32 %
152 21-12-2019 01:12:17 7.3 C 31 %
153 21-12-2019 01:22:17 7.4 C 31 %
154 21-12-2019 01:32:17 7.3 C 32 %
155 21-12-2019 01:42:17 7.5 C 31 %
156 21-12-2019 01:52:17 7.5 C 32 %
157 21-12-2019 02:02:17 7.9 C 30 %
158 21-12-2019 02:12:17 8 C 29 %
159 21-12-2019 02:22:17 8.2 C 28 %
160 21-12-2019 02:32:18 7.8 C 30 %
161 21-12-2019 02:42:18 7.8 C 30 %
162 21-12-2019 02:52:17 7.8 C 30 %
163 21-12-2019 03:02:17 7.5 C 30 %
164 21-12-2019 03:12:17 7.5 C 31 %
165 21-12-2019 03:22:17 7.4 C 31 %
166 21-12-2019 03:32:18 7.3 C 31 %
167 21-12-2019 03:42:18 7.1 C 31 %
168 21-12-2019 03:52:17 7.1 C 32 %
169 21-12-2019 04:02:17 6.9 C 33 %
170 21-12-2019 04:12:17 6.7 C 36 %
171 21-12-2019 04:22:17 6.4 C 37 %
172 21-12-2019 04:32:18 6 C 38 %
173 21-12-2019 04:42:18 5.9 C 38 %
174 21-12-2019 04:52:17 5.7 C 40 %
175 21-12-2019 05:02:17 6 C 40 %
Sensor: Nr:Datum:Temp:Feuchte:
Aussen-T/F 176 21-12-2019 05:12:17 5.6 C 39 %
177 21-12-2019 05:22:17 5.4 C 38 %
178 21-12-2019 05:32:18 5.4 C 38 %
179 21-12-2019 05:42:18 5.1 C 38 %
180 21-12-2019 05:52:17 5.3 C 40 %
181 21-12-2019 06:02:17 4.9 C 41 %
182 21-12-2019 06:12:17 4.8 C 41 %
183 21-12-2019 06:22:18 4.3 C 40 %
184 21-12-2019 06:32:17 4.3 C 42 %
185 21-12-2019 06:42:17 5 C 40 %
186 21-12-2019 06:52:18 3.8 C 41 %
187 21-12-2019 07:02:17 3.8 C 43 %
188 21-12-2019 07:12:18 3.5 C 42 %
189 21-12-2019 07:22:17 3.4 C 43 %
190 21-12-2019 07:32:17 3.3 C 43 %
191 21-12-2019 07:42:17 3 C 42 %
192 21-12-2019 07:52:17 3 C 43 %
193 21-12-2019 08:02:17 3.1 C 44 %
194 21-12-2019 08:12:17 3.6 C 44 %
195 21-12-2019 08:22:17 3.7 C 44 %
196 21-12-2019 08:32:17 3.9 C 43 %
197 21-12-2019 08:42:17 4.6 C 43 %
198 21-12-2019 08:52:17 4.9 C 42 %
199 21-12-2019 09:02:17 5 C 39 %
200 21-12-2019 09:12:17 4.5 C 38 %
Sensor: Nr:Datum:Temp:Feuchte:
Aussen-T/F 201 21-12-2019 09:22:17 4.4 C 38 %
202 21-12-2019 09:32:17 4.4 C 39 %
203 21-12-2019 09:42:17 4.6 C 40 %
204 21-12-2019 09:52:17 4.6 C 38 %
205 21-12-2019 10:02:17 4.8 C 38 %
206 21-12-2019 10:12:17 4.8 C 37 %
207 21-12-2019 10:22:17 5.1 C 37 %
208 21-12-2019 10:32:17 5.2 C 36 %
209 21-12-2019 10:42:17 5.1 C 37 %
210 21-12-2019 10:52:17 5.2 C 37 %
211 21-12-2019 11:02:17 5.3 C 37 %
212 21-12-2019 11:12:17 5.3 C 37 %
213 21-12-2019 11:22:17 5.4 C 37 %
214 21-12-2019 11:32:17 5.8 C 37 %
215 21-12-2019 11:42:17 5.9 C 37 %
216 21-12-2019 11:52:17 5.8 C 37 %
217 21-12-2019 12:02:17 5.8 C 36 %
218 21-12-2019 12:12:17 6.2 C 36 %
219 21-12-2019 12:22:17 6.2 C 35 %
220 21-12-2019 12:32:17 7 C 32 %
221 21-12-2019 12:42:17 6.8 C 33 %
222 21-12-2019 12:52:17 8 C 30 %
223 21-12-2019 13:02:17 7.8 C 30 %
224 21-12-2019 13:12:17 7.1 C 30 %
225 21-12-2019 13:22:17 6.9 C 31 %
Sensor: Nr:Datum:Temp:Feuchte:
Aussen-T/F 226 21-12-2019 13:32:17 7.2 C 30 %
227 21-12-2019 13:42:17 8 C 28 %
228 21-12-2019 13:52:18 7.7 C 28 %
229 21-12-2019 14:02:17 8.3 C 27 %
230 21-12-2019 14:12:17 8.8 C 26 %
231 21-12-2019 14:22:17 8.2 C 27 %
232 21-12-2019 14:32:18 8.2 C 27 %
233 21-12-2019 14:42:18 8.5 C 27 %
234 21-12-2019 14:52:17 8.8 C 26 %
235 21-12-2019 15:02:18 9 C 25 %
236 21-12-2019 15:12:18 8.7 C 26 %
237 21-12-2019 15:22:18 8.8 C 25 %
238 21-12-2019 15:32:17 8.7 C 25 %
239 21-12-2019 15:42:17 8 C 26 %
240 21-12-2019 15:52:17 7.5 C 28 %
241 21-12-2019 16:02:17 7.7 C 27 %
242 21-12-2019 16:12:17 7.6 C 29 %
243 21-12-2019 16:22:17 7.4 C 30 %
244 21-12-2019 16:32:17 7.4 C 30 %
245 21-12-2019 16:42:17 7.7 C 28 %
246 21-12-2019 16:52:17 7.9 C 27 %
247 21-12-2019 17:02:17 7.6 C 29 %
248 21-12-2019 17:12:17 7.3 C 30 %
249 21-12-2019 17:22:17 7.2 C 30 %
250 21-12-2019 17:32:17 7.3 C 30 %
Sensor: Nr:Datum:Temp:Feuchte:
Aussen-T/F 251 21-12-2019 17:42:17 7.3 C 29 %
252 21-12-2019 17:52:17 7.2 C 29 %
253 21-12-2019 18:02:17 7.6 C 27 %
254 21-12-2019 18:12:17 7.6 C 27 %
255 21-12-2019 18:22:17 7.6 C 26 %
256 21-12-2019 18:32:18 7.9 C 25 %
257 21-12-2019 18:42:18 7.7 C 26 %
258 21-12-2019 18:52:17 7.5 C 26 %
259 21-12-2019 19:02:17 7.3 C 27 %
260 21-12-2019 19:12:17 7 C 27 %
261 21-12-2019 19:22:17 7 C 27 %
262 21-12-2019 19:32:17 6.9 C 30 %
263 21-12-2019 19:42:17 6.8 C 30 %
264 21-12-2019 19:52:17 7 C 27 %
265 21-12-2019 20:02:17 7.1 C 26 %
266 21-12-2019 20:12:17 7.1 C 26 %
267 21-12-2019 20:22:17 7.1 C 26 %
268 21-12-2019 20:32:17 6.9 C 28 %
269 21-12-2019 20:42:17 7 C 27 %
270 21-12-2019 20:52:17 6.8 C 27 %
271 21-12-2019 21:02:18 6.4 C 29 %
272 21-12-2019 21:12:18 6.1 C 30 %
273 21-12-2019 21:22:17 6.1 C 31 %
274 21-12-2019 21:32:17 6.3 C 31 %
275 21-12-2019 21:42:17 5.9 C 31 %
Sensor: Nr:Datum:Temp:Feuchte:
Aussen-T/F 276 21-12-2019 21:52:18 5.1 C 34 %
277 21-12-2019 22:02:18 4.9 C 36 %
278 21-12-2019 22:12:18 5.2 C 34 %
279 21-12-2019 22:22:17 5.7 C 30 %
280 21-12-2019 22:32:17 6.1 C 27 %
281 21-12-2019 22:42:17 6.1 C 27 %
282 21-12-2019 22:52:17 6 C 27 %
283 21-12-2019 23:02:17 5.8 C 27 %
284 21-12-2019 23:12:17 5.8 C 27 %
285 21-12-2019 23:22:17 6.3 C 26 %
286 21-12-2019 23:32:18 6.5 C 25 %
287 21-12-2019 23:42:18 6.7 C 25 %
288 21-12-2019 23:52:17 6.3 C 26 %
289 22-12-2019 00:02:17 6.8 C 26 %
290 22-12-2019 00:12:17 6.9 C 26 %
291 22-12-2019 00:22:17 6.8 C 26 %
292 22-12-2019 00:32:17 6.8 C 26 %
293 22-12-2019 00:42:17 6.7 C 27 %
294 22-12-2019 00:52:17 6.3 C 30 %
295 22-12-2019 01:02:17 6.2 C 30 %
296 22-12-2019 01:12:18 5.8 C 35 %
297 22-12-2019 01:22:17 5.8 C 36 %
298 22-12-2019 01:32:17 5.8 C 39 %
299 22-12-2019 01:42:17 5.7 C 40 %
300 22-12-2019 01:52:17 5.7 C 40 %
Sensor: Nr:Datum:Temp:Feuchte:
Aussen-T/F 301 22-12-2019 02:02:17 5.7 C 38 %
302 22-12-2019 02:12:18 5.7 C 38 %
303 22-12-2019 02:22:17 5.8 C 38 %
304 22-12-2019 02:32:17 5.9 C 37 %
305 22-12-2019 02:42:17 5.9 C 36 %
306 22-12-2019 02:52:18 6 C 35 %
307 22-12-2019 03:02:17 6.1 C 35 %
308 22-12-2019 03:12:17 6.2 C 34 %
309 22-12-2019 03:22:17 6.2 C 35 %
310 22-12-2019 03:32:17 6.2 C 34 %
311 22-12-2019 03:42:17 6.1 C 35 %
312 22-12-2019 03:52:17 6.2 C 35 %
313 22-12-2019 04:02:18 6.2 C 35 %
314 22-12-2019 04:12:18 6 C 35 %
315 22-12-2019 04:22:17 6.2 C 34 %
316 22-12-2019 04:32:17 6.2 C 34 %
317 22-12-2019 04:42:17 6.3 C 33 %
318 22-12-2019 04:52:17 6.3 C 33 %
319 22-12-2019 05:02:17 6.2 C 34 %
320 22-12-2019 05:12:17 5.8 C 34 %
321 22-12-2019 05:22:17 5.4 C 36 %
322 22-12-2019 05:32:17 5.7 C 40 %
323 22-12-2019 05:42:17 6.1 C 38 %
324 22-12-2019 05:52:17 5.5 C 35 %
325 22-12-2019 06:02:17 5.1 C 39 %
Sensor: Nr:Datum:Temp:Feuchte:
Aussen-T/F 326 22-12-2019 06:12:17 5.3 C 41 %
327 22-12-2019 06:22:17 4.9 C 41 %
328 22-12-2019 06:32:17 5.4 C 42 %
329 22-12-2019 06:42:17 5.9 C 41 %
330 22-12-2019 06:52:17 6.2 C 39 %
331 22-12-2019 07:02:17 6.2 C 38 %
332 22-12-2019 07:12:17 6 C 38 %
333 22-12-2019 07:22:17 5.7 C 38 %
334 22-12-2019 07:32:17 5.4 C 39 %
335 22-12-2019 07:42:17 6 C 42 %
336 22-12-2019 07:52:17 6.1 C 41 %
337 22-12-2019 08:02:18 6.3 C 41 %
338 22-12-2019 08:12:18 6.2 C 40 %
339 22-12-2019 08:22:17 5.9 C 40 %
340 22-12-2019 08:32:17 5.8 C 41 %
341 22-12-2019 08:42:17 6.3 C 41 %
342 22-12-2019 08:52:18 6.2 C 39 %
343 22-12-2019 09:02:17 6 C 39 %
344 22-12-2019 09:12:17 6.2 C 40 %
345 22-12-2019 09:22:17 6.4 C 39 %
346 22-12-2019 09:32:17 6.3 C 39 %
347 22-12-2019 09:42:17 6.8 C 39 %
348 22-12-2019 09:52:17 7 C 37 %
349 22-12-2019 10:02:17 7.1 C 37 %
350 22-12-2019 10:12:17 7.9 C 33 %
Sensor: Nr:Datum:Temp:Feuchte:
Aussen-T/F 351 22-12-2019 10:22:17 8.1 C 33 %
352 22-12-2019 10:32:17 8.8 C 30 %
353 22-12-2019 10:42:17 9 C 29 %
354 22-12-2019 10:52:17 9.3 C 28 %
355 22-12-2019 11:02:17 9.5 C 28 %
356 22-12-2019 11:12:17 10 C 26 %
357 22-12-2019 11:22:17 10 C 26 %
358 22-12-2019 11:32:18 10.4 C 26 %
359 22-12-2019 11:42:18 10.2 C 26 %
360 22-12-2019 11:52:17 10.4 C 26 %
361 22-12-2019 12:02:17 10.5 C 25 %
362 22-12-2019 12:12:17 10.5 C 26 %
363 22-12-2019 12:22:17 10.5 C 25 %
364 22-12-2019 12:32:17 10.7 C 26 %
365 22-12-2019 12:42:17 10.8 C 26 %
366 22-12-2019 12:52:17 11.2 C 25 %
367 22-12-2019 13:02:17 11.1 C 25 %
368 22-12-2019 13:12:17 10.8 C 25 %
369 22-12-2019 13:22:17 10.7 C 25 %
370 22-12-2019 13:32:17 10.7 C 25 %
371 22-12-2019 13:42:17 10.7 C 25 %
372 22-12-2019 13:52:17 10.8 C 25 %
373 22-12-2019 14:02:17 11.1 C 23 %
374 22-12-2019 14:12:17 11 C 23 %
375 22-12-2019 14:22:17 10.8 C 23 %
Sensor: Nr:Datum:Temp:Feuchte:
Aussen-T/F 376 22-12-2019 14:32:17 10.9 C 23 %
377 22-12-2019 14:42:17 10.8 C 23 %
378 22-12-2019 14:52:17 10.7 C 25 %
379 22-12-2019 15:02:17 10.6 C 25 %
380 22-12-2019 15:12:17 10.3 C 25 %
381 22-12-2019 15:22:17 10.1 C 25 %
382 22-12-2019 15:32:17 9.9 C 26 %
383 22-12-2019 15:42:17 9.7 C 26 %
384 22-12-2019 15:52:18 9.6 C 25 %
385 22-12-2019 16:02:18 9.6 C 25 %
386 22-12-2019 16:12:18 9.3 C 25 %
387 22-12-2019 16:22:17 8.9 C 26 %
388 22-12-2019 16:32:17 8.3 C 26 %
389 22-12-2019 16:42:17 8.4 C 27 %
390 22-12-2019 16:52:17 7.9 C 28 %
391 22-12-2019 17:02:18 7.5 C 30 %
392 22-12-2019 17:12:18 7.5 C 30 %
393 22-12-2019 17:22:17 7.4 C 30 %
394 22-12-2019 17:32:17 7.5 C 29 %
395 22-12-2019 17:42:17 7.5 C 28 %
396 22-12-2019 17:52:17 7.2 C 28 %
397 22-12-2019 18:02:17 7.2 C 30 %
398 22-12-2019 18:12:17 7.1 C 30 %
399 22-12-2019 18:22:17 7.3 C 30 %
400 22-12-2019 18:32:17 7.4 C 29 %
Sensor: Nr:Datum:Temp:Feuchte:
Aussen-T/F 401 22-12-2019 18:42:17 7.5 C 29 %
402 22-12-2019 18:52:17 7.2 C 29 %
403 22-12-2019 19:02:17 7.1 C 30 %
404 22-12-2019 19:12:17 7 C 31 %
405 22-12-2019 19:22:17 7 C 32 %
406 22-12-2019 19:32:17 7.1 C 31 %
407 22-12-2019 19:42:17 7.5 C 30 %
408 22-12-2019 19:52:17 8 C 27 %
409 22-12-2019 20:02:17 7.9 C 27 %
410 22-12-2019 20:12:17 8.1 C 26 %
411 22-12-2019 20:22:17 8.3 C 25 %
412 22-12-2019 20:32:17 8.2 C 25 %
413 22-12-2019 20:42:17 8 C 25 %
414 22-12-2019 20:52:17 8 C 25 %
415 22-12-2019 21:02:17 8.1 C 25 %
416 22-12-2019 21:12:17 8.1 C 25 %
417 22-12-2019 21:22:17 7.8 C 25 %
418 22-12-2019 21:32:17 8.1 C 25 %
419 22-12-2019 21:42:17 7.8 C 26 %
420 22-12-2019 21:52:17 7.7 C 26 %
421 22-12-2019 22:02:17 7.9 C 26 %
422 22-12-2019 22:12:17 7.6 C 26 %
423 22-12-2019 22:22:17 7.5 C 26 %
424 22-12-2019 22:32:17 7.1 C 27 %
425 22-12-2019 22:42:17 6.9 C 28 %
Sensor: Nr:Datum:Temp:Feuchte:
Aussen-T/F 426 22-12-2019 22:52:17 6.7 C 29 %
427 22-12-2019 23:02:17 6.2 C 31 %
428 22-12-2019 23:12:17 6.4 C 31 %
429 22-12-2019 23:22:17 6.6 C 31 %
430 22-12-2019 23:32:17 6.6 C 31 %
431 22-12-2019 23:42:17 6.7 C 31 %
432 22-12-2019 23:52:17 6.7 C 31 %
433 23-12-2019 00:02:17 6.6 C 32 %
434 23-12-2019 00:12:17 6.5 C 31 %
435 23-12-2019 00:22:17 6.4 C 32 %
436 23-12-2019 00:32:17 6.6 C 31 %
437 23-12-2019 00:42:17 7 C 30 %
438 23-12-2019 00:52:17 6.9 C 30 %
439 23-12-2019 01:02:17 6.8 C 30 %
440 23-12-2019 01:12:17 7.1 C 28 %
441 23-12-2019 01:22:17 7 C 28 %
442 23-12-2019 01:32:17 7.1 C 28 %
443 23-12-2019 01:42:17 7.4 C 27 %
444 23-12-2019 01:52:17 7.4 C 27 %
445 23-12-2019 02:02:17 6.8 C 29 %
446 23-12-2019 02:12:17 6.5 C 30 %
447 23-12-2019 02:22:17 6.8 C 29 %
448 23-12-2019 02:32:17 6.9 C 29 %
449 23-12-2019 02:42:17 7.3 C 28 %
450 23-12-2019 02:52:17 6.9 C 30 %
Sensor: Nr:Datum:Temp:Feuchte:
Aussen-T/F 451 23-12-2019 03:02:17 6.8 C 31 %
452 23-12-2019 03:12:17 6.4 C 31 %
453 23-12-2019 03:22:17 6.5 C 30 %
454 23-12-2019 03:32:17 7 C 28 %
455 23-12-2019 03:42:17 6.6 C 29 %
456 23-12-2019 03:52:17 7 C 28 %
457 23-12-2019 04:02:17 6.9 C 30 %
458 23-12-2019 04:12:17 7.1 C 28 %
459 23-12-2019 04:22:17 6.8 C 30 %
460 23-12-2019 04:32:17 6.9 C 31 %
461 23-12-2019 04:42:17 6.5 C 31 %
462 23-12-2019 04:52:17 6.1 C 31 %
463 23-12-2019 05:02:17 6.4 C 32 %
464 23-12-2019 05:12:17 7 C 30 %
465 23-12-2019 05:22:17 7.1 C 30 %
466 23-12-2019 05:32:17 7 C 30 %
467 23-12-2019 05:42:17 6.8 C 31 %
468 23-12-2019 05:52:17 6.3 C 32 %
469 23-12-2019 06:02:18 6.3 C 34 %
470 23-12-2019 06:12:18 6.6 C 33 %
471 23-12-2019 06:22:17 6.9 C 31 %
472 23-12-2019 06:32:18 7.1 C 30 %
473 23-12-2019 06:42:18 6.9 C 31 %
474 23-12-2019 06:52:17 6.9 C 31 %
475 23-12-2019 07:02:17 6.8 C 32 %
Sensor: Nr:Datum:Temp:Feuchte:
Aussen-T/F 476 23-12-2019 07:12:17 6.8 C 34 %
477 23-12-2019 07:22:17 6.8 C 32 %
478 23-12-2019 07:32:17 7.1 C 30 %
479 23-12-2019 07:42:17 7.4 C 29 %
480 23-12-2019 07:52:17 7.1 C 30 %
481 23-12-2019 08:02:17 7.3 C 30 %
482 23-12-2019 08:12:17 7.4 C 28 %
483 23-12-2019 08:22:17 7.5 C 28 %
484 23-12-2019 08:32:18 7.5 C 28 %
485 23-12-2019 08:42:18 7.6 C 28 %
486 23-12-2019 08:52:17 7.6 C 27 %
487 23-12-2019 09:02:17 7.6 C 27 %
488 23-12-2019 09:12:18 7.7 C 27 %
489 23-12-2019 09:22:17 7.8 C 27 %
490 23-12-2019 09:32:18 7.8 C 27 %
491 23-12-2019 09:42:18 7.8 C 27 %
492 23-12-2019 09:52:18 7.9 C 26 %
493 23-12-2019 10:02:17 7.3 C 30 %
494 23-12-2019 10:12:18 7 C 33 %
495 23-12-2019 10:22:17 7 C 35 %
496 23-12-2019 10:32:18 6.8 C 35 %
497 23-12-2019 10:42:18 6.9 C 34 %
498 23-12-2019 10:52:17 7.4 C 30 %
499 23-12-2019 11:02:18 7.8 C 28 %
500 23-12-2019 11:12:18 8.1 C 28 %
Sensor: Nr:Datum:Temp:Feuchte:
Aussen-T/F 501 23-12-2019 11:22:17 8.4 C 26 %
502 23-12-2019 11:32:18 8.3 C 26 %
503 23-12-2019 11:42:18 8.6 C 26 %
504 23-12-2019 11:52:17 8.9 C 25 %
505 23-12-2019 12:02:18 9.1 C 25 %
506 23-12-2019 12:12:18 9.1 C 25 %
507 23-12-2019 12:22:17 8.9 C 25 %
508 23-12-2019 12:32:17 9 C 25 %
509 23-12-2019 12:42:17 9.3 C 25 %
510 23-12-2019 12:52:17 8.4 C 26 %
511 23-12-2019 13:02:17 8.4 C 26 %
512 23-12-2019 13:12:17 8.3 C 27 %
513 23-12-2019 13:22:17 8.2 C 27 %
514 23-12-2019 13:32:18 8.1 C 29 %
515 23-12-2019 13:42:18 8.2 C 28 %
516 23-12-2019 13:52:17 8.5 C 28 %
517 23-12-2019 14:02:17 8.9 C 27 %
518 23-12-2019 14:12:17 8.9 C 26 %
519 23-12-2019 14:22:18 9 C 25 %
520 23-12-2019 14:32:17 9.1 C 25 %
521 23-12-2019 14:42:17 9.1 C 25 %
522 23-12-2019 14:52:17 8.9 C 25 %
523 23-12-2019 15:02:18 8.7 C 26 %
524 23-12-2019 15:12:18 9.1 C 25 %
525 23-12-2019 15:22:17 9.1 C 25 %
Sensor: Nr:Datum:Temp:Feuchte:
Aussen-T/F 526 23-12-2019 15:32:17 9 C 25 %
527 23-12-2019 15:42:17 9 C 25 %
528 23-12-2019 15:52:17 8.8 C 25 %
529 23-12-2019 16:02:17 8.8 C 25 %
530 23-12-2019 16:12:17 8.6 C 26 %
531 23-12-2019 16:22:18 8.5 C 25 %
532 23-12-2019 16:32:17 8.4 C 25 %
533 23-12-2019 16:42:17 8.5 C 25 %
534 23-12-2019 16:52:18 8.5 C 25 %
535 23-12-2019 17:02:17 8.2 C 25 %
536 23-12-2019 17:12:17 8.4 C 25 %
537 23-12-2019 17:22:17 8 C 25 %
538 23-12-2019 17:32:17 7.9 C 25 %
539 23-12-2019 17:42:18 7.8 C 25 %
540 23-12-2019 17:52:17 7.8 C 25 %
541 23-12-2019 18:02:17 7.9 C 25 %
542 23-12-2019 18:12:17 8 C 23 %
543 23-12-2019 18:22:17 7.9 C 23 %
544 23-12-2019 18:32:17 7.9 C 25 %
545 23-12-2019 18:42:17 7.6 C 25 %
546 23-12-2019 18:52:17 7.5 C 26 %
547 23-12-2019 19:02:17 7.3 C 26 %
548 23-12-2019 19:12:17 6.7 C 29 %
549 23-12-2019 19:22:17 6.4 C 30 %
550 23-12-2019 19:32:17 7.4 C 26 %
Sensor: Nr:Datum:Temp:Feuchte:
Aussen-T/F 551 23-12-2019 19:42:17 7 C 26 %
552 23-12-2019 19:52:17 7 C 27 %
553 23-12-2019 20:02:17 7 C 28 %
554 23-12-2019 20:12:17 6.5 C 30 %
555 23-12-2019 20:22:17 6.8 C 30 %
556 23-12-2019 20:32:18 6.8 C 30 %
557 23-12-2019 20:42:18 6.9 C 30 %
558 23-12-2019 20:52:17 6.9 C 30 %
559 23-12-2019 21:02:18 6.7 C 30 %
560 23-12-2019 21:12:18 7.1 C 28 %
561 23-12-2019 21:22:17 7 C 28 %
562 23-12-2019 21:32:17 6.7 C 31 %
563 23-12-2019 21:42:17 6.5 C 31 %
564 23-12-2019 21:52:17 6.5 C 32 %
565 23-12-2019 22:02:18 6.4 C 31 %
566 23-12-2019 22:12:18 5.8 C 32 %
567 23-12-2019 22:22:17 5.4 C 37 %
568 23-12-2019 22:32:17 5.7 C 33 %
569 23-12-2019 22:42:17 5.3 C 34 %
570 23-12-2019 22:52:17 5.5 C 34 %
571 23-12-2019 23:02:17 5.4 C 33 %
572 23-12-2019 23:12:17 5.5 C 32 %
573 23-12-2019 23:22:18 5.4 C 30 %
574 23-12-2019 23:32:17 5.8 C 30 %
575 23-12-2019 23:42:17 4.8 C 33 %
Sensor: Nr:Datum:Temp:Feuchte:
Aussen-T/F 576 23-12-2019 23:52:17 4.8 C 36 %
577 24-12-2019 00:02:17 5.6 C 35 %
578 24-12-2019 00:12:17 5.8 C 32 %
579 24-12-2019 00:22:17 5.7 C 32 %
580 24-12-2019 00:32:18 6 C 32 %
581 24-12-2019 00:42:18 6.1 C 31 %
582 24-12-2019 00:52:17 6.3 C 31 %
583 24-12-2019 01:02:17 5.6 C 32 %
584 24-12-2019 01:12:17 5.9 C 32 %
585 24-12-2019 01:22:17 6.1 C 30 %
586 24-12-2019 01:32:17 6.3 C 30 %
587 24-12-2019 01:42:17 5.9 C 31 %
588 24-12-2019 01:52:17 5.7 C 33 %
589 24-12-2019 02:02:17 5.7 C 35 %
590 24-12-2019 02:12:17 5.8 C 35 %
591 24-12-2019 02:22:17 5.6 C 35 %
592 24-12-2019 02:32:18 5.5 C 36 %
593 24-12-2019 02:42:18 5.5 C 36 %
594 24-12-2019 02:52:17 6.6 C 30 %
595 24-12-2019 03:02:18 6.7 C 29 %
596 24-12-2019 03:12:18 6.3 C 30 %
597 24-12-2019 03:22:17 5.7 C 31 %
598 24-12-2019 03:32:17 5.5 C 31 %
599 24-12-2019 03:42:17 5.7 C 31 %
600 24-12-2019 03:52:17 5 C 32 %
Sensor: Nr:Datum:Temp:Feuchte:
Aussen-T/F 601 24-12-2019 04:02:17 5 C 38 %
602 24-12-2019 04:12:17 5.2 C 37 %
603 24-12-2019 04:22:17 5.2 C 36 %
604 24-12-2019 04:32:17 4.8 C 37 %
605 24-12-2019 04:42:17 4.8 C 39 %
606 24-12-2019 04:52:17 5.3 C 38 %
607 24-12-2019 05:02:18 5.4 C 35 %
608 24-12-2019 05:12:18 5.2 C 35 %
609 24-12-2019 05:22:17 4.7 C 37 %
610 24-12-2019 05:32:18 5 C 37 %
611 24-12-2019 05:42:18 4.6 C 36 %
612 24-12-2019 05:52:17 4.9 C 37 %
613 24-12-2019 06:02:18 4.3 C 36 %
614 24-12-2019 06:12:18 4.6 C 39 %
615 24-12-2019 06:22:17 4.6 C 38 %
616 24-12-2019 06:32:17 4.6 C 39 %
617 24-12-2019 06:42:17 4.5 C 38 %
618 24-12-2019 06:52:17 4.5 C 39 %
619 24-12-2019 07:02:17 4.8 C 37 %
620 24-12-2019 07:12:17 5 C 36 %
621 24-12-2019 07:22:17 5.4 C 34 %
622 24-12-2019 07:32:17 5.6 C 33 %
623 24-12-2019 07:42:17 5.6 C 32 %
624 24-12-2019 07:52:17 5.8 C 32 %
625 24-12-2019 08:02:17 5.8 C 31 %
Sensor: Nr:Datum:Temp:Feuchte:
Aussen-T/F 626 24-12-2019 08:12:17 6 C 30 %
627 24-12-2019 08:22:17 6.2 C 29 %
628 24-12-2019 08:32:17 6.2 C 30 %
629 24-12-2019 08:42:17 6.3 C 30 %
630 24-12-2019 08:52:18 6.4 C 30 %
631 24-12-2019 09:02:17 6.5 C 29 %
632 24-12-2019 09:12:17 6.8 C 29 %
633 24-12-2019 09:22:17 6.8 C 28 %
634 24-12-2019 09:32:17 6.8 C 29 %
635 24-12-2019 09:42:17 6.8 C 28 %
636 24-12-2019 09:52:17 6.5 C 30 %
637 24-12-2019 10:02:17 6.4 C 30 %
638 24-12-2019 10:12:17 6.2 C 31 %
639 24-12-2019 10:22:17 6.2 C 33 %
640 24-12-2019 10:32:17 6.3 C 37 %
641 24-12-2019 10:42:17 6.8 C 37 %
642 24-12-2019 10:52:17 6.7 C 33 %
643 24-12-2019 11:02:17 6.8 C 35 %
644 24-12-2019 11:12:17 6.9 C 34 %
645 24-12-2019 11:22:17 7.5 C 32 %
646 24-12-2019 11:32:17 8 C 30 %
647 24-12-2019 11:42:17 8.2 C 29 %
648 24-12-2019 11:52:18 8 C 29 %
649 24-12-2019 12:02:17 7.8 C 30 %
650 24-12-2019 12:12:17 7.6 C 30 %
Sensor: Nr:Datum:Temp:Feuchte:
Aussen-T/F 651 24-12-2019 12:22:17 8 C 28 %
652 24-12-2019 12:32:17 8.2 C 27 %
653 24-12-2019 12:42:17 8.4 C 27 %
654 24-12-2019 12:52:18 8.9 C 27 %
655 24-12-2019 13:02:17 9.2 C 25 %
656 24-12-2019 13:12:17 9.3 C 25 %
657 24-12-2019 13:22:17 9.3 C 25 %
658 24-12-2019 13:32:17 9.2 C 26 %
659 24-12-2019 13:42:17 9.3 C 26 %
660 24-12-2019 13:52:17 9.3 C 26 %
661 24-12-2019 14:02:18 9.4 C 25 %
662 24-12-2019 14:12:18 9.5 C 25 %
663 24-12-2019 14:22:17 9.6 C 25 %
664 24-12-2019 14:32:18 9.7 C 25 %
665 24-12-2019 14:42:18 9.3 C 26 %
666 24-12-2019 14:52:17 9.2 C 27 %
667 24-12-2019 15:02:18 9.1 C 27 %
668 24-12-2019 15:12:18 9.5 C 26 %
669 24-12-2019 15:22:17 9.8 C 25 %
670 24-12-2019 15:32:17 10 C 22 %
671 24-12-2019 15:42:17 10.1 C 20 %
672 24-12-2019 15:52:17 10.5 C 20 %
673 24-12-2019 16:02:17 10.1 C 20 %
674 24-12-2019 16:12:17 10 C 20 %
675 24-12-2019 16:22:17 10.2 C 20 %
Sensor: Nr:Datum:Temp:Feuchte:
Aussen-T/F 676 24-12-2019 16:32:17 9.8 C 20 %
677 24-12-2019 16:42:17 9.7 C 21 %
678 24-12-2019 16:52:17 10.1 C 20 %
679 24-12-2019 17:02:17 9.8 C 20 %
680 24-12-2019 17:12:17 9.4 C 20 %
681 24-12-2019 17:22:18 9.6 C 20 %
682 24-12-2019 17:32:17 8.8 C 20 %
683 24-12-2019 17:42:17 9.1 C 20 %
684 24-12-2019 17:52:17 9.3 C 20 %
685 24-12-2019 18:02:17 9 C 20 %
686 24-12-2019 18:12:17 8.5 C 26 %
687 24-12-2019 18:22:17 8.9 C 25 %
688 24-12-2019 18:32:17 8.2 C 28 %
689 24-12-2019 18:42:17 7.8 C 31 %
690 24-12-2019 18:52:17 7.5 C 35 %
691 24-12-2019 19:02:17 7.6 C 31 %
692 24-12-2019 19:12:17 7.3 C 31 %
693 24-12-2019 19:22:17 6.7 C 35 %
694 24-12-2019 19:32:17 6.5 C 40 %
695 24-12-2019 19:42:17 6.5 C 36 %
696 24-12-2019 19:52:17 6.2 C 36 %
697 24-12-2019 20:02:17 6.7 C 35 %
698 24-12-2019 20:12:17 7.3 C 30 %
699 24-12-2019 20:22:17 7.2 C 32 %
700 24-12-2019 20:32:18 7.1 C 30 %
Sensor: Nr:Datum:Temp:Feuchte:
Aussen-T/F 701 24-12-2019 20:42:18 7.3 C 31 %
702 24-12-2019 20:52:17 7.3 C 30 %
703 24-12-2019 21:02:17 7.1 C 31 %
704 24-12-2019 21:12:17 7.7 C 30 %
705 24-12-2019 21:22:17 7.4 C 30 %
706 24-12-2019 21:32:17 7.6 C 30 %
707 24-12-2019 21:42:17 7.9 C 29 %
708 24-12-2019 21:52:17 8.1 C 28 %
709 24-12-2019 22:02:17 8.6 C 26 %
710 24-12-2019 22:12:17 8.5 C 26 %
711 24-12-2019 22:22:17 8.3 C 26 %
712 24-12-2019 22:32:17 8.4 C 26 %
713 24-12-2019 22:42:17 8.2 C 27 %
714 24-12-2019 22:52:17 8 C 28 %
715 24-12-2019 23:02:17 8.4 C 27 %
716 24-12-2019 23:12:17 8.4 C 27 %
717 24-12-2019 23:22:17 8.4 C 27 %
718 24-12-2019 23:32:17 8.5 C 27 %
719 24-12-2019 23:42:17 8.5 C 27 %
720 24-12-2019 23:52:17 8.4 C 27 %
721 25-12-2019 00:02:17 8.4 C 27 %
722 25-12-2019 00:12:17 8.4 C 27 %
723 25-12-2019 00:22:17 8.4 C 28 %
724 25-12-2019 00:32:17 8.3 C 28 %
725 25-12-2019 00:42:18 8.2 C 29 %
Sensor: Nr:Datum:Temp:Feuchte:
Aussen-T/F 726 25-12-2019 00:52:17 8.2 C 29 %
727 25-12-2019 01:02:17 7.8 C 32 %
728 25-12-2019 01:12:17 7.7 C 33 %
729 25-12-2019 01:22:17 7.5 C 35 %
730 25-12-2019 01:32:18 7.3 C 35 %
731 25-12-2019 01:42:18 7.5 C 35 %
732 25-12-2019 01:52:17 7.6 C 33 %
733 25-12-2019 02:02:17 7.7 C 32 %
734 25-12-2019 02:12:17 8 C 31 %
735 25-12-2019 02:22:17 7.9 C 31 %
736 25-12-2019 02:32:18 7.9 C 31 %
737 25-12-2019 02:42:18 7.9 C 31 %
738 25-12-2019 02:52:17 7.9 C 31 %
739 25-12-2019 03:02:17 7.8 C 31 %
740 25-12-2019 03:12:17 7.9 C 32 %
741 25-12-2019 03:22:17 8.1 C 31 %
742 25-12-2019 03:32:17 8.3 C 30 %
743 25-12-2019 03:42:17 8.2 C 30 %
744 25-12-2019 03:52:18 8.2 C 30 %
745 25-12-2019 04:02:17 7.9 C 34 %
746 25-12-2019 04:12:17 8 C 34 %
747 25-12-2019 04:22:18 7.9 C 35 %
748 25-12-2019 04:32:17 7.9 C 36 %
749 25-12-2019 04:42:17 7.9 C 38 %
750 25-12-2019 04:52:17 7.9 C 36 %
Sensor: Nr:Datum:Temp:Feuchte:
Aussen-T/F 751 25-12-2019 05:02:17 7.9 C 37 %
752 25-12-2019 05:12:17 7.8 C 37 %
753 25-12-2019 05:22:18 7.6 C 38 %
754 25-12-2019 05:32:17 8 C 36 %
755 25-12-2019 05:42:17 7.9 C 35 %
756 25-12-2019 05:52:17 7.5 C 35 %
757 25-12-2019 06:02:18 7.5 C 35 %
758 25-12-2019 06:12:18 7.2 C 36 %
759 25-12-2019 06:22:17 7.2 C 37 %
760 25-12-2019 06:32:18 7.3 C 37 %
761 25-12-2019 06:42:18 7.3 C 36 %
762 25-12-2019 06:52:17 7.1 C 39 %
763 25-12-2019 07:02:18 7.3 C 33 %
764 25-12-2019 07:12:18 7.1 C 32 %
765 25-12-2019 07:22:17 6.9 C 35 %
766 25-12-2019 07:32:18 6.8 C 38 %
767 25-12-2019 07:42:18 6.9 C 38 %
768 25-12-2019 07:52:17 7 C 35 %
769 25-12-2019 08:02:18 6.8 C 32 %
770 25-12-2019 08:12:18 6.4 C 32 %
771 25-12-2019 08:22:17 6.2 C 33 %
772 25-12-2019 08:32:17 6.2 C 32 %
773 25-12-2019 08:42:17 6.5 C 32 %
774 25-12-2019 08:52:17 6.7 C 31 %
775 25-12-2019 09:02:17 6.9 C 30 %
Sensor: Nr:Datum:Temp:Feuchte:
Aussen-T/F 776 25-12-2019 09:12:17 6.9 C 30 %
777 25-12-2019 09:22:18 6.8 C 30 %
778 25-12-2019 09:32:17 7.3 C 28 %
779 25-12-2019 09:42:17 7.3 C 27 %
780 25-12-2019 09:52:17 7.3 C 27 %
781 25-12-2019 10:02:17 7.1 C 29 %
782 25-12-2019 10:12:17 7.3 C 27 %
783 25-12-2019 10:22:18 7.6 C 26 %
784 25-12-2019 10:32:17 7.7 C 26 %
785 25-12-2019 10:42:17 7.8 C 25 %
786 25-12-2019 10:52:17 7.5 C 26 %
787 25-12-2019 11:02:17 7.5 C 26 %
788 25-12-2019 11:12:17 7.5 C 26 %
789 25-12-2019 11:22:17 7.7 C 26 %
790 25-12-2019 11:32:17 7.4 C 26 %
791 25-12-2019 11:42:17 7.4 C 27 %
792 25-12-2019 11:52:18 7.1 C 28 %
793 25-12-2019 12:02:17 7.1 C 29 %
794 25-12-2019 12:12:17 7.6 C 27 %
795 25-12-2019 12:22:17 7.6 C 27 %
796 25-12-2019 12:32:17 7.7 C 27 %
797 25-12-2019 12:42:17 7.8 C 27 %
798 25-12-2019 12:52:18 7.6 C 27 %
799 25-12-2019 13:02:17 7.1 C 29 %
800 25-12-2019 13:12:17 7 C 31 %
Sensor: Nr:Datum:Temp:Feuchte:
Aussen-T/F 801 25-12-2019 13:22:18 6.9 C 31 %
802 25-12-2019 13:32:17 7.1 C 30 %
803 25-12-2019 13:42:17 7 C 30 %
804 25-12-2019 13:52:17 6.9 C 30 %
805 25-12-2019 14:02:17 7.1 C 30 %
806 25-12-2019 14:12:17 7.4 C 29 %
807 25-12-2019 14:22:18 7.6 C 28 %
808 25-12-2019 14:32:17 7.7 C 29 %
809 25-12-2019 14:42:17 7.6 C 29 %
810 25-12-2019 14:52:17 7.1 C 31 %
811 25-12-2019 15:02:17 7.1 C 32 %
812 25-12-2019 15:12:17 7.1 C 30 %
813 25-12-2019 15:22:18 7.1 C 31 %
814 25-12-2019 15:32:17 7.4 C 30 %
815 25-12-2019 15:42:17 7.3 C 31 %
816 25-12-2019 15:52:17 7.2 C 30 %
817 25-12-2019 16:02:17 7.2 C 30 %
818 25-12-2019 16:12:17 6.9 C 31 %
819 25-12-2019 16:22:17 6.8 C 32 %
820 25-12-2019 16:32:17 6.7 C 35 %
821 25-12-2019 16:42:17 6.9 C 32 %
822 25-12-2019 16:52:17 6.9 C 31 %
823 25-12-2019 17:02:17 6.8 C 30 %
824 25-12-2019 17:12:17 6.7 C 30 %
825 25-12-2019 17:22:18 6.6 C 31 %
Sensor: Nr:Datum:Temp:Feuchte:
Aussen-T/F 826 25-12-2019 17:32:17 6.2 C 31 %
827 25-12-2019 17:42:17 5.7 C 35 %
828 25-12-2019 17:52:18 5.9 C 35 %
829 25-12-2019 18:02:17 6 C 33 %
830 25-12-2019 18:12:17 6.1 C 32 %
831 25-12-2019 18:22:17 6.2 C 33 %
832 25-12-2019 18:32:17 6.2 C 33 %
833 25-12-2019 18:42:17 6.2 C 32 %
834 25-12-2019 18:52:17 6.2 C 32 %
835 25-12-2019 19:02:17 6 C 33 %
836 25-12-2019 19:12:17 5.9 C 33 %
837 25-12-2019 19:22:17 6.1 C 32 %
838 25-12-2019 19:32:18 6.1 C 32 %
839 25-12-2019 19:42:18 6 C 33 %
840 25-12-2019 19:52:17 5.9 C 33 %
841 25-12-2019 20:02:17 5.8 C 35 %
842 25-12-2019 20:12:17 5.9 C 35 %
843 25-12-2019 20:22:18 5.9 C 34 %
844 25-12-2019 20:32:17 5.8 C 34 %
845 25-12-2019 20:42:17 5.6 C 37 %
846 25-12-2019 20:52:17 5.5 C 38 %
847 25-12-2019 21:02:18 5.5 C 38 %
848 25-12-2019 21:12:18 5.4 C 40 %
849 25-12-2019 21:22:17 5.3 C 41 %
850 25-12-2019 21:32:17 5.3 C 43 %
Sensor: Nr:Datum:Temp:Feuchte:
Aussen-T/F 851 25-12-2019 21:42:17 5.3 C 42 %
852 25-12-2019 21:52:17 5.2 C 42 %
853 25-12-2019 22:02:18 5.2 C 42 %
854 25-12-2019 22:12:18 5.1 C 43 %
855 25-12-2019 22:22:17 5.2 C 42 %
856 25-12-2019 22:32:18 5.1 C 41 %
857 25-12-2019 22:42:18 5.1 C 42 %
858 25-12-2019 22:52:17 5.2 C 42 %
859 25-12-2019 23:02:18 5.2 C 42 %
860 25-12-2019 23:12:18 5.2 C 42 %
861 25-12-2019 23:22:17 5.2 C 42 %
862 25-12-2019 23:32:17 5.1 C 42 %
863 25-12-2019 23:42:17 4.7 C 42 %
864 25-12-2019 23:52:17 4.5 C 42 %
865 26-12-2019 00:02:17 4.6 C 43 %
866 26-12-2019 00:12:18 4 C 42 %
867 26-12-2019 00:22:17 3.6 C 42 %
868 26-12-2019 00:32:18 3.9 C 44 %
869 26-12-2019 00:42:18 3.9 C 44 %
870 26-12-2019 00:52:17 4.1 C 43 %
871 26-12-2019 01:02:18 4.4 C 43 %
872 26-12-2019 01:12:18 4.3 C 43 %
873 26-12-2019 01:22:17 4.3 C 43 %
874 26-12-2019 01:32:17 4.4 C 43 %
875 26-12-2019 01:42:17 4.4 C 43 %
Sensor: Nr:Datum:Temp:Feuchte:
Aussen-T/F 876 26-12-2019 01:52:17 4.3 C 42 %
877 26-12-2019 02:02:18 4.3 C 42 %
878 26-12-2019 02:12:18 4.4 C 42 %
879 26-12-2019 02:22:17 4.2 C 42 %
880 26-12-2019 02:32:17 4 C 42 %
881 26-12-2019 02:42:17 4 C 42 %
882 26-12-2019 02:52:17 4.2 C 42 %
883 26-12-2019 03:02:18 4.2 C 42 %
884 26-12-2019 03:12:18 4.1 C 42 %
885 26-12-2019 03:22:17 4.1 C 42 %
886 26-12-2019 03:32:17 4.1 C 42 %
887 26-12-2019 03:42:17 4.1 C 42 %
888 26-12-2019 03:52:17 3.9 C 43 %
889 26-12-2019 04:02:17 3.6 C 42 %
890 26-12-2019 04:12:17 3.6 C 42 %
891 26-12-2019 04:22:18 3.4 C 42 %
892 26-12-2019 04:32:17 3 C 42 %
893 26-12-2019 04:42:17 3.1 C 42 %
894 26-12-2019 04:52:17 3.1 C 43 %
895 26-12-2019 05:02:17 3.3 C 43 %
896 26-12-2019 05:12:17 3.5 C 43 %
897 26-12-2019 05:22:17 3.4 C 43 %
898 26-12-2019 05:32:18 3.5 C 43 %
899 26-12-2019 05:42:18 3.4 C 43 %
900 26-12-2019 05:52:17 3.5 C 43 %
Sensor: Nr:Datum:Temp:Feuchte:
Aussen-T/F 901 26-12-2019 06:02:17 3.6 C 43 %
902 26-12-2019 06:12:18 3.6 C 43 %
903 26-12-2019 06:22:17 3.5 C 43 %
904 26-12-2019 06:32:18 3.6 C 43 %
905 26-12-2019 06:42:18 3.5 C 43 %
906 26-12-2019 06:52:17 3.5 C 43 %
907 26-12-2019 07:02:18 3.5 C 43 %
908 26-12-2019 07:12:18 3.5 C 43 %
909 26-12-2019 07:22:17 3.4 C 43 %
910 26-12-2019 07:32:17 3.4 C 43 %
911 26-12-2019 07:42:17 3.4 C 43 %
912 26-12-2019 07:52:17 3.4 C 43 %
913 26-12-2019 08:02:18 3.4 C 43 %
914 26-12-2019 08:12:18 3.4 C 43 %
915 26-12-2019 08:22:17 3.5 C 43 %
916 26-12-2019 08:32:17 3.4 C 43 %
917 26-12-2019 08:42:17 3.4 C 43 %
918 26-12-2019 08:52:17 3.5 C 43 %
919 26-12-2019 09:02:17 3.5 C 43 %
920 26-12-2019 09:12:17 3.5 C 43 %
921 26-12-2019 09:22:17 3.4 C 42 %
922 26-12-2019 09:32:17 3.5 C 43 %
923 26-12-2019 09:42:17 3.6 C 42 %
924 26-12-2019 09:52:18 3.6 C 42 %
925 26-12-2019 10:02:17 3.6 C 42 %
Sensor: Nr:Datum:Temp:Feuchte:
Aussen-T/F 926 26-12-2019 10:12:17 3.6 C 42 %
927 26-12-2019 10:22:18 3.8 C 42 %
928 26-12-2019 10:32:17 4 C 41 %
929 26-12-2019 10:42:17 4.3 C 41 %
930 26-12-2019 10:52:18 4.5 C 41 %
931 26-12-2019 11:02:17 4.7 C 41 %
932 26-12-2019 11:12:17 4.8 C 41 %
933 26-12-2019 11:22:17 5 C 40 %
934 26-12-2019 11:32:17 5.4 C 40 %
935 26-12-2019 11:42:17 5.5 C 39 %
936 26-12-2019 11:52:17 5.6 C 37 %
937 26-12-2019 12:02:17 5.7 C 36 %
938 26-12-2019 12:12:17 5.7 C 36 %
939 26-12-2019 12:22:17 5.7 C 35 %
940 26-12-2019 12:32:18 5.9 C 35 %
941 26-12-2019 12:42:18 6 C 35 %
942 26-12-2019 12:52:17 6 C 36 %
943 26-12-2019 13:02:18 5.9 C 36 %
944 26-12-2019 13:12:18 5.9 C 37 %
945 26-12-2019 13:22:17 5.8 C 36 %
946 26-12-2019 13:32:18 5.8 C 36 %
947 26-12-2019 13:42:18 5.7 C 36 %
948 26-12-2019 13:52:17 5.7 C 36 %
949 26-12-2019 14:02:18 5.7 C 36 %
950 26-12-2019 14:12:18 5.8 C 35 %
Sensor: Nr:Datum:Temp:Feuchte:
Aussen-T/F 951 26-12-2019 14:22:17 6 C 35 %
952 26-12-2019 14:32:17 6 C 35 %
953 26-12-2019 14:42:17 5.7 C 35 %
954 26-12-2019 14:52:17 5.6 C 36 %
955 26-12-2019 15:02:17 5.5 C 36 %
956 26-12-2019 15:12:17 5.4 C 36 %
957 26-12-2019 15:22:17 5.1 C 38 %
958 26-12-2019 15:32:17 5 C 37 %
959 26-12-2019 15:42:17 4.8 C 39 %
960 26-12-2019 15:52:18 4.8 C 39 %
961 26-12-2019 16:02:17 4.7 C 38 %
962 26-12-2019 16:12:17 4.6 C 39 %
963 26-12-2019 16:22:17 4.5 C 40 %
964 26-12-2019 16:32:17 4.4 C 41 %
965 26-12-2019 16:42:18 4.4 C 40 %
966 26-12-2019 16:53:17 4.3 C 41 %
967 26-12-2019 17:02:17 4.4 C 40 %
968 26-12-2019 17:12:17 4.3 C 40 %
969 26-12-2019 17:22:17 4.3 C 40 %
970 26-12-2019 17:32:17 4.4 C 40 %
971 26-12-2019 17:42:17 4.1 C 40 %
972 26-12-2019 17:52:17 4.1 C 40 %
973 26-12-2019 18:02:17 4 C 40 %
974 26-12-2019 18:12:17 4 C 41 %
975 26-12-2019 18:22:17 4.1 C 41 %
Sensor: Nr:Datum:Temp:Feuchte:
Aussen-T/F 976 26-12-2019 18:32:17 4.1 C 41 %
977 26-12-2019 18:42:18 4.1 C 40 %
978 26-12-2019 18:53:17 4.1 C 40 %
979 26-12-2019 19:02:17 4 C 40 %
980 26-12-2019 19:12:17 4 C 41 %
981 26-12-2019 19:23:17 4 C 41 %
982 26-12-2019 19:32:17 3.8 C 41 %
983 26-12-2019 19:42:17 4 C 41 %
984 26-12-2019 19:53:17 3.8 C 41 %
985 26-12-2019 20:02:17 3.8 C 42 %
986 26-12-2019 20:12:17 3.9 C 42 %
987 26-12-2019 20:23:17 4 C 41 %
988 26-12-2019 20:32:17 4.1 C 40 %
989 26-12-2019 20:42:17 4.2 C 39 %
990 26-12-2019 20:53:17 4.1 C 38 %
991 26-12-2019 21:02:17 4.3 C 37 %
992 26-12-2019 21:12:17 4.2 C 38 %
993 26-12-2019 21:23:17 4.1 C 38 %
994 26-12-2019 21:32:18 4.1 C 38 %
995 26-12-2019 21:42:18 4.2 C 37 %
996 26-12-2019 21:52:17 4.3 C 37 %
997 26-12-2019 22:02:18 4.1 C 39 %
998 26-12-2019 22:12:18 4.1 C 41 %
999 26-12-2019 22:22:17 4.1 C 41 %
1000 26-12-2019 22:33:17 4.1 C 41 %
Sensor: Nr:Datum:Temp:Feuchte:
Aussen-T/F 1001 26-12-2019 22:43:17 4.1 C 42 %
1002 26-12-2019 22:52:17 4.1 C 42 %
1003 26-12-2019 23:03:17 4.1 C 43 %
1004 26-12-2019 23:13:17 4.1 C 43 %
1005 26-12-2019 23:23:17 4 C 43 %
1006 26-12-2019 23:32:17 4 C 43 %
1007 26-12-2019 23:42:17 4 C 42 %
1008 26-12-2019 23:53:17 4 C 42 %
1009 27-12-2019 00:02:17 4 C 42 %
1010 27-12-2019 00:12:17 4 C 42 %
1011 27-12-2019 00:23:17 4 C 42 %
1012 27-12-2019 00:32:17 4 C 42 %
1013 27-12-2019 00:42:18 4.1 C 42 %
1014 27-12-2019 00:53:17 4.1 C 42 %
1015 27-12-2019 01:03:18 4.1 C 42 %
1016 27-12-2019 01:13:18 4.1 C 42 %
1017 27-12-2019 01:23:17 4.1 C 42 %
1018 27-12-2019 01:33:17 4.1 C 42 %
1019 27-12-2019 01:43:17 4.1 C 42 %
1020 27-12-2019 01:53:18 4.1 C 42 %
1021 27-12-2019 02:03:17 4.1 C 42 %
1022 27-12-2019 02:13:17 4.1 C 42 %
1023 27-12-2019 02:23:17 4.1 C 42 %
1024 27-12-2019 02:33:18 4.1 C 42 %
1025 27-12-2019 02:43:19 4.1 C 42 %
Sensor: Nr:Datum:Temp:Feuchte:
Aussen-T/F 1026 27-12-2019 02:53:17 4.2 C 42 %
1027 27-12-2019 03:03:17 4.3 C 42 %
1028 27-12-2019 03:13:17 4.2 C 42 %
1029 27-12-2019 03:23:17 4.3 C 42 %
1030 27-12-2019 03:33:17 4.3 C 42 %
1031 27-12-2019 03:43:18 4.3 C 42 %
1032 27-12-2019 03:53:17 4.3 C 42 %
1033 27-12-2019 04:03:17 4.3 C 42 %
1034 27-12-2019 04:13:17 4.3 C 42 %
1035 27-12-2019 04:23:17 4.3 C 42 %
1036 27-12-2019 04:33:17 4.3 C 42 %
1037 27-12-2019 04:43:17 4.3 C 42 %
1038 27-12-2019 04:53:18 4.4 C 42 %
1039 27-12-2019 05:03:17 4.4 C 42 %
1040 27-12-2019 05:13:17 4.4 C 42 %
1041 27-12-2019 05:23:17 4.4 C 42 %
1042 27-12-2019 05:33:17 4.3 C 42 %
1043 27-12-2019 05:43:17 4.4 C 42 %
1044 27-12-2019 05:53:17 4.4 C 42 %
1045 27-12-2019 06:03:17 4.4 C 42 %
1046 27-12-2019 06:13:17 4.4 C 42 %
1047 27-12-2019 06:23:17 4.4 C 42 %
1048 27-12-2019 06:33:17 4.4 C 42 %
1049 27-12-2019 06:43:17 4.4 C 42 %
1050 27-12-2019 06:53:17 4.4 C 42 %
Sensor: Nr:Datum:Temp:Feuchte:
Aussen-T/F 1051 27-12-2019 07:03:17 4.5 C 42 %
1052 27-12-2019 07:13:17 4.4 C 42 %
1053 27-12-2019 07:23:18 4.4 C 42 %
1054 27-12-2019 07:33:17 4.4 C 42 %
1055 27-12-2019 07:43:17 4.4 C 42 %
1056 27-12-2019 07:53:17 4.3 C 42 %
1057 27-12-2019 08:03:17 4.3 C 42 %
1058 27-12-2019 08:13:17 4.3 C 42 %
1059 27-12-2019 08:23:17 4.3 C 42 %
1060 27-12-2019 08:33:17 4.3 C 42 %
1061 27-12-2019 08:43:17 4.3 C 42 %
1062 27-12-2019 08:53:18 4.3 C 42 %
1063 27-12-2019 09:03:17 4.4 C 42 %
1064 27-12-2019 09:13:17 4.4 C 42 %
1065 27-12-2019 09:23:17 4.3 C 42 %
1066 27-12-2019 09:33:17 4.5 C 42 %
1067 27-12-2019 09:43:17 4.6 C 42 %
1068 27-12-2019 09:53:17 4.8 C 41 %
1069 27-12-2019 10:03:17 4.9 C 41 %
1070 27-12-2019 10:13:17 4.8 C 40 %
1071 27-12-2019 10:23:17 4.8 C 40 %
1072 27-12-2019 10:33:18 4.9 C 40 %
1073 27-12-2019 10:43:18 4.9 C 40 %
1074 27-12-2019 10:53:17 5 C 38 %
1075 27-12-2019 11:03:18 5 C 38 %
Sensor: Nr:Datum:Temp:Feuchte:
Aussen-T/F 1076 27-12-2019 11:13:18 5.1 C 37 %
1077 27-12-2019 11:23:17 5.1 C 37 %
1078 27-12-2019 11:33:17 5.2 C 36 %
1079 27-12-2019 11:43:17 5.7 C 33 %
1080 27-12-2019 11:53:17 6 C 31 %
1081 27-12-2019 12:03:17 6.1 C 31 %
1082 27-12-2019 12:13:17 5.9 C 31 %
1083 27-12-2019 12:23:17 5.9 C 31 %
1084 27-12-2019 12:33:17 6 C 31 %
1085 27-12-2019 12:43:17 6 C 31 %
1086 27-12-2019 12:53:17 5.9 C 31 %
1087 27-12-2019 13:03:17 5.7 C 31 %
1088 27-12-2019 13:13:17 5.7 C 31 %
1089 27-12-2019 13:23:17 5.6 C 31 %
1090 27-12-2019 13:33:17 5.7 C 31 %
1091 27-12-2019 13:43:17 5.7 C 30 %
1092 27-12-2019 13:53:17 5.8 C 30 %
1093 27-12-2019 14:03:18 5.9 C 30 %
1094 27-12-2019 14:13:18 6.1 C 29 %
1095 27-12-2019 14:23:18 5.9 C 29 %
1096 27-12-2019 14:33:17 6 C 30 %
1097 27-12-2019 14:43:17 5.9 C 28 %
1098 27-12-2019 14:53:18 5.8 C 26 %
1099 27-12-2019 15:03:17 5.7 C 27 %
1100 27-12-2019 15:13:17 5.7 C 28 %
Sensor: Nr:Datum:Temp:Feuchte:
Aussen-T/F 1101 27-12-2019 15:23:18 5.6 C 29 %
1102 27-12-2019 15:33:17 5.6 C 29 %
1103 27-12-2019 15:43:17 5.4 C 30 %
1104 27-12-2019 15:53:17 5.3 C 31 %
1105 27-12-2019 16:03:17 5.1 C 33 %
1106 27-12-2019 16:13:17 4.9 C 33 %
1107 27-12-2019 16:23:17 4.9 C 33 %
1108 27-12-2019 16:33:17 4.8 C 34 %
1109 27-12-2019 16:43:17 4.7 C 33 %
1110 27-12-2019 16:53:17 4.6 C 34 %
1111 27-12-2019 17:03:17 4.5 C 34 %
1112 27-12-2019 17:13:17 4.5 C 35 %
1113 27-12-2019 17:23:17 4.5 C 33 %
1114 27-12-2019 17:33:18 4.5 C 34 %
1115 27-12-2019 17:43:18 4.5 C 34 %
1116 27-12-2019 17:53:17 4.4 C 34 %
1117 27-12-2019 18:03:18 4.4 C 33 %
1118 27-12-2019 18:13:18 4.4 C 33 %
1119 27-12-2019 18:23:17 4.4 C 32 %
1120 27-12-2019 18:33:18 4.4 C 34 %
1121 27-12-2019 18:43:18 4.3 C 34 %
1122 27-12-2019 18:53:17 4.2 C 33 %
1123 27-12-2019 19:03:17 4.2 C 33 %
1124 27-12-2019 19:13:17 4.2 C 33 %
1125 27-12-2019 19:23:17 4.3 C 32 %
Sensor: Nr:Datum:Temp:Feuchte:
Aussen-T/F 1126 27-12-2019 19:33:17 4.2 C 33 %
1127 27-12-2019 19:43:17 4.1 C 34 %
1128 27-12-2019 19:53:18 3.9 C 35 %
1129 27-12-2019 20:03:17 3.8 C 34 %
1130 27-12-2019 20:13:17 4 C 32 %
1131 27-12-2019 20:23:17 4 C 32 %
1132 27-12-2019 20:33:18 4 C 32 %
1133 27-12-2019 20:43:18 4 C 31 %
1134 27-12-2019 20:53:17 4.1 C 31 %
1135 27-12-2019 21:03:18 4.1 C 31 %
1136 27-12-2019 21:13:18 4 C 31 %
1137 27-12-2019 21:23:17 4 C 31 %
1138 27-12-2019 21:33:18 3.9 C 33 %
1139 27-12-2019 21:43:18 3.9 C 32 %
1140 27-12-2019 21:53:17 3.7 C 32 %
1141 27-12-2019 22:03:17 3.6 C 32 %
1142 27-12-2019 22:13:17 3.3 C 32 %
1143 27-12-2019 22:23:17 3.2 C 32 %
1144 27-12-2019 22:33:17 2.7 C 33 %
1145 27-12-2019 22:43:17 2.2 C 34 %
1146 27-12-2019 22:53:17 2 C 35 %
1147 27-12-2019 23:03:18 1.7 C 38 %
1148 27-12-2019 23:13:18 1.3 C 39 %
1149 27-12-2019 23:23:17 1.2 C 41 %
1150 27-12-2019 23:33:17 0.9 C 42 %
Sensor: Nr:Datum:Temp:Feuchte:
Aussen-T/F 1151 27-12-2019 23:43:17 0.8 C 41 %
1152 27-12-2019 23:53:17 0.7 C 41 %
1153 28-12-2019 00:03:17 0.5 C 40 %
1154 28-12-2019 00:13:17 0.4 C 41 %
1155 28-12-2019 00:23:18 0.4 C 41 %
1156 28-12-2019 00:33:17 0.3 C 41 %
1157 28-12-2019 00:43:17 0.3 C 41 %
1158 28-12-2019 00:53:17 0.2 C 40 %
1159 28-12-2019 01:03:17 0.1 C 40 %
1160 28-12-2019 01:13:17 -0.2 C 43 %
1161 28-12-2019 01:23:17 -0.5 C 43 %
1162 28-12-2019 01:33:17 -0.3 C 44 %
1163 28-12-2019 01:43:17 -0.7 C 42 %
1164 28-12-2019 01:53:17 -1.1 C 43 %
1165 28-12-2019 02:03:17 -1.3 C 45 %
1166 28-12-2019 02:13:17 -1.5 C 44 %
1167 28-12-2019 02:23:17 -1.7 C 44 %
1168 28-12-2019 02:33:18 -1.5 C 45 %
1169 28-12-2019 02:43:18 -1.5 C 45 %
1170 28-12-2019 02:53:17 -1.6 C 45 %
1171 28-12-2019 03:03:17 -1.9 C 45 %
1172 28-12-2019 03:13:18 -1.7 C 45 %
1173 28-12-2019 03:23:17 -2.1 C 45 %
1174 28-12-2019 03:33:17 -2.1 C 45 %
1175 28-12-2019 03:43:17 -2.1 C 45 %
Sensor: Nr:Datum:Temp:Feuchte:
Aussen-T/F 1176 28-12-2019 03:53:18 -2.4 C 45 %
1177 28-12-2019 04:03:17 -2.4 C 45 %
1178 28-12-2019 04:13:17 -2.4 C 45 %
1179 28-12-2019 04:23:17 -2.3 C 45 %
1180 28-12-2019 04:33:17 -2.4 C 45 %
1181 28-12-2019 04:43:18 -2.3 C 45 %
1182 28-12-2019 04:53:17 -2.4 C 45 %
1183 28-12-2019 05:03:18 -2.6 C 44 %
1184 28-12-2019 05:13:18 -2.7 C 44 %
1185 28-12-2019 05:23:17 -2.5 C 45 %
1186 28-12-2019 05:33:18 -2.5 C 45 %
1187 28-12-2019 05:43:18 -2.1 C 45 %
1188 28-12-2019 05:53:17 -2.3 C 45 %
1189 28-12-2019 06:03:17 -1.8 C 45 %
1190 28-12-2019 06:13:18 -2.1 C 44 %
1191 28-12-2019 06:23:17 -2.2 C 43 %
1192 28-12-2019 06:33:17 -2 C 44 %
1193 28-12-2019 06:43:18 -1.9 C 44 %
1194 28-12-2019 06:53:17 -2.1 C 43 %
1195 28-12-2019 07:03:18 -2 C 43 %
1196 28-12-2019 07:13:18 -2.3 C 43 %
1197 28-12-2019 07:23:17 -2.8 C 42 %
1198 28-12-2019 07:33:17 -2.3 C 43 %
1199 28-12-2019 07:43:17 -2.4 C 43 %
1200 28-12-2019 07:53:17 -2.2 C 44 %
Sensor: Nr:Datum:Temp:Feuchte:
Aussen-T/F 1201 28-12-2019 08:03:17 -2.6 C 43 %
1202 28-12-2019 08:13:17 -3 C 42 %
1203 28-12-2019 08:23:18 -3.1 C 42 %
1204 28-12-2019 08:33:17 -3.2 C 42 %
1205 28-12-2019 08:43:17 -3.2 C 42 %
1206 28-12-2019 08:53:17 -2.9 C 43 %
1207 28-12-2019 09:03:18 -2.9 C 43 %
1208 28-12-2019 09:13:18 -2.8 C 43 %
1209 28-12-2019 09:23:17 -2.7 C 43 %
1210 28-12-2019 09:33:17 -2.5 C 43 %
1211 28-12-2019 09:43:17 -1.9 C 45 %
1212 28-12-2019 09:53:17 -1.7 C 45 %
1213 28-12-2019 10:03:17 -1.6 C 45 %
1214 28-12-2019 10:13:17 -1.4 C 45 %
1215 28-12-2019 10:23:17 -1.5 C 45 %
1216 28-12-2019 10:33:18 -1.3 C 45 %
1217 28-12-2019 10:43:18 -1.3 C 45 %
1218 28-12-2019 10:53:17 -1.1 C 45 %
1219 28-12-2019 11:03:18 -1 C 44 %
1220 28-12-2019 11:13:18 -0.9 C 44 %
1221 28-12-2019 11:23:17 -0.6 C 44 %
1222 28-12-2019 11:33:17 -0.5 C 43 %
1223 28-12-2019 11:43:18 -0.3 C 42 %
1224 28-12-2019 11:53:17 -0.2 C 42 %
1225 28-12-2019 12:03:17 -0.2 C 41 %
Sensor: Nr:Datum:Temp:Feuchte:
Aussen-T/F 1226 28-12-2019 12:13:17 0 C 41 %
1227 28-12-2019 12:23:17 0.2 C 41 %
1228 28-12-2019 12:33:17 0.3 C 41 %
1229 28-12-2019 12:43:18 0.4 C 40 %
1230 28-12-2019 12:53:17 0.5 C 40 %
1231 28-12-2019 13:03:18 0.7 C 40 %
1232 28-12-2019 13:13:18 0.8 C 40 %
1233 28-12-2019 13:23:17 0.8 C 40 %
1234 28-12-2019 13:33:17 0.9 C 40 %
1235 28-12-2019 13:43:17 0.8 C 40 %
1236 28-12-2019 13:53:17 0.6 C 40 %
1237 28-12-2019 14:03:17 0.6 C 41 %
1238 28-12-2019 14:13:17 0.7 C 41 %
1239 28-12-2019 14:23:17 0.8 C 40 %
1240 28-12-2019 14:33:17 0.7 C 40 %
1241 28-12-2019 14:43:17 0.6 C 40 %
1242 28-12-2019 14:53:17 0.5 C 40 %
1243 28-12-2019 15:03:17 0.5 C 40 %
1244 28-12-2019 15:13:18 0.5 C 40 %
1245 28-12-2019 15:23:17 0.2 C 40 %
1246 28-12-2019 15:33:17 0.4 C 40 %
1247 28-12-2019 15:43:17 0.3 C 39 %
1248 28-12-2019 15:53:18 0.4 C 39 %
1249 28-12-2019 16:03:17 0.3 C 38 %
1250 28-12-2019 16:13:17 0.2 C 38 %
Sensor: Nr:Datum:Temp:Feuchte:
Aussen-T/F 1251 28-12-2019 16:23:17 0 C 39 %
1252 28-12-2019 16:33:17 0 C 39 %
1253 28-12-2019 16:43:17 -0.1 C 38 %
1254 28-12-2019 16:53:17 -0.3 C 39 %
1255 28-12-2019 17:03:17 -0.4 C 39 %
1256 28-12-2019 17:13:17 -0.4 C 40 %
1257 28-12-2019 17:23:17 -0.5 C 40 %
1258 28-12-2019 17:33:18 -0.6 C 40 %
1259 28-12-2019 17:43:18 -0.7 C 41 %
1260 28-12-2019 17:53:17 -1.3 C 41 %
1261 28-12-2019 18:03:17 -1.2 C 44 %
1262 28-12-2019 18:13:17 -1.1 C 43 %
1263 28-12-2019 18:23:17 -1.1 C 43 %
1264 28-12-2019 18:33:17 -0.9 C 43 %
1265 28-12-2019 18:43:17 -1.2 C 43 %
1266 28-12-2019 18:53:17 -0.9 C 43 %
1267 28-12-2019 19:03:17 -1.2 C 42 %
1268 28-12-2019 19:13:18 -1.7 C 42 %
1269 28-12-2019 19:23:17 -1.9 C 43 %
1270 28-12-2019 19:33:18 -1.9 C 44 %
1271 28-12-2019 19:43:18 -1.9 C 44 %
1272 28-12-2019 19:53:17 -1.8 C 44 %
1273 28-12-2019 20:03:17 -1.9 C 44 %
1274 28-12-2019 20:13:17 -1.7 C 45 %
1275 28-12-2019 20:23:17 -1.2 C 45 %
Sensor: Nr:Datum:Temp:Feuchte:
Aussen-T/F 1276 28-12-2019 20:33:18 -1.2 C 43 %
1277 28-12-2019 20:43:18 -1.4 C 43 %
1278 28-12-2019 20:53:18 -1.2 C 44 %
1279 28-12-2019 21:03:17 -1.6 C 43 %
1280 28-12-2019 21:13:17 -1.3 C 44 %
1281 28-12-2019 21:23:17 -1.4 C 41 %
1282 28-12-2019 21:33:17 -1.8 C 41 %
1283 28-12-2019 21:43:18 -1.6 C 43 %
1284 28-12-2019 21:53:17 -1.7 C 42 %
1285 28-12-2019 22:03:18 -1.7 C 42 %
1286 28-12-2019 22:13:18 -2.2 C 41 %
1287 28-12-2019 22:23:17 -2.3 C 42 %
1288 28-12-2019 22:33:17 -2.3 C 42 %
1289 28-12-2019 22:43:17 -2.5 C 42 %
1290 28-12-2019 22:53:17 -2.2 C 43 %
1291 28-12-2019 23:03:17 -2.5 C 42 %
1292 28-12-2019 23:13:17 -2.3 C 43 %
1293 28-12-2019 23:23:17 -2.3 C 43 %
1294 28-12-2019 23:33:17 -2.7 C 42 %
1295 28-12-2019 23:43:17 -2.6 C 43 %
1296 28-12-2019 23:53:17 -2.9 C 42 %
1297 29-12-2019 00:03:18 -2.6 C 43 %
1298 29-12-2019 00:13:18 -2.9 C 43 %
1299 29-12-2019 00:23:17 -3.1 C 42 %
1300 29-12-2019 00:33:17 -3.2 C 43 %
Sensor: Nr:Datum:Temp:Feuchte:
Aussen-T/F 1301 29-12-2019 00:43:17 -3.1 C 43 %
1302 29-12-2019 00:53:17 -3.1 C 43 %
1303 29-12-2019 01:03:17 -3.3 C 42 %
1304 29-12-2019 01:13:17 -3.3 C 43 %
1305 29-12-2019 01:23:17 -3.5 C 42 %
1306 29-12-2019 01:33:17 -3.7 C 42 %
1307 29-12-2019 01:43:17 -3 C 44 %
1308 29-12-2019 01:53:17 -3.5 C 42 %
1309 29-12-2019 02:03:17 -3.7 C 41 %
1310 29-12-2019 02:13:17 -3.8 C 42 %
1311 29-12-2019 02:23:17 -3.3 C 43 %
1312 29-12-2019 02:33:17 -3.7 C 41 %
1313 29-12-2019 02:43:17 -3.7 C 42 %
1314 29-12-2019 02:53:18 -3.8 C 41 %
1315 29-12-2019 03:03:17 -4 C 41 %
1316 29-12-2019 03:13:17 -4 C 42 %
1317 29-12-2019 03:23:17 -4 C 41 %
1318 29-12-2019 03:33:17 -4.1 C 41 %
1319 29-12-2019 03:43:17 -4.1 C 41 %
1320 29-12-2019 03:53:18 -4 C 42 %
1321 29-12-2019 04:03:17 -4.2 C 41 %
1322 29-12-2019 04:13:17 -3.9 C 42 %
1323 29-12-2019 04:23:17 -4.1 C 41 %
1324 29-12-2019 04:33:17 -4.1 C 41 %
1325 29-12-2019 04:43:17 -4.4 C 41 %
Sensor: Nr:Datum:Temp:Feuchte:
Aussen-T/F 1326 29-12-2019 04:53:17 -4.2 C 41 %
1327 29-12-2019 05:03:17 -4.3 C 41 %
1328 29-12-2019 05:13:17 -4.5 C 41 %
1329 29-12-2019 05:23:17 -4.5 C 41 %
1330 29-12-2019 05:33:18 -4.4 C 41 %
1331 29-12-2019 05:43:18 -4.5 C 41 %
1332 29-12-2019 05:53:17 -4.7 C 41 %
1333 29-12-2019 06:03:17 -4.6 C 41 %
1334 29-12-2019 06:13:17 -4.7 C 41 %
1335 29-12-2019 06:23:17 -4.8 C 41 %
1336 29-12-2019 06:33:17 -4.8 C 41 %
1337 29-12-2019 06:43:17 -4.8 C 41 %
1338 29-12-2019 06:53:17 -4.8 C 41 %
1339 29-12-2019 07:03:17 -4.9 C 41 %
1340 29-12-2019 07:13:17 -4.9 C 41 %
1341 29-12-2019 07:23:17 -5 C 41 %
1342 29-12-2019 07:33:17 -4.5 C 42 %
1343 29-12-2019 07:43:17 -4.7 C 41 %
1344 29-12-2019 07:53:17 -4.7 C 41 %
1345 29-12-2019 08:03:17 -4.4 C 42 %
1346 29-12-2019 08:13:17 -4.3 C 42 %
1347 29-12-2019 08:23:18 -3.9 C 43 %
1348 29-12-2019 08:33:17 -4.1 C 41 %
1349 29-12-2019 08:43:17 -4.3 C 41 %
1350 29-12-2019 08:53:17 -4.5 C 40 %
Sensor: Nr:Datum:Temp:Feuchte:
Aussen-T/F 1351 29-12-2019 09:03:17 -4.1 C 42 %
1352 29-12-2019 09:13:17 -3.9 C 42 %
1353 29-12-2019 09:23:18 -4 C 41 %
1354 29-12-2019 09:33:17 -4.1 C 41 %
1355 29-12-2019 09:43:17 -4 C 41 %
1356 29-12-2019 09:53:17 -4 C 41 %
1357 29-12-2019 10:03:18 -4 C 40 %
1358 29-12-2019 10:13:18 -3.9 C 41 %
1359 29-12-2019 10:23:17 -3.5 C 42 %
1360 29-12-2019 10:33:17 -3.3 C 42 %
1361 29-12-2019 10:43:17 -3.1 C 42 %
1362 29-12-2019 10:53:17 -2.6 C 43 %
1363 29-12-2019 11:03:17 -2.1 C 43 %
1364 29-12-2019 11:13:17 -1.8 C 42 %
1365 29-12-2019 11:23:17 -1.4 C 43 %
1366 29-12-2019 11:33:17 -1.3 C 42 %
1367 29-12-2019 11:43:18 -0.8 C 43 %
1368 29-12-2019 11:53:17 -0.4 C 42 %
1369 29-12-2019 12:03:18 -0.5 C 41 %
1370 29-12-2019 12:13:18 -0.3 C 41 %
1371 29-12-2019 12:23:17 0.1 C 40 %
1372 29-12-2019 12:33:17 0.3 C 40 %
1373 29-12-2019 12:43:17 0.5 C 40 %
1374 29-12-2019 12:53:17 0.4 C 40 %
1375 29-12-2019 13:03:17 0.7 C 38 %
Sensor: Nr:Datum:Temp:Feuchte:
Aussen-T/F 1376 29-12-2019 13:13:17 1 C 37 %
1377 29-12-2019 13:23:17 1 C 37 %
1378 29-12-2019 13:33:18 1.4 C 36 %
1379 29-12-2019 13:43:18 1.4 C 38 %
1380 29-12-2019 13:53:17 1.5 C 37 %
1381 29-12-2019 14:03:17 1.5 C 36 %
1382 29-12-2019 14:13:17 1.4 C 37 %
1383 29-12-2019 14:23:17 1.7 C 36 %
1384 29-12-2019 14:33:18 1.9 C 36 %
1385 29-12-2019 14:43:18 2.2 C 34 %
1386 29-12-2019 14:53:17 2.1 C 33 %
1387 29-12-2019 15:03:17 1.9 C 34 %
1388 29-12-2019 15:13:18 2 C 31 %
1389 29-12-2019 15:23:17 2 C 27 %
1390 29-12-2019 15:33:17 1.9 C 30 %
1391 29-12-2019 15:43:17 1.5 C 32 %
1392 29-12-2019 15:53:18 1.1 C 32 %
1393 29-12-2019 16:03:17 0.5 C 35 %
1394 29-12-2019 16:13:17 0.2 C 38 %
1395 29-12-2019 16:23:17 0.2 C 39 %
1396 29-12-2019 16:33:18 -0.3 C 39 %
1397 29-12-2019 16:43:18 -0.1 C 40 %
1398 29-12-2019 16:53:17 -0.2 C 40 %
1399 29-12-2019 17:03:17 -0.2 C 40 %
1400 29-12-2019 17:13:17 -0.3 C 39 %
Sensor: Nr:Datum:Temp:Feuchte:
Aussen-T/F 1401 29-12-2019 17:23:17 -0.3 C 37 %
1402 29-12-2019 17:33:17 -0.3 C 37 %
1403 29-12-2019 17:43:17 -0.1 C 36 %
1404 29-12-2019 17:53:17 -0.2 C 38 %
1405 29-12-2019 18:03:17 -0.1 C 37 %
1406 29-12-2019 18:13:17 0.1 C 37 %
1407 29-12-2019 18:23:17 0.2 C 36 %
1408 29-12-2019 18:33:17 -0.2 C 38 %
1409 29-12-2019 18:43:17 -0.5 C 40 %
1410 29-12-2019 18:53:17 -0.8 C 40 %
1411 29-12-2019 19:03:17 -0.5 C 41 %
1412 29-12-2019 19:13:17 -0.7 C 38 %
1413 29-12-2019 19:23:18 -0.6 C 37 %
1414 29-12-2019 19:33:18 -0.6 C 35 %
1415 29-12-2019 19:43:18 -1 C 35 %
1416 29-12-2019 19:53:17 -1.1 C 36 %
1417 29-12-2019 20:03:18 -0.9 C 34 %
1418 29-12-2019 20:13:18 -1.2 C 36 %
1419 29-12-2019 20:23:17 -0.7 C 35 %
1420 29-12-2019 20:33:17 -1.3 C 37 %
1421 29-12-2019 20:43:17 -0.9 C 39 %
1422 29-12-2019 20:53:17 -1.5 C 39 %
1423 29-12-2019 21:03:17 -1.2 C 38 %
1424 29-12-2019 21:13:17 -1.8 C 37 %
1425 29-12-2019 21:23:17 -1.8 C 40 %
Sensor: Nr:Datum:Temp:Feuchte:
Aussen-T/F 1426 29-12-2019 21:33:18 -1.8 C 41 %
1427 29-12-2019 21:43:18 -2.1 C 42 %
1428 29-12-2019 21:53:17 -2.3 C 42 %
1429 29-12-2019 22:03:17 -2.2 C 43 %
1430 29-12-2019 22:13:17 -2.1 C 43 %
1431 29-12-2019 22:23:17 -2.4 C 42 %
1432 29-12-2019 22:33:17 -2.7 C 42 %
1433 29-12-2019 22:43:18 -2.7 C 43 %
1434 29-12-2019 22:53:17 -2.7 C 43 %
1435 29-12-2019 23:03:17 -2.8 C 43 %
1436 29-12-2019 23:13:17 -2.7 C 44 %
1437 29-12-2019 23:23:17 -2.8 C 43 %
1438 29-12-2019 23:33:18 -3 C 43 %
1439 29-12-2019 23:43:18 -3 C 43 %
1440 29-12-2019 23:53:17 -3 C 42 %
1441 30-12-2019 00:03:17 -3 C 42 %
1442 30-12-2019 00:13:17 -3.1 C 41 %
1443 30-12-2019 00:23:17 -3.1 C 41 %
1444 30-12-2019 00:33:17 -3 C 42 %
1445 30-12-2019 00:43:17 -3.2 C 42 %
1446 30-12-2019 00:53:17 -3.2 C 42 %
1447 30-12-2019 01:03:17 -3.2 C 42 %
1448 30-12-2019 01:13:18 -3.1 C 44 %
1449 30-12-2019 01:23:17 -3.1 C 43 %
1450 30-12-2019 01:33:18 -3.2 C 42 %
Sensor: Nr:Datum:Temp:Feuchte:
Aussen-T/F 1451 30-12-2019 01:43:18 -3.4 C 42 %
1452 30-12-2019 01:53:17 -3.5 C 42 %
1453 30-12-2019 02:03:17 -3.2 C 43 %
1454 30-12-2019 02:13:17 -3.4 C 43 %
1455 30-12-2019 02:23:17 -3.4 C 43 %
1456 30-12-2019 02:33:18 -3.4 C 43 %
1457 30-12-2019 02:43:18 -3.4 C 43 %
1458 30-12-2019 02:53:17 -3.4 C 43 %
1459 30-12-2019 03:03:17 -3.3 C 43 %
1460 30-12-2019 03:13:17 -3.4 C 43 %
1461 30-12-2019 03:23:17 -3.1 C 43 %
1462 30-12-2019 03:33:18 -3.2 C 43 %
1463 30-12-2019 03:43:18 -3.3 C 43 %
1464 30-12-2019 03:53:17 -3.5 C 43 %
1465 30-12-2019 04:03:17 -3.7 C 42 %
1466 30-12-2019 04:13:17 -3.8 C 42 %
1467 30-12-2019 04:23:17 -3.8 C 42 %
1468 30-12-2019 04:33:17 -3.9 C 42 %
1469 30-12-2019 04:43:17 -3.9 C 42 %
1470 30-12-2019 04:53:17 -4 C 42 %
1471 30-12-2019 05:03:17 -3.9 C 42 %
1472 30-12-2019 05:13:17 -3.8 C 42 %
1473 30-12-2019 05:23:17 -3.9 C 42 %
1474 30-12-2019 05:33:17 -3.7 C 43 %
1475 30-12-2019 05:43:17 -3.8 C 43 %
Sensor: Nr:Datum:Temp:Feuchte:
Aussen-T/F 1476 30-12-2019 05:53:18 -4 C 42 %
1477 30-12-2019 06:03:17 -4 C 42 %
1478 30-12-2019 06:13:17 -4 C 42 %
1479 30-12-2019 06:23:17 -3.9 C 42 %
1480 30-12-2019 06:33:17 -3.7 C 43 %
1481 30-12-2019 06:43:17 -3.9 C 42 %
1482 30-12-2019 06:53:17 -4 C 42 %
1483 30-12-2019 07:03:17 -4 C 42 %
1484 30-12-2019 07:13:17 -4.2 C 41 %
1485 30-12-2019 07:23:17 -4.4 C 42 %
1486 30-12-2019 07:33:18 -4.4 C 41 %
1487 30-12-2019 07:43:18 -4.4 C 42 %
1488 30-12-2019 07:53:17 -4.2 C 42 %
1489 30-12-2019 08:03:17 -4.4 C 41 %
1490 30-12-2019 08:13:17 -4.3 C 42 %
1491 30-12-2019 08:23:17 -4.4 C 42 %
1492 30-12-2019 08:33:17 -4.5 C 41 %
1493 30-12-2019 08:43:17 -4 C 43 %
1494 30-12-2019 08:53:17 -4.2 C 41 %
1495 30-12-2019 09:03:18 -4.1 C 42 %
1496 30-12-2019 09:13:18 -3.9 C 42 %
1497 30-12-2019 09:23:17 -3.8 C 42 %
1498 30-12-2019 09:33:17 -3.6 C 43 %
1499 30-12-2019 09:43:17 -3.7 C 42 %
1500 30-12-2019 09:53:17 -3.7 C 42 %
Sensor: Nr:Datum:Temp:Feuchte:
Aussen-T/F 1501 30-12-2019 10:03:17 -3.5 C 42 %
1502 30-12-2019 10:13:17 -3.3 C 43 %
1503 30-12-2019 10:23:17 -3.3 C 42 %
1504 30-12-2019 10:33:17 -3.3 C 42 %
1505 30-12-2019 10:43:17 -3 C 43 %
1506 30-12-2019 10:53:17 -2.9 C 42 %
1507 30-12-2019 11:03:17 -2.9 C 42 %
1508 30-12-2019 11:13:17 -2.8 C 42 %
1509 30-12-2019 11:23:17 -2.4 C 43 %
1510 30-12-2019 11:33:17 -2.1 C 42 %
1511 30-12-2019 11:43:17 -2 C 41 %
1512 30-12-2019 11:53:18 -2.1 C 40 %
1513 30-12-2019 12:03:17 -1.7 C 41 %
1514 30-12-2019 12:13:17 -1.5 C 40 %
1515 30-12-2019 12:23:17 -1.6 C 40 %
1516 30-12-2019 12:33:17 -1.4 C 41 %
1517 30-12-2019 12:43:17 -0.7 C 39 %
1518 30-12-2019 12:53:17 -0.8 C 39 %
1519 30-12-2019 13:03:17 -0.8 C 38 %
1520 30-12-2019 13:13:17 -1 C 40 %
1521 30-12-2019 13:23:17 -1 C 41 %
1522 30-12-2019 13:33:17 -1 C 42 %
1523 30-12-2019 13:43:17 -0.6 C 42 %
1524 30-12-2019 13:53:17 -0.2 C 41 %
1525 30-12-2019 14:03:17 0.3 C 37 %
Sensor: Nr:Datum:Temp:Feuchte:
Aussen-T/F 1526 30-12-2019 14:13:17 0.1 C 35 %
1527 30-12-2019 14:23:17 0.6 C 35 %
1528 30-12-2019 14:33:17 0.5 C 35 %
1529 30-12-2019 14:43:17 1 C 32 %
1530 30-12-2019 14:53:17 0.6 C 35 %
1531 30-12-2019 15:03:17 0.9 C 36 %
1532 30-12-2019 15:13:17 1.1 C 33 %
1533 30-12-2019 15:23:17 0.6 C 35 %
1534 30-12-2019 15:33:18 0.6 C 36 %
1535 30-12-2019 15:43:18 0.7 C 35 %
1536 30-12-2019 15:53:17 1.6 C 32 %
1537 30-12-2019 16:03:18 1.7 C 32 %
1538 30-12-2019 16:13:18 1.9 C 31 %
1539 30-12-2019 16:23:18 1.6 C 33 %
1540 30-12-2019 16:33:17 1.1 C 35 %
1541 30-12-2019 16:43:17 0.8 C 37 %
1542 30-12-2019 16:53:17 0.6 C 40 %
1543 30-12-2019 17:03:17 0.7 C 40 %
1544 30-12-2019 17:13:17 0.7 C 40 %
1545 30-12-2019 17:23:18 0.6 C 40 %
1546 30-12-2019 17:33:17 0.5 C 40 %
1547 30-12-2019 17:43:17 0.5 C 40 %
1548 30-12-2019 17:53:17 0.5 C 37 %
1549 30-12-2019 18:03:17 0.3 C 36 %
1550 30-12-2019 18:13:17 -0.3 C 36 %
Sensor: Nr:Datum:Temp:Feuchte:
Aussen-T/F 1551 30-12-2019 18:23:18 -0.7 C 37 %
1552 30-12-2019 18:33:18 -0.4 C 36 %
1553 30-12-2019 18:43:18 -0.2 C 36 %
1554 30-12-2019 18:53:17 -0.6 C 34 %
1555 30-12-2019 19:03:17 -1.3 C 36 %
1556 30-12-2019 19:13:17 -1 C 36 %
1557 30-12-2019 19:23:18 -1.4 C 36 %
1558 30-12-2019 19:33:17 -1.4 C 39 %
1559 30-12-2019 19:43:17 -0.4 C 33 %
1560 30-12-2019 19:53:18 0 C 32 %
1561 30-12-2019 20:03:17 -0.3 C 31 %
1562 30-12-2019 20:13:17 -1.2 C 32 %
1563 30-12-2019 20:23:17 -1.6 C 35 %
1564 30-12-2019 20:33:17 -1.6 C 36 %
1565 30-12-2019 20:43:17 -1.7 C 36 %
1566 30-12-2019 20:53:17 -1.5 C 37 %
1567 30-12-2019 21:03:17 -1.9 C 37 %
1568 30-12-2019 21:13:17 -0.8 C 35 %
1569 30-12-2019 21:23:17 -1.1 C 35 %
1570 30-12-2019 21:33:17 -0.9 C 35 %
1571 30-12-2019 21:43:17 -0.8 C 36 %
1572 30-12-2019 21:53:17 -1.1 C 33 %
1573 30-12-2019 22:03:17 -1.5 C 35 %
1574 30-12-2019 22:13:17 -1.7 C 35 %
1575 30-12-2019 22:23:17 -1.7 C 35 %
Sensor: Nr:Datum:Temp:Feuchte:
Aussen-T/F 1576 30-12-2019 22:33:17 -2.3 C 35 %
1577 30-12-2019 22:43:17 -1.8 C 35 %
1578 30-12-2019 22:53:17 -2 C 36 %
1579 30-12-2019 23:03:17 -2.3 C 36 %
1580 30-12-2019 23:13:17 -1.5 C 36 %
1581 30-12-2019 23:23:17 -0.9 C 32 %
1582 30-12-2019 23:33:17 -0.3 C 31 %
1583 30-12-2019 23:43:17 -0.9 C 31 %
1584 30-12-2019 23:53:17 -1 C 31 %
1585 31-12-2019 00:03:17 -1.2 C 32 %
1586 31-12-2019 00:13:18 -1.4 C 34 %
1587 31-12-2019 00:23:17 -1.6 C 36 %
1588 31-12-2019 00:33:18 -1.2 C 35 %
1589 31-12-2019 00:43:18 -1.5 C 35 %
1590 31-12-2019 00:53:17 -1.5 C 36 %
1591 31-12-2019 01:03:17 -1.5 C 36 %
1592 31-12-2019 01:13:17 -0.8 C 34 %
1593 31-12-2019 01:23:18 -1.3 C 34 %
1594 31-12-2019 01:33:17 -1.6 C 37 %
1595 31-12-2019 01:43:17 -2 C 37 %
1596 31-12-2019 01:53:17 -2.3 C 38 %
1597 31-12-2019 02:03:17 -2.5 C 40 %
1598 31-12-2019 02:13:17 -2.7 C 40 %
1599 31-12-2019 02:23:18 -2.8 C 41 %
1600 31-12-2019 02:33:17 -3 C 41 %
Sensor: Nr:Datum:Temp:Feuchte:
Aussen-T/F 1601 31-12-2019 02:43:17 -2.9 C 43 %
1602 31-12-2019 02:53:17 -2 C 45 %
1603 31-12-2019 03:03:17 -1.7 C 42 %
1604 31-12-2019 03:13:18 -2 C 40 %
1605 31-12-2019 03:23:17 -2.4 C 40 %
1606 31-12-2019 03:33:18 -2.5 C 41 %
1607 31-12-2019 03:43:18 -2.9 C 41 %
1608 31-12-2019 03:53:17 -2.8 C 42 %
1609 31-12-2019 04:03:17 -2.6 C 43 %
1610 31-12-2019 04:13:17 -3.1 C 42 %
1611 31-12-2019 04:23:17 -3.2 C 42 %
1612 31-12-2019 04:33:17 -3.3 C 42 %
1613 31-12-2019 04:43:18 -3.3 C 42 %
1614 31-12-2019 04:53:17 -3.2 C 43 %
1615 31-12-2019 05:03:17 -3.3 C 42 %
1616 31-12-2019 05:13:17 -3.6 C 42 %
1617 31-12-2019 05:23:17 -3.4 C 43 %
1618 31-12-2019 05:33:17 -3.1 C 44 %
1619 31-12-2019 05:43:17 -3 C 44 %
1620 31-12-2019 05:53:17 -2.9 C 44 %
1621 31-12-2019 06:03:17 -3.1 C 43 %
1622 31-12-2019 06:13:17 -3.3 C 43 %
1623 31-12-2019 06:23:17 -3.2 C 43 %
1624 31-12-2019 06:33:17 -3.3 C 43 %
1625 31-12-2019 06:43:17 -3.4 C 43 %
Sensor: Nr:Datum:Temp:Feuchte:
Aussen-T/F 1626 31-12-2019 06:53:18 -3.2 C 44 %
1627 31-12-2019 07:03:17 -3.2 C 44 %
1628 31-12-2019 07:13:17 -3 C 44 %
1629 31-12-2019 07:23:17 -3.1 C 44 %
1630 31-12-2019 07:33:17 -3 C 44 %
1631 31-12-2019 07:43:17 -2.6 C 45 %
1632 31-12-2019 07:53:18 -2.1 C 45 %
1633 31-12-2019 08:03:17 -2 C 45 %
1634 31-12-2019 08:13:17 -2 C 45 %
1635 31-12-2019 08:23:17 -1.3 C 45 %
1636 31-12-2019 08:33:17 -1 C 44 %
1637 31-12-2019 08:43:17 -1 C 43 %
1638 31-12-2019 08:53:17 -1.1 C 42 %
1639 31-12-2019 09:03:17 -1 C 43 %
1640 31-12-2019 09:13:17 -0.9 C 44 %
1641 31-12-2019 09:23:17 -1.1 C 42 %
1642 31-12-2019 09:33:17 -1.1 C 42 %
1643 31-12-2019 09:43:17 -1.1 C 42 %
1644 31-12-2019 09:53:17 -0.9 C 43 %
1645 31-12-2019 10:03:17 -0.6 C 44 %
1646 31-12-2019 10:13:17 -0.2 C 43 %
1647 31-12-2019 10:23:17 0.1 C 41 %
1648 31-12-2019 10:33:17 0.3 C 40 %
1649 31-12-2019 10:43:17 0.3 C 38 %
1650 31-12-2019 10:53:18 0.5 C 40 %
Sensor: Nr:Datum:Temp:Feuchte:
Aussen-T/F 1651 31-12-2019 11:03:17 0.8 C 41 %
1652 31-12-2019 11:13:17 0.7 C 41 %
1653 31-12-2019 11:23:17 1.2 C 40 %
1654 31-12-2019 11:33:17 1.1 C 38 %
1655 31-12-2019 11:43:17 1.5 C 40 %
1656 31-12-2019 11:53:17 1.5 C 40 %
1657 31-12-2019 12:03:18 1.8 C 31 %
1658 31-12-2019 12:13:18 2.4 C 35 %
1659 31-12-2019 12:23:17 2.6 C 33 %
1660 31-12-2019 12:33:18 2.4 C 32 %
1661 31-12-2019 12:43:18 2.8 C 30 %
1662 31-12-2019 12:53:17 2.3 C 29 %
1663 31-12-2019 13:03:18 2.4 C 28 %
1664 31-12-2019 13:13:18 2.4 C 27 %
1665 31-12-2019 13:23:17 2.8 C 27 %
1666 31-12-2019 13:33:17 2.8 C 26 %
1667 31-12-2019 13:43:17 3.3 C 26 %
1668 31-12-2019 13:53:17 2.9 C 26 %
1669 31-12-2019 14:03:18 2.7 C 27 %
1670 31-12-2019 14:13:18 2.9 C 27 %
1671 31-12-2019 14:23:17 3.1 C 26 %
1672 31-12-2019 14:33:17 3.4 C 26 %
1673 31-12-2019 14:43:17 3.2 C 26 %
1674 31-12-2019 14:53:17 3 C 26 %
1675 31-12-2019 15:03:17 2.8 C 27 %
Sensor: Nr:Datum:Temp:Feuchte:
Aussen-T/F 1676 31-12-2019 15:13:17 2.9 C 27 %
1677 31-12-2019 15:23:18 3 C 27 %
1678 31-12-2019 15:33:17 3 C 27 %
1679 31-12-2019 15:43:17 2.9 C 28 %
1680 31-12-2019 15:53:17 2.7 C 29 %
1681 31-12-2019 16:03:17 2.1 C 30 %
1682 31-12-2019 16:13:17 0.9 C 35 %
1683 31-12-2019 16:23:18 0.6 C 38 %
1684 31-12-2019 16:33:17 0.3 C 40 %
1685 31-12-2019 16:43:17 0.2 C 39 %
1686 31-12-2019 16:53:18 0.2 C 40 %
1687 31-12-2019 17:03:17 -0.1 C 41 %
1688 31-12-2019 17:13:17 -0.4 C 41 %
1689 31-12-2019 17:23:17 -0.3 C 40 %
1690 31-12-2019 17:33:17 -0.3 C 41 %
1691 31-12-2019 17:43:17 -0.6 C 43 %
1692 31-12-2019 17:53:18 -0.7 C 43 %
1693 31-12-2019 18:03:17 -1.1 C 43 %
1694 31-12-2019 18:13:17 -1.2 C 45 %
1695 31-12-2019 18:23:17 -0.9 C 45 %
1696 31-12-2019 18:33:17 -0.8 C 45 %
1697 31-12-2019 18:43:17 -0.4 C 46 %
1698 31-12-2019 18:53:18 -0.4 C 46 %
1699 31-12-2019 19:03:17 -0.3 C 45 %
1700 31-12-2019 19:13:17 -0.1 C 46 %
Sensor: Nr:Datum:Temp:Feuchte:
Aussen-T/F 1701 31-12-2019 19:23:18 0 C 45 %
1702 31-12-2019 19:33:17 0.1 C 45 %
1703 31-12-2019 19:43:17 0.2 C 45 %
1704 31-12-2019 19:53:17 0.4 C 45 %
1705 31-12-2019 20:03:18 0.5 C 45 %
1706 31-12-2019 20:13:18 0.5 C 45 %
1707 31-12-2019 20:23:17 0.4 C 45 %
1708 31-12-2019 20:33:17 0.4 C 45 %
1709 31-12-2019 20:43:17 0.3 C 43 %
1710 31-12-2019 20:53:17 0.2 C 43 %
1711 31-12-2019 21:03:17 0.2 C 43 %
1712 31-12-2019 21:13:17 0.4 C 44 %
1713 31-12-2019 21:23:18 0.4 C 44 %
1714 31-12-2019 21:33:17 0.5 C 44 %
1715 31-12-2019 21:43:17 0.6 C 43 %
1716 31-12-2019 21:53:17 0.5 C 43 %
1717 31-12-2019 22:03:17 0.6 C 42 %
1718 31-12-2019 22:13:17 0.5 C 42 %
1719 31-12-2019 22:23:18 0.2 C 41 %
1720 31-12-2019 22:33:17 0 C 41 %
1721 31-12-2019 22:43:17 -0.2 C 42 %
1722 31-12-2019 22:53:17 -0.4 C 43 %
1723 31-12-2019 23:03:17 -0.3 C 44 %
1724 31-12-2019 23:13:17 -0.1 C 45 %
1725 31-12-2019 23:23:18 0 C 45 %
Sensor: Nr:Datum:Temp:Feuchte:
Aussen-T/F 1726 31-12-2019 23:33:17 0 C 45 %
1727 31-12-2019 23:43:17 0.4 C 45 %
1728 31-12-2019 23:53:18 0.3 C 45 %
1729 01-01-2020 00:03:17 0.4 C 45 %
1730 01-01-2020 00:13:17 0.4 C 45 %
1731 01-01-2020 00:23:17 0.3 C 45 %
1732 01-01-2020 00:33:17 -0.9 C 41 %
1733 01-01-2020 00:43:17 -0.3 C 45 %
1734 01-01-2020 00:53:18 -0.5 C 44 %
1735 01-01-2020 01:03:17 -0.5 C 44 %
1736 01-01-2020 01:13:17 -0.6 C 44 %
1737 01-01-2020 01:23:17 -0.6 C 45 %
1738 01-01-2020 01:33:17 -0.7 C 45 %
1739 01-01-2020 01:43:17 -1.1 C 44 %
1740 01-01-2020 01:53:18 -0.9 C 45 %
1741 01-01-2020 02:03:17 -0.9 C 45 %
1742 01-01-2020 02:13:17 -0.5 C 46 %
1743 01-01-2020 02:23:17 -0.2 C 45 %
1744 01-01-2020 02:33:18 -0.1 C 45 %
1745 01-01-2020 02:43:18 0 C 45 %
1746 01-01-2020 02:53:17 0.1 C 45 %
1747 01-01-2020 03:03:17 0.1 C 45 %
1748 01-01-2020 03:13:18 0.1 C 45 %
1749 01-01-2020 03:23:17 0.2 C 45 %
1750 01-01-2020 03:33:18 0.1 C 45 %
Sensor: Nr:Datum:Temp:Feuchte:
Aussen-T/F 1751 01-01-2020 03:43:18 0.1 C 45 %
1752 01-01-2020 03:53:17 0.1 C 45 %
1753 01-01-2020 04:03:18 0.2 C 45 %
1754 01-01-2020 04:13:18 0.2 C 45 %
1755 01-01-2020 04:23:17 0.3 C 45 %
1756 01-01-2020 04:33:18 0.3 C 45 %
1757 01-01-2020 04:43:18 0.3 C 44 %
1758 01-01-2020 04:53:17 0.3 C 44 %
1759 01-01-2020 05:03:18 0.4 C 44 %
1760 01-01-2020 05:13:18 0.5 C 44 %
1761 01-01-2020 05:23:17 0.4 C 44 %
1762 01-01-2020 05:33:18 0.4 C 44 %
1763 01-01-2020 05:43:18 0.4 C 44 %
1764 01-01-2020 05:53:17 0.4 C 43 %
1765 01-01-2020 06:03:17 0.4 C 43 %
1766 01-01-2020 06:13:17 0.5 C 43 %
1767 01-01-2020 06:23:17 0.4 C 42 %
1768 01-01-2020 06:33:17 0.6 C 42 %
1769 01-01-2020 06:43:17 0.6 C 42 %
1770 01-01-2020 06:53:17 0.6 C 42 %
1771 01-01-2020 07:03:18 0.6 C 41 %
1772 01-01-2020 07:13:18 0.6 C 41 %
1773 01-01-2020 07:23:17 0.6 C 41 %
1774 01-01-2020 07:33:17 0.6 C 41 %
1775 01-01-2020 07:43:17 0.6 C 41 %
Sensor: Nr:Datum:Temp:Feuchte:
Aussen-T/F 1776 01-01-2020 07:53:17 0.6 C 41 %
1777 01-01-2020 08:03:17 0.6 C 41 %
1778 01-01-2020 08:13:17 0.6 C 41 %
1779 01-01-2020 08:23:18 0.7 C 40 %
1780 01-01-2020 08:33:17 0.7 C 40 %
1781 01-01-2020 08:43:17 0.7 C 40 %
1782 01-01-2020 08:53:17 0.8 C 40 %
1783 01-01-2020 09:03:17 0.8 C 40 %
1784 01-01-2020 09:13:17 1.1 C 38 %
1785 01-01-2020 09:23:17 1.3 C 38 %
1786 01-01-2020 09:33:17 1.4 C 37 %
1787 01-01-2020 09:43:17 1.5 C 37 %
1788 01-01-2020 09:53:17 1.7 C 36 %
1789 01-01-2020 10:03:18 1.9 C 36 %
1790 01-01-2020 10:13:18 2 C 34 %
1791 01-01-2020 10:23:17 2.1 C 33 %
1792 01-01-2020 10:33:17 2.2 C 32 %
1793 01-01-2020 10:43:17 2.3 C 32 %
1794 01-01-2020 10:53:17 2.4 C 32 %
1795 01-01-2020 11:03:17 2.4 C 31 %
1796 01-01-2020 11:13:17 2.7 C 31 %
1797 01-01-2020 11:23:18 2.7 C 30 %
1798 01-01-2020 11:33:17 2.7 C 30 %
1799 01-01-2020 11:43:17 2.8 C 30 %
1800 01-01-2020 11:53:18 2.9 C 30 %
Sensor: Nr:Datum:Temp:Feuchte:
Aussen-T/F 1801 01-01-2020 12:03:17 3.2 C 28 %
1802 01-01-2020 12:13:17 3 C 29 %
1803 01-01-2020 12:23:18 2.7 C 30 %
1804 01-01-2020 12:33:17 2.7 C 30 %
1805 01-01-2020 12:43:17 2.5 C 30 %
1806 01-01-2020 12:53:18 2.1 C 32 %
1807 01-01-2020 13:03:17 1.6 C 36 %
1808 01-01-2020 13:13:17 1.6 C 37 %
1809 01-01-2020 13:23:18 1.4 C 37 %
1810 01-01-2020 13:33:17 1.5 C 38 %
1811 01-01-2020 13:43:17 1.5 C 38 %
1812 01-01-2020 13:53:17 1.6 C 39 %
1813 01-01-2020 14:03:17 1.6 C 39 %
1814 01-01-2020 14:13:17 1.6 C 39 %
1815 01-01-2020 14:23:17 1.6 C 40 %
1816 01-01-2020 14:33:17 1.4 C 40 %
1817 01-01-2020 14:43:17 1.3 C 41 %
1818 01-01-2020 14:53:17 1.2 C 41 %
1819 01-01-2020 15:03:17 1.3 C 41 %
1820 01-01-2020 15:13:17 1.2 C 41 %
1821 01-01-2020 15:23:17 1.6 C 41 %
1822 01-01-2020 15:33:17 1.7 C 38 %
1823 01-01-2020 15:43:17 1.1 C 38 %
1824 01-01-2020 15:53:17 0.7 C 40 %
1825 01-01-2020 16:03:17 0.5 C 43 %
Sensor: Nr:Datum:Temp:Feuchte:
Aussen-T/F 1826 01-01-2020 16:13:17 -0.1 C 43 %
1827 01-01-2020 16:23:17 -0.3 C 44 %
1828 01-01-2020 16:33:18 -0.7 C 44 %
1829 01-01-2020 16:43:18 -0.7 C 45 %
1830 01-01-2020 16:53:17 -0.8 C 45 %
1831 01-01-2020 17:03:17 -1 C 45 %
1832 01-01-2020 17:13:17 -1.3 C 45 %
1833 01-01-2020 17:23:18 -1.5 C 45 %
1834 01-01-2020 17:33:17 -1.8 C 45 %
1835 01-01-2020 17:43:17 -1.9 C 45 %
1836 01-01-2020 17:53:18 -1.8 C 45 %
1837 01-01-2020 18:03:17 -1.9 C 45 %
1838 01-01-2020 18:13:17 -1.9 C 45 %
1839 01-01-2020 18:23:17 -2.1 C 45 %
1840 01-01-2020 18:33:17 -2.1 C 45 %
1841 01-01-2020 18:43:18 -2.1 C 45 %
1842 01-01-2020 18:53:17 -2.2 C 45 %
1843 01-01-2020 19:03:17 -2.4 C 45 %
1844 01-01-2020 19:13:18 -2.5 C 45 %
1845 01-01-2020 19:23:17 -2.4 C 45 %
1846 01-01-2020 19:33:17 -2.3 C 45 %
1847 01-01-2020 19:43:17 -2.2 C 45 %
1848 01-01-2020 19:53:17 -2.4 C 45 %
1849 01-01-2020 20:03:17 -2.2 C 45 %
1850 01-01-2020 20:13:17 -2.1 C 45 %
Sensor: Nr:Datum:Temp:Feuchte:
Aussen-T/F 1851 01-01-2020 20:23:18 -2.3 C 45 %
1852 01-01-2020 20:33:17 -2.1 C 45 %
1853 01-01-2020 20:43:17 -2.6 C 43 %
1854 01-01-2020 20:53:17 -2.8 C 43 %
1855 01-01-2020 21:03:17 -2.8 C 43 %
1856 01-01-2020 21:13:17 -3 C 43 %
1857 01-01-2020 21:23:18 -3.1 C 43 %
1858 01-01-2020 21:33:17 -3.1 C 43 %
1859 01-01-2020 21:43:17 -3.2 C 42 %
1860 01-01-2020 21:53:17 -2.8 C 43 %
1861 01-01-2020 22:03:17 -3.1 C 42 %
1862 01-01-2020 22:13:17 -3.2 C 42 %
1863 01-01-2020 22:23:17 -3 C 43 %
1864 01-01-2020 22:33:17 -2.8 C 43 %
1865 01-01-2020 22:43:17 -2.8 C 43 %
1866 01-01-2020 22:53:17 -3.2 C 42 %
1867 01-01-2020 23:03:17 -3.2 C 42 %
1868 01-01-2020 23:13:17 -2.7 C 44 %
1869 01-01-2020 23:23:17 -2.3 C 45 %
1870 01-01-2020 23:33:17 -2.4 C 44 %
1871 01-01-2020 23:43:17 -2.2 C 45 %
1872 01-01-2020 23:53:17 -2.2 C 45 %
1873 02-01-2020 00:03:17 -2.3 C 44 %
1874 02-01-2020 00:13:17 -2.4 C 44 %
1875 02-01-2020 00:23:17 -2.6 C 43 %
Sensor: Nr:Datum:Temp:Feuchte:
Aussen-T/F 1876 02-01-2020 00:33:17 -2.4 C 43 %
1877 02-01-2020 00:43:17 -2.4 C 44 %
1878 02-01-2020 00:53:17 -2.6 C 43 %
1879 02-01-2020 01:03:17 -2.3 C 44 %
1880 02-01-2020 01:13:17 -2.1 C 45 %
1881 02-01-2020 01:23:17 -1.9 C 45 %
1882 02-01-2020 01:33:17 -1.9 C 45 %
1883 02-01-2020 01:43:17 -1.8 C 45 %
1884 02-01-2020 01:53:17 -1.7 C 45 %
1885 02-01-2020 02:03:17 -1.6 C 45 %
1886 02-01-2020 02:13:17 -1.5 C 45 %
1887 02-01-2020 02:23:17 -1.4 C 45 %
1888 02-01-2020 02:33:17 -1.3 C 45 %
1889 02-01-2020 02:43:17 -1.3 C 45 %
1890 02-01-2020 02:53:17 -1.3 C 45 %
1891 02-01-2020 03:03:17 -1.2 C 45 %
1892 02-01-2020 03:13:18 -1.1 C 45 %
1893 02-01-2020 03:23:17 -1.1 C 45 %
1894 02-01-2020 03:33:18 -1 C 45 %
1895 02-01-2020 03:43:18 -0.9 C 45 %
1896 02-01-2020 03:53:17 -0.9 C 45 %
1897 02-01-2020 04:03:18 -0.8 C 45 %
1898 02-01-2020 04:13:18 -0.7 C 45 %
1899 02-01-2020 04:23:17 -0.7 C 45 %
1900 02-01-2020 04:33:17 -0.7 C 45 %
Sensor: Nr:Datum:Temp:Feuchte:
Aussen-T/F 1901 02-01-2020 04:43:17 -0.7 C 45 %
1902 02-01-2020 04:53:17 -0.8 C 45 %
1903 02-01-2020 05:03:17 -0.9 C 45 %
1904 02-01-2020 05:13:17 -0.9 C 45 %
1905 02-01-2020 05:23:18 -0.9 C 45 %
1906 02-01-2020 05:33:17 -0.9 C 45 %
1907 02-01-2020 05:43:17 -0.8 C 44 %
1908 02-01-2020 05:53:18 -0.8 C 44 %
1909 02-01-2020 06:03:17 -0.9 C 44 %
1910 02-01-2020 06:13:17 -0.9 C 43 %
1911 02-01-2020 06:23:17 -0.9 C 43 %
1912 02-01-2020 06:33:18 -0.7 C 42 %
1913 02-01-2020 06:43:18 -0.7 C 41 %
1914 02-01-2020 06:53:17 -0.7 C 40 %
1915 02-01-2020 07:03:18 -0.7 C 40 %
1916 02-01-2020 07:13:18 -0.7 C 40 %
1917 02-01-2020 07:23:17 -0.7 C 39 %
1918 02-01-2020 07:33:17 -0.7 C 39 %
1919 02-01-2020 07:43:17 -0.7 C 40 %
1920 02-01-2020 07:53:17 -0.6 C 41 %
1921 02-01-2020 08:03:18 -0.6 C 41 %
1922 02-01-2020 08:13:18 -0.5 C 41 %
1923 02-01-2020 08:23:17 -0.4 C 41 %
1924 02-01-2020 08:33:17 -0.3 C 40 %
1925 02-01-2020 08:43:17 -0.3 C 41 %
Sensor: Nr:Datum:Temp:Feuchte:
Aussen-T/F 1926 02-01-2020 08:53:17 -0.2 C 42 %
1927 02-01-2020 09:03:17 -0.1 C 42 %
1928 02-01-2020 09:13:17 0.1 C 42 %
1929 02-01-2020 09:23:17 0.1 C 40 %
1930 02-01-2020 09:33:18 0.4 C 38 %
1931 02-01-2020 09:43:18 0.5 C 37 %
1932 02-01-2020 09:53:17 0.4 C 39 %
1933 02-01-2020 10:03:17 0.4 C 40 %
1934 02-01-2020 10:13:18 0.7 C 41 %
1935 02-01-2020 10:23:17 1.1 C 42 %
1936 02-01-2020 10:33:18 1.1 C 39 %
1937 02-01-2020 10:43:18 1.3 C 39 %
1938 02-01-2020 10:53:17 1.5 C 38 %
1939 02-01-2020 11:03:18 1.7 C 38 %
1940 02-01-2020 11:13:18 1.6 C 35 %
1941 02-01-2020 11:23:17 1.9 C 37 %
1942 02-01-2020 11:33:17 2.1 C 36 %
1943 02-01-2020 11:43:17 2.1 C 35 %
1944 02-01-2020 11:53:17 2.1 C 34 %
1945 02-01-2020 12:03:17 2.2 C 34 %
1946 02-01-2020 12:13:17 2.3 C 35 %
1947 02-01-2020 12:23:17 2.3 C 35 %
1948 02-01-2020 12:33:17 2.6 C 34 %
1949 02-01-2020 12:43:17 3 C 35 %
1950 02-01-2020 12:53:17 2.8 C 32 %
Sensor: Nr:Datum:Temp:Feuchte:
Aussen-T/F 1951 02-01-2020 13:03:17 2.9 C 31 %
1952 02-01-2020 13:13:17 3.1 C 30 %
1953 02-01-2020 13:23:17 3.3 C 29 %
1954 02-01-2020 13:33:17 3.6 C 29 %
1955 02-01-2020 13:43:17 3.3 C 29 %
1956 02-01-2020 13:53:18 3.1 C 30 %
1957 02-01-2020 14:03:17 3.4 C 30 %
1958 02-01-2020 14:13:17 3.4 C 30 %
1959 02-01-2020 14:23:18 3.5 C 30 %
1960 02-01-2020 14:33:17 3.4 C 30 %
1961 02-01-2020 14:43:17 3.7 C 30 %
1962 02-01-2020 14:53:17 3.4 C 30 %
1963 02-01-2020 15:03:17 3.1 C 31 %
1964 02-01-2020 15:13:17 3 C 31 %
1965 02-01-2020 15:23:18 2.7 C 32 %
1966 02-01-2020 15:33:17 2.5 C 33 %
1967 02-01-2020 15:43:17 2.5 C 34 %
1968 02-01-2020 15:53:17 2.4 C 35 %
1969 02-01-2020 16:03:17 2.4 C 35 %
1970 02-01-2020 16:13:17 2.3 C 35 %
1971 02-01-2020 16:23:18 2.2 C 36 %
1972 02-01-2020 16:33:17 2.2 C 37 %
1973 02-01-2020 16:43:17 2.3 C 37 %
1974 02-01-2020 16:53:17 2.2 C 37 %
1975 02-01-2020 17:03:17 2.1 C 38 %
Sensor: Nr:Datum:Temp:Feuchte:
Aussen-T/F 1976 02-01-2020 17:13:17 2 C 38 %
1977 02-01-2020 17:23:18 2.1 C 40 %
1978 02-01-2020 17:33:17 2.1 C 40 %
1979 02-01-2020 17:43:17 2.1 C 40 %
1980 02-01-2020 17:53:17 2.1 C 40 %
1981 02-01-2020 18:03:17 2.1 C 40 %
1982 02-01-2020 18:13:17 2.1 C 40 %
1983 02-01-2020 18:23:17 2.1 C 40 %
1984 02-01-2020 18:33:17 2.1 C 40 %
1985 02-01-2020 18:43:18 2.2 C 39 %
1986 02-01-2020 18:53:17 2.3 C 40 %
1987 02-01-2020 19:03:17 2.2 C 40 %
1988 02-01-2020 19:13:18 2.2 C 40 %
1989 02-01-2020 19:23:17 2.3 C 40 %
1990 02-01-2020 19:33:17 2.3 C 40 %
1991 02-01-2020 19:43:18 2.3 C 40 %
1992 02-01-2020 19:53:17 2.3 C 40 %
1993 02-01-2020 20:03:18 2.3 C 40 %
1994 02-01-2020 20:13:18 2.4 C 40 %
1995 02-01-2020 20:23:17 2.5 C 40 %
1996 02-01-2020 20:33:17 2.6 C 40 %
1997 02-01-2020 20:43:17 2.6 C 40 %
1998 02-01-2020 20:53:17 2.5 C 39 %
1999 02-01-2020 21:03:18 2.5 C 40 %
2000 02-01-2020 21:13:18 2.5 C 40 %
Sensor: Nr:Datum:Temp:Feuchte:
Aussen-T/F 2001 02-01-2020 21:23:17 2.5 C 40 %
2002 02-01-2020 21:33:18 2.5 C 40 %
2003 02-01-2020 21:43:18 2.3 C 40 %
2004 02-01-2020 21:53:17 1.9 C 42 %
2005 02-01-2020 22:03:17 2.3 C 43 %
2006 02-01-2020 22:13:17 2.4 C 43 %
2007 02-01-2020 22:23:17 2.5 C 43 %
2008 02-01-2020 22:33:17 2.6 C 43 %
2009 02-01-2020 22:43:18 2.7 C 43 %
2010 02-01-2020 22:53:17 2.7 C 42 %
2011 02-01-2020 23:03:17 2.8 C 42 %
2012 02-01-2020 23:13:17 2.8 C 42 %
2013 02-01-2020 23:23:17 2.8 C 41 %
2014 02-01-2020 23:33:18 2.8 C 42 %
2015 02-01-2020 23:43:18 2.9 C 42 %
2016 02-01-2020 23:53:17 2.8 C 41 %
2017 03-01-2020 00:03:18 2.9 C 42 %
2018 03-01-2020 00:13:18 3 C 41 %
2019 03-01-2020 00:23:17 3.1 C 41 %
2020 03-01-2020 00:33:17 3.2 C 41 %
2021 03-01-2020 00:43:17 3.2 C 41 %
2022 03-01-2020 00:53:17 3.4 C 42 %
2023 03-01-2020 01:03:17 3.4 C 42 %
2024 03-01-2020 01:13:17 3.5 C 42 %
2025 03-01-2020 01:23:18 3.5 C 42 %
Sensor: Nr:Datum:Temp:Feuchte:
Aussen-T/F 2026 03-01-2020 01:33:17 3.5 C 42 %
2027 03-01-2020 01:43:17 3.6 C 42 %
2028 03-01-2020 01:53:18 3.6 C 42 %
2029 03-01-2020 02:03:17 3.7 C 42 %
2030 03-01-2020 02:13:17 3.7 C 42 %
2031 03-01-2020 02:23:17 3.9 C 42 %
2032 03-01-2020 02:33:17 3.7 C 42 %
2033 03-01-2020 02:43:18 3.7 C 43 %
2034 03-01-2020 02:53:17 3.9 C 44 %
2035 03-01-2020 03:03:17 3.8 C 44 %
2036 03-01-2020 03:13:17 3.8 C 44 %
2037 03-01-2020 03:23:17 3.8 C 44 %
2038 03-01-2020 03:33:17 3.9 C 44 %
2039 03-01-2020 03:43:17 3.9 C 44 %
2040 03-01-2020 03:53:18 3.9 C 44 %
2041 03-01-2020 04:03:17 4 C 43 %
2042 03-01-2020 04:13:17 4 C 43 %
2043 03-01-2020 04:23:18 4 C 42 %
2044 03-01-2020 04:33:17 4.1 C 42 %
2045 03-01-2020 04:43:17 4.1 C 42 %
2046 03-01-2020 04:53:17 4.2 C 42 %
2047 03-01-2020 05:03:17 4.2 C 41 %
2048 03-01-2020 05:13:17 4.3 C 40 %
2049 03-01-2020 05:23:17 4.3 C 40 %
2050 03-01-2020 05:33:17 4.4 C 40 %
Sensor: Nr:Datum:Temp:Feuchte:
Aussen-T/F 2051 03-01-2020 05:43:17 4.4 C 40 %
2052 03-01-2020 05:53:17 4.4 C 40 %
2053 03-01-2020 06:03:17 4.4 C 40 %
2054 03-01-2020 06:13:17 4.4 C 40 %
2055 03-01-2020 06:23:18 4.4 C 40 %
2056 03-01-2020 06:33:17 4.7 C 40 %
2057 03-01-2020 06:43:17 5.3 C 40 %
2058 03-01-2020 06:53:18 6.7 C 34 %
2059 03-01-2020 07:03:18 7.1 C 31 %
2060 03-01-2020 07:13:18 7.7 C 30 %
2061 03-01-2020 07:23:17 8 C 29 %
2062 03-01-2020 07:33:17 7.9 C 30 %
2063 03-01-2020 07:43:17 7.8 C 30 %
2064 03-01-2020 07:53:17 7.9 C 29 %
2065 03-01-2020 08:03:18 7.9 C 30 %
2066 03-01-2020 08:13:18 8 C 29 %
2067 03-01-2020 08:23:17 7.9 C 29 %
2068 03-01-2020 08:33:18 7.8 C 29 %
2069 03-01-2020 08:43:18 7.9 C 29 %
2070 03-01-2020 08:53:17 8 C 29 %
2071 03-01-2020 09:03:17 8.2 C 28 %
2072 03-01-2020 09:13:17 8.2 C 28 %
2073 03-01-2020 09:23:17 8.2 C 28 %
2074 03-01-2020 09:33:17 8.4 C 28 %
2075 03-01-2020 09:43:17 8.4 C 27 %
Sensor: Nr:Datum:Temp:Feuchte:
Aussen-T/F 2076 03-01-2020 09:53:17 8.4 C 27 %
2077 03-01-2020 10:03:17 8.6 C 27 %
2078 03-01-2020 10:13:17 8.6 C 27 %
2079 03-01-2020 10:23:17 8.6 C 27 %
2080 03-01-2020 10:33:17 8.6 C 27 %
2081 03-01-2020 10:43:18 8.6 C 27 %
2082 03-01-2020 10:53:17 8.6 C 27 %
2083 03-01-2020 11:03:18 8.3 C 27 %
2084 03-01-2020 11:13:18 8.5 C 27 %
2085 03-01-2020 11:23:18 8.6 C 27 %
2086 03-01-2020 11:33:17 8.9 C 27 %
2087 03-01-2020 11:43:17 8.9 C 27 %
2088 03-01-2020 11:53:17 8.7 C 27 %
2089 03-01-2020 12:03:17 8.6 C 27 %
2090 03-01-2020 12:13:17 8.4 C 27 %
2091 03-01-2020 12:23:17 8.6 C 27 %
2092 03-01-2020 12:33:17 8.7 C 27 %
2093 03-01-2020 12:43:17 8.5 C 27 %
2094 03-01-2020 12:53:17 8.6 C 27 %
2095 03-01-2020 13:03:17 8.5 C 27 %
2096 03-01-2020 13:13:18 8.5 C 28 %
2097 03-01-2020 13:23:17 8.6 C 28 %
2098 03-01-2020 13:33:17 8.8 C 27 %
2099 03-01-2020 13:43:18 8.8 C 28 %
2100 03-01-2020 13:53:17 8.7 C 28 %
Sensor: Nr:Datum:Temp:Feuchte:
Aussen-T/F 2101 03-01-2020 14:03:17 8.7 C 28 %
2102 03-01-2020 14:13:17 8.5 C 28 %
2103 03-01-2020 14:23:18 8.5 C 29 %
2104 03-01-2020 14:33:17 8.5 C 29 %
2105 03-01-2020 14:43:17 8.5 C 29 %
2106 03-01-2020 14:53:17 8.5 C 30 %
2107 03-01-2020 15:03:17 9 C 28 %
2108 03-01-2020 15:13:17 9 C 28 %
2109 03-01-2020 15:23:17 9 C 28 %
2110 03-01-2020 15:33:17 9.1 C 28 %
2111 03-01-2020 15:43:18 9.2 C 28 %
2112 03-01-2020 15:53:17 9 C 28 %
2113 03-01-2020 16:03:17 9 C 28 %
2114 03-01-2020 16:13:17 9 C 29 %
2115 03-01-2020 16:23:17 8.9 C 30 %
2116 03-01-2020 16:33:17 9 C 29 %
2117 03-01-2020 16:43:17 9 C 29 %
2118 03-01-2020 16:53:17 9 C 29 %
2119 03-01-2020 17:03:17 8.6 C 31 %
2120 03-01-2020 17:13:17 8.6 C 31 %
2121 03-01-2020 17:23:17 8.9 C 31 %
2122 03-01-2020 17:33:17 8.8 C 30 %
2123 03-01-2020 17:43:17 8.9 C 30 %
2124 03-01-2020 17:53:17 9 C 30 %
2125 03-01-2020 18:03:17 9 C 30 %
Sensor: Nr:Datum:Temp:Feuchte:
Aussen-T/F 2126 03-01-2020 18:13:18 9.1 C 30 %
2127 03-01-2020 18:23:18 9.3 C 30 %
2128 03-01-2020 18:33:18 9.3 C 30 %
2129 03-01-2020 18:43:18 9.2 C 30 %
2130 03-01-2020 18:53:17 9.3 C 30 %
2131 03-01-2020 19:03:18 9.2 C 30 %
2132 03-01-2020 19:13:18 8.9 C 32 %
2133 03-01-2020 19:23:17 8.9 C 32 %
2134 03-01-2020 19:33:17 9.2 C 31 %
2135 03-01-2020 19:43:17 9.3 C 31 %
2136 03-01-2020 19:53:17 9.2 C 31 %
2137 03-01-2020 20:03:18 9 C 31 %
2138 03-01-2020 20:13:18 8.9 C 35 %
2139 03-01-2020 20:23:17 8.9 C 35 %
2140 03-01-2020 20:33:17 8.8 C 35 %
2141 03-01-2020 20:43:17 8.7 C 36 %
2142 03-01-2020 20:53:18 8.6 C 39 %
2143 03-01-2020 21:03:17 8.2 C 37 %
2144 03-01-2020 21:13:17 7.8 C 35 %
2145 03-01-2020 21:23:17 7.5 C 35 %
2146 03-01-2020 21:33:18 7.4 C 36 %
2147 03-01-2020 21:43:18 7.2 C 35 %
2148 03-01-2020 21:53:17 6.8 C 35 %
2149 03-01-2020 22:03:18 6.8 C 34 %
2150 03-01-2020 22:13:18 6.7 C 35 %
Sensor: Nr:Datum:Temp:Feuchte:
Aussen-T/F 2151 03-01-2020 22:23:17 6.5 C 33 %
2152 03-01-2020 22:33:17 6.4 C 34 %
2153 03-01-2020 22:43:17 6 C 33 %
2154 03-01-2020 22:53:17 6 C 34 %
2155 03-01-2020 23:03:17 5.7 C 35 %
2156 03-01-2020 23:13:17 5.9 C 34 %
2157 03-01-2020 23:23:17 5.8 C 35 %
2158 03-01-2020 23:33:17 5.8 C 33 %
2159 03-01-2020 23:43:17 5.7 C 35 %
2160 03-01-2020 23:53:17 5.8 C 35 %
2161 04-01-2020 00:03:18 5.7 C 35 %
2162 04-01-2020 00:13:18 5.6 C 35 %
2163 04-01-2020 00:23:17 5.4 C 35 %
2164 04-01-2020 00:33:17 5.6 C 33 %
2165 04-01-2020 00:43:17 5.6 C 33 %
2166 04-01-2020 00:53:17 5.4 C 34 %
2167 04-01-2020 01:03:17 5.3 C 34 %
2168 04-01-2020 01:13:17 4.6 C 36 %
2169 04-01-2020 01:23:17 4.6 C 36 %
2170 04-01-2020 01:33:17 4.6 C 36 %
2171 04-01-2020 01:43:17 3.6 C 37 %
2172 04-01-2020 01:53:18 3.6 C 41 %
2173 04-01-2020 02:03:17 3.5 C 41 %
2174 04-01-2020 02:13:17 3.9 C 37 %
2175 04-01-2020 02:23:17 3.8 C 35 %
Sensor: Nr:Datum:Temp:Feuchte:
Aussen-T/F 2176 04-01-2020 02:33:17 3.5 C 37 %
2177 04-01-2020 02:43:17 3.4 C 40 %
2178 04-01-2020 02:53:17 3.8 C 39 %
2179 04-01-2020 03:03:18 3.7 C 39 %
2180 04-01-2020 03:13:18 3.9 C 40 %
2181 04-01-2020 03:23:17 3.3 C 39 %
2182 04-01-2020 03:33:17 3 C 41 %
2183 04-01-2020 03:43:17 3.4 C 42 %
2184 04-01-2020 03:53:17 3.7 C 36 %
2185 04-01-2020 04:03:17 3.7 C 35 %
2186 04-01-2020 04:13:17 3.4 C 35 %
2187 04-01-2020 04:23:17 3.3 C 36 %
2188 04-01-2020 04:33:17 3.1 C 37 %
2189 04-01-2020 04:43:17 2.8 C 38 %
2190 04-01-2020 04:53:17 2.6 C 39 %
2191 04-01-2020 05:03:17 2.9 C 40 %
2192 04-01-2020 05:13:17 2.4 C 38 %
2193 04-01-2020 05:23:17 2.5 C 40 %
2194 04-01-2020 05:33:17 1.8 C 40 %
2195 04-01-2020 05:43:18 2 C 41 %
2196 04-01-2020 05:53:17 2.3 C 40 %
2197 04-01-2020 06:03:17 2.2 C 39 %
2198 04-01-2020 06:13:17 2.8 C 36 %
2199 04-01-2020 06:23:17 2.6 C 35 %
2200 04-01-2020 06:33:17 2.4 C 37 %
Sensor: Nr:Datum:Temp:Feuchte:
Aussen-T/F 2201 04-01-2020 06:43:17 2.7 C 37 %
2202 04-01-2020 06:53:17 2.7 C 34 %
2203 04-01-2020 07:03:17 2.7 C 34 %
2204 04-01-2020 07:13:17 2.5 C 34 %
2205 04-01-2020 07:23:17 2.5 C 34 %
2206 04-01-2020 07:33:17 2 C 36 %
2207 04-01-2020 07:43:17 2 C 36 %
2208 04-01-2020 07:53:17 2.1 C 37 %
2209 04-01-2020 08:03:17 1.7 C 39 %
2210 04-01-2020 08:13:17 1.6 C 41 %
2211 04-01-2020 08:23:17 1.3 C 41 %
2212 04-01-2020 08:33:17 1.2 C 43 %
2213 04-01-2020 08:43:17 1.3 C 42 %
2214 04-01-2020 08:53:17 1.2 C 41 %
2215 04-01-2020 09:03:17 1 C 41 %
2216 04-01-2020 09:13:17 0.8 C 44 %
2217 04-01-2020 09:23:17 1 C 44 %
2218 04-01-2020 09:33:18 1.4 C 45 %
2219 04-01-2020 09:43:18 1.7 C 44 %
2220 04-01-2020 09:53:17 1.9 C 41 %
2221 04-01-2020 10:03:18 2.1 C 39 %
2222 04-01-2020 10:13:18 2.3 C 38 %
2223 04-01-2020 10:23:17 3.1 C 35 %
2224 04-01-2020 10:33:17 3.6 C 33 %
2225 04-01-2020 10:43:17 5.1 C 27 %
Sensor: Nr:Datum:Temp:Feuchte:
Aussen-T/F 2226 04-01-2020 10:53:17 5.1 C 27 %
2227 04-01-2020 11:03:17 5.4 C 27 %
2228 04-01-2020 11:13:17 5.4 C 27 %
2229 04-01-2020 11:23:17 5.6 C 27 %
2230 04-01-2020 11:33:17 5.6 C 27 %
2231 04-01-2020 11:43:17 5.6 C 26 %
2232 04-01-2020 11:53:17 5.8 C 26 %
2233 04-01-2020 12:03:17 5.9 C 26 %
2234 04-01-2020 12:13:18 6 C 26 %
2235 04-01-2020 12:23:17 6.2 C 26 %
2236 04-01-2020 12:33:17 6.2 C 26 %
2237 04-01-2020 12:43:17 6.3 C 26 %
2238 04-01-2020 12:53:17 6.5 C 26 %
2239 04-01-2020 13:03:17 6.7 C 26 %
2240 04-01-2020 13:13:17 6.7 C 26 %
2241 04-01-2020 13:23:17 6.7 C 26 %
2242 04-01-2020 13:33:17 6.8 C 25 %
2243 04-01-2020 13:43:17 7 C 25 %
2244 04-01-2020 13:53:18 7 C 25 %
2245 04-01-2020 14:03:18 7 C 25 %
2246 04-01-2020 14:13:18 7 C 25 %
2247 04-01-2020 14:23:18 7.1 C 25 %
2248 04-01-2020 14:33:17 7.1 C 25 %
2249 04-01-2020 14:43:18 7 C 25 %
2250 04-01-2020 14:53:17 7 C 25 %
Sensor: Nr:Datum:Temp:Feuchte:
Aussen-T/F 2251 04-01-2020 15:03:17 7.1 C 25 %
2252 04-01-2020 15:13:17 7 C 25 %
2253 04-01-2020 15:23:17 7 C 25 %
2254 04-01-2020 15:33:18 7 C 25 %
2255 04-01-2020 15:43:18 7 C 25 %
2256 04-01-2020 15:53:18 6.9 C 25 %
2257 04-01-2020 16:03:17 6.9 C 25 %
2258 04-01-2020 16:13:18 6.9 C 25 %
2259 04-01-2020 16:23:17 6.9 C 25 %
2260 04-01-2020 16:33:17 6.8 C 25 %
2261 04-01-2020 16:43:17 6.8 C 25 %
2262 04-01-2020 16:53:17 6.8 C 25 %
2263 04-01-2020 17:03:17 6.8 C 25 %
2264 04-01-2020 17:13:17 6.8 C 25 %
2265 04-01-2020 17:23:17 6.7 C 25 %
2266 04-01-2020 17:33:18 6.7 C 25 %
2267 04-01-2020 17:43:18 6.6 C 25 %
2268 04-01-2020 17:53:17 6.6 C 25 %
2269 04-01-2020 18:03:17 6.7 C 25 %
2270 04-01-2020 18:13:17 6.6 C 25 %
2271 04-01-2020 18:23:17 6.8 C 25 %
2272 04-01-2020 18:33:17 6.7 C 25 %
2273 04-01-2020 18:43:17 6.6 C 25 %
2274 04-01-2020 18:53:17 6.5 C 25 %
2275 04-01-2020 19:03:17 6.6 C 25 %
Sensor: Nr:Datum:Temp:Feuchte:
Aussen-T/F 2276 04-01-2020 19:13:17 6.7 C 25 %
2277 04-01-2020 19:23:17 6.5 C 26 %
2278 04-01-2020 19:33:17 6 C 27 %
2279 04-01-2020 19:43:17 5.8 C 30 %
2280 04-01-2020 19:53:17 5.6 C 30 %
2281 04-01-2020 20:03:17 5.5 C 31 %
2282 04-01-2020 20:13:17 5.6 C 31 %
2283 04-01-2020 20:23:18 5.7 C 30 %
2284 04-01-2020 20:33:18 5.8 C 30 %
2285 04-01-2020 20:43:18 6 C 29 %
2286 04-01-2020 20:53:17 6.1 C 29 %
2287 04-01-2020 21:03:17 5.8 C 30 %
2288 04-01-2020 21:13:17 5.5 C 33 %
2289 04-01-2020 21:23:17 5.3 C 35 %
2290 04-01-2020 21:33:17 5.3 C 38 %
2291 04-01-2020 21:43:17 5.2 C 37 %
2292 04-01-2020 21:53:18 5.3 C 40 %
2293 04-01-2020 22:03:17 5.3 C 40 %
2294 04-01-2020 22:13:17 5.3 C 39 %
2295 04-01-2020 22:23:17 5.3 C 37 %
2296 04-01-2020 22:33:17 5.4 C 37 %
2297 04-01-2020 22:43:17 5.4 C 37 %
2298 04-01-2020 22:53:17 5.4 C 36 %
2299 04-01-2020 23:03:17 5.5 C 35 %
2300 04-01-2020 23:13:17 5.6 C 35 %
Sensor: Nr:Datum:Temp:Feuchte:
Aussen-T/F 2301 04-01-2020 23:23:17 5.6 C 34 %
2302 04-01-2020 23:33:18 5.6 C 35 %
2303 04-01-2020 23:43:18 5.7 C 34 %
2304 04-01-2020 23:53:17 5.6 C 35 %
2305 05-01-2020 00:03:17 5.6 C 33 %
2306 05-01-2020 00:13:17 5.5 C 35 %
2307 05-01-2020 00:23:17 5.4 C 35 %
2308 05-01-2020 00:33:18 5.4 C 35 %
2309 05-01-2020 00:43:18 5.3 C 36 %
2310 05-01-2020 00:53:17 5.3 C 36 %
2311 05-01-2020 01:03:17 5.1 C 37 %
2312 05-01-2020 01:13:17 5 C 40 %
2313 05-01-2020 01:23:17 4.9 C 42 %
2314 05-01-2020 01:33:17 4.8 C 41 %
2315 05-01-2020 01:43:18 4.8 C 42 %
2316 05-01-2020 01:53:17 4.7 C 42 %
2317 05-01-2020 02:03:18 4.8 C 41 %
2318 05-01-2020 02:13:18 4.7 C 41 %
2319 05-01-2020 02:23:17 4.6 C 43 %
2320 05-01-2020 02:33:17 4.5 C 44 %
2321 05-01-2020 02:43:17 4.6 C 44 %
2322 05-01-2020 02:53:17 4.6 C 42 %
2323 05-01-2020 03:03:17 4.6 C 42 %
2324 05-01-2020 03:13:17 4.6 C 41 %
2325 05-01-2020 03:23:17 4.3 C 42 %
Sensor: Nr:Datum:Temp:Feuchte:
Aussen-T/F 2326 05-01-2020 03:33:17 4.3 C 43 %
2327 05-01-2020 03:43:17 4.4 C 44 %
2328 05-01-2020 03:53:17 4.5 C 44 %
2329 05-01-2020 04:03:17 4.4 C 43 %
2330 05-01-2020 04:13:17 4.4 C 43 %
2331 05-01-2020 04:23:17 4.3 C 42 %
2332 05-01-2020 04:33:17 4.3 C 43 %
2333 05-01-2020 04:43:17 4.4 C 43 %
2334 05-01-2020 04:53:17 4.4 C 42 %
2335 05-01-2020 05:03:17 4.4 C 42 %
2336 05-01-2020 05:13:17 4.4 C 42 %
2337 05-01-2020 05:23:17 4.4 C 42 %
2338 05-01-2020 05:33:18 4.5 C 43 %
2339 05-01-2020 05:43:18 4.6 C 43 %
2340 05-01-2020 05:53:17 4.5 C 43 %
2341 05-01-2020 06:03:17 4.6 C 43 %
2342 05-01-2020 06:13:17 4.6 C 43 %
2343 05-01-2020 06:23:17 4.6 C 42 %
2344 05-01-2020 06:33:17 4.7 C 41 %
2345 05-01-2020 06:43:17 4.7 C 40 %
2346 05-01-2020 06:53:17 4.6 C 41 %
2347 05-01-2020 07:03:17 4.6 C 41 %
2348 05-01-2020 07:13:17 4.6 C 42 %
2349 05-01-2020 07:23:17 4.5 C 42 %
2350 05-01-2020 07:33:17 4.5 C 41 %
Sensor: Nr:Datum:Temp:Feuchte:
Aussen-T/F 2351 05-01-2020 07:43:17 4.4 C 41 %
2352 05-01-2020 07:53:17 4.4 C 41 %
2353 05-01-2020 08:03:18 4.3 C 42 %
2354 05-01-2020 08:13:18 4.3 C 42 %
2355 05-01-2020 08:23:17 4.3 C 41 %
2356 05-01-2020 08:33:17 4.4 C 42 %
2357 05-01-2020 08:43:17 4.4 C 41 %
2358 05-01-2020 08:53:17 4.6 C 40 %
2359 05-01-2020 09:03:18 4.6 C 39 %
2360 05-01-2020 09:13:18 4.6 C 40 %
2361 05-01-2020 09:23:17 4.7 C 38 %
2362 05-01-2020 09:33:18 4.8 C 38 %
2363 05-01-2020 09:43:18 5 C 36 %
2364 05-01-2020 09:53:17 5.1 C 35 %
2365 05-01-2020 10:03:17 5.3 C 35 %
2366 05-01-2020 10:13:18 5.4 C 34 %
2367 05-01-2020 10:23:18 5.4 C 34 %
2368 05-01-2020 10:33:18 5.5 C 33 %
2369 05-01-2020 10:43:18 5.5 C 33 %
2370 05-01-2020 10:53:17 5.5 C 34 %
2371 05-01-2020 11:03:17 5.7 C 34 %
2372 05-01-2020 11:13:17 5.7 C 33 %
2373 05-01-2020 11:23:17 5.7 C 33 %
2374 05-01-2020 11:33:17 5.9 C 32 %
2375 05-01-2020 11:43:17 5.9 C 32 %
Sensor: Nr:Datum:Temp:Feuchte:
Aussen-T/F 2376 05-01-2020 11:53:17 6 C 32 %
2377 05-01-2020 12:03:17 6 C 31 %
2378 05-01-2020 12:13:17 6 C 31 %
2379 05-01-2020 12:23:17 6.1 C 31 %
2380 05-01-2020 12:33:17 6.2 C 31 %
2381 05-01-2020 12:43:17 6.2 C 31 %
2382 05-01-2020 12:53:17 6.2 C 31 %
2383 05-01-2020 13:03:17 6.3 C 31 %
2384 05-01-2020 13:13:17 6.5 C 30 %
2385 05-01-2020 13:23:17 6.5 C 30 %
2386 05-01-2020 13:33:18 6.5 C 30 %
2387 05-01-2020 13:43:18 6.6 C 30 %
2388 05-01-2020 13:53:18 6.6 C 30 %
2389 05-01-2020 14:03:18 6.7 C 30 %
2390 05-01-2020 14:13:18 6.6 C 30 %
2391 05-01-2020 14:23:18 6.7 C 30 %
2392 05-01-2020 14:33:18 6.7 C 30 %
2393 05-01-2020 14:43:18 6.7 C 30 %
2394 05-01-2020 14:53:17 6.7 C 30 %
2395 05-01-2020 15:03:18 6.6 C 30 %
2396 05-01-2020 15:13:18 6.6 C 30 %
2397 05-01-2020 15:23:18 6.5 C 31 %
2398 05-01-2020 15:33:18 6.3 C 33 %
2399 05-01-2020 15:43:18 6.1 C 34 %
2400 05-01-2020 15:53:18 6 C 35 %
Sensor: Nr:Datum:Temp:Feuchte:
Aussen-T/F 2401 05-01-2020 16:03:18 6 C 35 %
2402 05-01-2020 16:13:18 5.9 C 36 %
2403 05-01-2020 16:23:17 5.8 C 36 %
2404 05-01-2020 16:33:17 5.7 C 36 %
2405 05-01-2020 16:43:17 5.7 C 35 %
2406 05-01-2020 16:53:18 5.6 C 36 %
2407 05-01-2020 17:03:18 5.6 C 35 %
2408 05-01-2020 17:13:18 5.6 C 34 %
2409 05-01-2020 17:23:18 5.7 C 31 %
2410 05-01-2020 17:33:18 5.6 C 31 %
2411 05-01-2020 17:43:18 5.6 C 31 %
2412 05-01-2020 17:53:17 5.7 C 31 %
2413 05-01-2020 18:03:17 5.6 C 31 %
2414 05-01-2020 18:13:17 5.5 C 31 %
2415 05-01-2020 18:23:17 5.6 C 30 %
2416 05-01-2020 18:33:17 5.7 C 29 %
2417 05-01-2020 18:43:17 5.5 C 30 %
2418 05-01-2020 18:53:17 5.6 C 30 %
2419 05-01-2020 19:03:17 5.5 C 30 %
2420 05-01-2020 19:13:17 5.6 C 30 %
2421 05-01-2020 19:23:17 5.4 C 31 %
2422 05-01-2020 19:33:17 5.3 C 31 %
2423 05-01-2020 19:43:17 5.4 C 31 %
2424 05-01-2020 19:53:18 5.3 C 31 %
2425 05-01-2020 20:03:18 5.2 C 32 %
Sensor: Nr:Datum:Temp:Feuchte:
Aussen-T/F 2426 05-01-2020 20:13:18 5.5 C 29 %
2427 05-01-2020 20:23:18 5.3 C 30 %
2428 05-01-2020 20:33:18 5.3 C 30 %
2429 05-01-2020 20:43:18 5.2 C 31 %
2430 05-01-2020 20:53:18 5.2 C 31 %
2431 05-01-2020 21:03:18 5 C 32 %
2432 05-01-2020 21:13:18 5.1 C 32 %
2433 05-01-2020 21:23:18 5 C 32 %
2434 05-01-2020 21:33:17 4.9 C 34 %
2435 05-01-2020 21:43:17 4.8 C 35 %
2436 05-01-2020 21:53:17 4.8 C 35 %
2437 05-01-2020 22:03:17 4.8 C 35 %
2438 05-01-2020 22:13:17 4.8 C 35 %
2439 05-01-2020 22:23:17 4.7 C 35 %
2440 05-01-2020 22:33:17 4.7 C 35 %
2441 05-01-2020 22:43:17 4.7 C 35 %
2442 05-01-2020 22:53:17 4.6 C 36 %
2443 05-01-2020 23:03:17 4.5 C 36 %
2444 05-01-2020 23:13:17 4.4 C 37 %
2445 05-01-2020 23:23:17 4.4 C 36 %
2446 05-01-2020 23:33:17 4.5 C 36 %
2447 05-01-2020 23:43:17 4.4 C 35 %
2448 05-01-2020 23:53:17 4.5 C 33 %
2449 06-01-2020 00:03:18 4.4 C 33 %
2450 06-01-2020 00:13:18 4.5 C 33 %
Sensor: Nr:Datum:Temp:Feuchte:
Aussen-T/F 2451 06-01-2020 00:23:18 4.4 C 32 %
2452 06-01-2020 00:33:18 4.4 C 34 %
2453 06-01-2020 00:43:18 4.4 C 32 %
2454 06-01-2020 00:53:18 4.3 C 33 %
2455 06-01-2020 01:03:18 4.3 C 32 %
2456 06-01-2020 01:13:18 4.3 C 32 %
2457 06-01-2020 01:23:17 4.4 C 31 %
2458 06-01-2020 01:33:18 4.2 C 32 %
2459 06-01-2020 01:43:18 4.2 C 32 %
2460 06-01-2020 01:53:17 4.1 C 33 %
2461 06-01-2020 02:03:18 4.2 C 31 %
2462 06-01-2020 02:13:18 4.2 C 32 %
2463 06-01-2020 02:23:18 4.3 C 32 %
2464 06-01-2020 02:33:18 4.1 C 32 %
2465 06-01-2020 02:43:18 4.2 C 31 %
2466 06-01-2020 02:53:18 4.1 C 30 %
2467 06-01-2020 03:03:18 4.2 C 30 %
2468 06-01-2020 03:13:18 4.2 C 31 %
2469 06-01-2020 03:23:17 4.1 C 31 %
2470 06-01-2020 03:33:18 4.1 C 32 %
2471 06-01-2020 03:43:18 3.9 C 32 %
2472 06-01-2020 03:53:18 4.1 C 31 %
2473 06-01-2020 04:03:18 4.1 C 31 %
2474 06-01-2020 04:13:18 4.1 C 29 %
2475 06-01-2020 04:23:18 4.1 C 30 %
Sensor: Nr:Datum:Temp:Feuchte:
Aussen-T/F 2476 06-01-2020 04:33:18 3.8 C 32 %
2477 06-01-2020 04:43:18 3.8 C 34 %
2478 06-01-2020 04:53:17 3.7 C 33 %
2479 06-01-2020 05:03:18 3.8 C 33 %
2480 06-01-2020 05:13:18 3.8 C 33 %
2481 06-01-2020 05:23:18 3.5 C 35 %
2482 06-01-2020 05:33:18 3.6 C 35 %
2483 06-01-2020 05:43:18 3.6 C 35 %
2484 06-01-2020 05:53:18 3.5 C 35 %
2485 06-01-2020 06:03:18 3.5 C 33 %
2486 06-01-2020 06:13:18 3.5 C 33 %
2487 06-01-2020 06:23:18 3.3 C 35 %
2488 06-01-2020 06:33:18 3.3 C 35 %
2489 06-01-2020 06:43:18 3.2 C 36 %
2490 06-01-2020 06:53:18 3 C 36 %
2491 06-01-2020 07:03:18 3 C 35 %
2492 06-01-2020 07:13:18 2.8 C 36 %
2493 06-01-2020 07:23:18 2.9 C 37 %
2494 06-01-2020 07:33:17 2.7 C 38 %
2495 06-01-2020 07:43:17 2.6 C 38 %
2496 06-01-2020 07:53:18 2.6 C 38 %
2497 06-01-2020 08:03:17 2.7 C 35 %
2498 06-01-2020 08:13:17 2.6 C 35 %
2499 06-01-2020 08:23:17 2.4 C 35 %
2500 06-01-2020 08:33:17 2.2 C 36 %
Sensor: Nr:Datum:Temp:Feuchte:
Aussen-T/F 2501 06-01-2020 08:43:17 2.3 C 38 %
2502 06-01-2020 08:53:17 2.4 C 38 %
2503 06-01-2020 09:03:17 2.6 C 38 %
2504 06-01-2020 09:13:17 2.8 C 36 %
2505 06-01-2020 09:23:18 3 C 35 %
2506 06-01-2020 09:33:18 3.2 C 32 %
2507 06-01-2020 09:43:18 2.7 C 33 %
2508 06-01-2020 09:53:17 2.7 C 34 %
2509 06-01-2020 10:03:18 3.4 C 35 %
2510 06-01-2020 10:13:18 3.3 C 31 %
2511 06-01-2020 10:23:17 3 C 31 %
2512 06-01-2020 10:33:18 2.7 C 32 %
2513 06-01-2020 10:43:18 2.4 C 34 %
2514 06-01-2020 10:53:17 1.9 C 37 %
2515 06-01-2020 11:03:17 1.6 C 40 %
2516 06-01-2020 11:13:17 1.6 C 41 %
2517 06-01-2020 11:23:17 1.7 C 42 %
2518 06-01-2020 11:33:17 2.2 C 40 %
2519 06-01-2020 11:43:17 2 C 37 %
2520 06-01-2020 11:53:17 1.9 C 40 %
2521 06-01-2020 12:03:17 2 C 38 %
2522 06-01-2020 12:13:17 2 C 38 %
2523 06-01-2020 12:23:18 2.1 C 39 %
2524 06-01-2020 12:33:18 2.1 C 38 %
2525 06-01-2020 12:43:18 2.3 C 38 %
Sensor: Nr:Datum:Temp:Feuchte:
Aussen-T/F 2526 06-01-2020 12:53:17 2.3 C 38 %
2527 06-01-2020 13:03:18 2.5 C 38 %
2528 06-01-2020 13:13:18 2.4 C 38 %
2529 06-01-2020 13:23:17 2.1 C 39 %
2530 06-01-2020 13:33:17 2.4 C 40 %
2531 06-01-2020 13:43:17 2.7 C 39 %
2532 06-01-2020 13:53:17 2.6 C 37 %
2533 06-01-2020 14:03:17 2.5 C 38 %
2534 06-01-2020 14:13:17 2.6 C 39 %
2535 06-01-2020 14:23:17 2.5 C 39 %
2536 06-01-2020 14:33:18 2.4 C 39 %
2537 06-01-2020 14:43:18 2.8 C 40 %
2538 06-01-2020 14:53:17 2.7 C 40 %
2539 06-01-2020 15:03:18 2.6 C 39 %
2540 06-01-2020 15:13:18 2.8 C 38 %
2541 06-01-2020 15:23:18 2.8 C 39 %
2542 06-01-2020 15:33:18 2.7 C 39 %
2543 06-01-2020 15:43:18 2.6 C 40 %
2544 06-01-2020 15:53:18 2.4 C 39 %
2545 06-01-2020 16:03:18 2 C 40 %
2546 06-01-2020 16:13:18 1.7 C 42 %
2547 06-01-2020 16:23:17 1.8 C 43 %
2548 06-01-2020 16:33:17 1.8 C 42 %
2549 06-01-2020 16:43:17 1.2 C 41 %
2550 06-01-2020 16:53:18 1.2 C 44 %
Sensor: Nr:Datum:Temp:Feuchte:
Aussen-T/F 2551 06-01-2020 17:03:18 1.3 C 43 %
2552 06-01-2020 17:13:18 0.5 C 43 %
2553 06-01-2020 17:23:18 0.8 C 45 %
2554 06-01-2020 17:33:18 0.8 C 45 %
2555 06-01-2020 17:43:18 0.5 C 43 %
2556 06-01-2020 17:53:17 0.1 C 44 %
2557 06-01-2020 18:03:18 0 C 45 %
2558 06-01-2020 18:13:18 -0.1 C 45 %
2559 06-01-2020 18:23:18 0 C 45 %
2560 06-01-2020 18:33:17 -0.4 C 45 %
2561 06-01-2020 18:43:17 -0.1 C 45 %
2562 06-01-2020 18:53:17 -0.2 C 45 %
2563 06-01-2020 19:03:18 -0.2 C 45 %
2564 06-01-2020 19:13:18 -0.5 C 44 %
2565 06-01-2020 19:23:17 -0.6 C 44 %
2566 06-01-2020 19:33:17 -1.3 C 43 %
2567 06-01-2020 19:43:17 -1 C 45 %
2568 06-01-2020 19:53:18 -1.1 C 45 %
2569 06-01-2020 20:03:18 -1.5 C 44 %
2570 06-01-2020 20:13:18 -1 C 45 %
2571 06-01-2020 20:23:18 -0.8 C 45 %
2572 06-01-2020 20:33:18 -0.7 C 45 %
2573 06-01-2020 20:43:18 -0.8 C 45 %
2574 06-01-2020 20:53:18 -0.9 C 44 %
2575 06-01-2020 21:03:18 -1.1 C 44 %
Sensor: Nr:Datum:Temp:Feuchte:
Aussen-T/F 2576 06-01-2020 21:13:18 -1.1 C 44 %
2577 06-01-2020 21:23:18 -1.3 C 44 %
2578 06-01-2020 21:33:18 -1.2 C 45 %
2579 06-01-2020 21:43:18 -0.8 C 45 %
2580 06-01-2020 21:53:18 -0.5 C 46 %
2581 06-01-2020 22:03:18 -0.3 C 46 %
2582 06-01-2020 22:13:18 0.2 C 46 %
2583 06-01-2020 22:23:17 0.5 C 45 %
2584 06-01-2020 22:33:17 0.6 C 42 %
2585 06-01-2020 22:43:17 0.5 C 42 %
2586 06-01-2020 22:53:18 0.6 C 42 %
2587 06-01-2020 23:03:18 0.7 C 44 %
2588 06-01-2020 23:13:18 0.8 C 44 %
2589 06-01-2020 23:23:18 0.7 C 43 %
2590 06-01-2020 23:33:18 0.6 C 44 %
2591 06-01-2020 23:43:18 0.8 C 45 %
2592 06-01-2020 23:53:18 1 C 43 %
2593 07-01-2020 00:03:18 1.2 C 43 %
2594 07-01-2020 00:13:18 1.8 C 39 %
2595 07-01-2020 00:23:17 2 C 37 %
2596 07-01-2020 00:33:17 1.8 C 39 %
2597 07-01-2020 00:43:17 2.3 C 36 %
2598 07-01-2020 00:53:17 2.5 C 35 %
2599 07-01-2020 01:03:17 2.5 C 36 %
2600 07-01-2020 01:13:17 2.6 C 35 %
Sensor: Nr:Datum:Temp:Feuchte:
Aussen-T/F 2601 07-01-2020 01:23:17 2.8 C 35 %
2602 07-01-2020 01:33:17 3 C 34 %
2603 07-01-2020 01:43:17 3 C 34 %
2604 07-01-2020 01:53:18 3 C 35 %
2605 07-01-2020 02:03:18 3.3 C 33 %
2606 07-01-2020 02:13:18 3.1 C 33 %
2607 07-01-2020 02:23:17 2.8 C 37 %
2608 07-01-2020 02:33:17 2.8 C 38 %
2609 07-01-2020 02:43:17 2.8 C 38 %
2610 07-01-2020 02:53:18 2.8 C 38 %
2611 07-01-2020 03:03:18 2.8 C 38 %
2612 07-01-2020 03:13:18 2.7 C 39 %
2613 07-01-2020 03:23:18 2.7 C 40 %
2614 07-01-2020 03:33:18 2.7 C 40 %
2615 07-01-2020 03:43:18 2.7 C 39 %
2616 07-01-2020 03:53:18 2.9 C 39 %
2617 07-01-2020 04:03:18 2.9 C 40 %
2618 07-01-2020 04:13:18 3 C 37 %
2619 07-01-2020 04:23:18 3 C 37 %
2620 07-01-2020 04:33:18 3.2 C 36 %
2621 07-01-2020 04:43:18 3.2 C 36 %
2622 07-01-2020 04:53:18 3.3 C 38 %
2623 07-01-2020 05:03:18 3.5 C 37 %
2624 07-01-2020 05:13:18 3.3 C 37 %
2625 07-01-2020 05:23:17 3.4 C 37 %
Sensor: Nr:Datum:Temp:Feuchte:
Aussen-T/F 2626 07-01-2020 05:33:17 3.5 C 37 %
2627 07-01-2020 05:43:17 3.5 C 38 %
2628 07-01-2020 05:53:18 3.6 C 37 %
2629 07-01-2020 06:03:18 3.6 C 37 %
2630 07-01-2020 06:13:18 3.7 C 36 %
2631 07-01-2020 06:23:18 3.9 C 36 %
2632 07-01-2020 06:33:18 4 C 35 %
2633 07-01-2020 06:43:18 4.3 C 34 %
2634 07-01-2020 06:53:17 4.3 C 34 %
2635 07-01-2020 07:03:18 4.3 C 34 %
2636 07-01-2020 07:13:18 4.4 C 34 %
2637 07-01-2020 07:23:18 4.4 C 34 %
2638 07-01-2020 07:33:18 4.4 C 34 %
2639 07-01-2020 07:43:18 4.3 C 34 %
2640 07-01-2020 07:53:18 4.3 C 35 %
2641 07-01-2020 08:03:18 4.4 C 35 %
2642 07-01-2020 08:13:18 4.4 C 35 %
2643 07-01-2020 08:23:17 4.3 C 35 %
2644 07-01-2020 08:33:17 3.9 C 37 %
2645 07-01-2020 08:43:17 3.6 C 40 %
2646 07-01-2020 08:53:17 3.8 C 41 %
2647 07-01-2020 09:03:18 4 C 38 %
2648 07-01-2020 09:13:18 3.9 C 40 %
2649 07-01-2020 09:23:17 4 C 37 %
2650 07-01-2020 09:33:17 4.2 C 37 %
Sensor: Nr:Datum:Temp:Feuchte:
Aussen-T/F 2651 07-01-2020 09:43:17 4.5 C 35 %
2652 07-01-2020 09:53:18 4.6 C 35 %
2653 07-01-2020 10:03:17 4.8 C 35 %
2654 07-01-2020 10:13:17 4.9 C 35 %
2655 07-01-2020 10:23:17 5.1 C 33 %
2656 07-01-2020 10:33:17 5.4 C 33 %
2657 07-01-2020 10:43:17 5.5 C 33 %
2658 07-01-2020 10:53:17 5.6 C 33 %
2659 07-01-2020 11:03:17 5.9 C 32 %
2660 07-01-2020 11:13:17 6.1 C 31 %
2661 07-01-2020 11:23:18 6.3 C 31 %
2662 07-01-2020 11:33:18 6.3 C 31 %
2663 07-01-2020 11:43:18 6.4 C 31 %
2664 07-01-2020 11:53:17 6.4 C 30 %
2665 07-01-2020 12:03:18 6.6 C 30 %
2666 07-01-2020 12:13:18 6.8 C 30 %
2667 07-01-2020 12:23:18 6.8 C 29 %
2668 07-01-2020 12:33:17 6.7 C 29 %
2669 07-01-2020 12:43:17 6.5 C 30 %
2670 07-01-2020 12:53:18 6.5 C 30 %
2671 07-01-2020 13:03:17 6.8 C 29 %
2672 07-01-2020 13:13:17 7 C 27 %
2673 07-01-2020 13:23:17 6.9 C 29 %
2674 07-01-2020 13:33:17 6.9 C 28 %
2675 07-01-2020 13:43:17 6.8 C 29 %
Sensor: Nr:Datum:Temp:Feuchte:
Aussen-T/F 2676 07-01-2020 13:53:17 7 C 27 %
2677 07-01-2020 14:03:18 7.1 C 27 %
2678 07-01-2020 14:13:18 7 C 27 %
2679 07-01-2020 14:23:17 7.1 C 27 %
2680 07-01-2020 14:33:17 7.3 C 26 %
2681 07-01-2020 14:43:17 6.8 C 28 %
2682 07-01-2020 14:53:17 7.2 C 26 %
2683 07-01-2020 15:03:17 6.7 C 28 %
2684 07-01-2020 15:13:17 6.4 C 28 %
2685 07-01-2020 15:23:17 6.3 C 28 %
2686 07-01-2020 15:33:17 6 C 29 %
2687 07-01-2020 15:43:17 5.7 C 30 %
2688 07-01-2020 15:53:17 5.5 C 31 %
2689 07-01-2020 16:03:17 5.3 C 31 %
2690 07-01-2020 16:13:17 5.4 C 31 %
2691 07-01-2020 16:23:17 5.4 C 31 %
2692 07-01-2020 16:33:17 4.5 C 35 %
2693 07-01-2020 16:43:17 4 C 37 %
2694 07-01-2020 16:53:17 4.1 C 37 %
2695 07-01-2020 17:03:18 3.6 C 40 %
2696 07-01-2020 17:13:18 3.5 C 40 %
2697 07-01-2020 17:23:18 3.3 C 41 %
2698 07-01-2020 17:33:18 3.3 C 42 %
2699 07-01-2020 17:43:18 3.1 C 41 %
2700 07-01-2020 17:53:17 2.9 C 43 %
Sensor: Nr:Datum:Temp:Feuchte:
Aussen-T/F 2701 07-01-2020 18:03:18 3.1 C 43 %
2702 07-01-2020 18:13:18 3.2 C 43 %
2703 07-01-2020 18:23:18 2.9 C 43 %
2704 07-01-2020 18:33:18 2.7 C 43 %
2705 07-01-2020 18:43:18 2.9 C 44 %
2706 07-01-2020 18:53:18 2.7 C 43 %
2707 07-01-2020 19:03:17 2.8 C 44 %
2708 07-01-2020 19:13:17 2.5 C 43 %
2709 07-01-2020 19:23:17 2.5 C 43 %
2710 07-01-2020 19:33:18 2.5 C 43 %
2711 07-01-2020 19:43:18 2.5 C 43 %
2712 07-01-2020 19:53:17 3 C 43 %
2713 07-01-2020 20:03:18 3.6 C 42 %
2714 07-01-2020 20:13:18 4.1 C 38 %
2715 07-01-2020 20:23:18 3.6 C 38 %
2716 07-01-2020 20:33:18 3.6 C 39 %
2717 07-01-2020 20:43:18 4 C 37 %
2718 07-01-2020 20:53:17 4.7 C 35 %
2719 07-01-2020 21:03:18 5.1 C 32 %
2720 07-01-2020 21:13:18 5.1 C 32 %
2721 07-01-2020 21:23:18 5.3 C 31 %
2722 07-01-2020 21:33:18 5.7 C 31 %
2723 07-01-2020 21:43:18 5.7 C 30 %
2724 07-01-2020 21:53:17 5.7 C 30 %
2725 07-01-2020 22:03:18 6 C 28 %
Sensor: Nr:Datum:Temp:Feuchte:
Aussen-T/F 2726 07-01-2020 22:13:18 5.8 C 29 %
2727 07-01-2020 22:24:17 5.9 C 29 %
2728 07-01-2020 22:33:17 5.7 C 29 %
2729 07-01-2020 22:43:17 5.7 C 30 %
2730 07-01-2020 22:53:17 5.9 C 29 %
2731 07-01-2020 23:03:18 6 C 28 %
2732 07-01-2020 23:13:18 6 C 28 %
2733 07-01-2020 23:23:18 6.1 C 28 %
2734 07-01-2020 23:33:18 5.9 C 28 %
2735 07-01-2020 23:43:18 5.6 C 30 %
2736 07-01-2020 23:53:18 5.7 C 29 %
2737 08-01-2020 00:04:17 5.7 C 29 %
2738 08-01-2020 00:14:17 5.4 C 30 %
2739 08-01-2020 00:24:17 5.6 C 29 %
2740 08-01-2020 00:34:17 5.6 C 28 %
2741 08-01-2020 00:44:17 5.5 C 29 %
2742 08-01-2020 00:53:18 5.7 C 28 %
2743 08-01-2020 01:03:18 5.4 C 28 %
2744 08-01-2020 01:13:18 5.6 C 28 %
2745 08-01-2020 01:24:17 5.4 C 28 %
2746 08-01-2020 01:33:18 5.4 C 28 %
2747 08-01-2020 01:43:18 5.3 C 28 %
2748 08-01-2020 01:53:17 4.7 C 30 %
2749 08-01-2020 02:03:18 4.7 C 30 %
2750 08-01-2020 02:13:18 5 C 30 %
Sensor: Nr:Datum:Temp:Feuchte:
Aussen-T/F 2751 08-01-2020 02:23:18 5 C 30 %
2752 08-01-2020 02:33:18 5.3 C 30 %
2753 08-01-2020 02:43:18 5.4 C 30 %
2754 08-01-2020 02:53:18 5.5 C 30 %
2755 08-01-2020 03:03:18 5.9 C 30 %
2756 08-01-2020 03:13:18 5.8 C 30 %
2757 08-01-2020 03:23:18 5.9 C 30 %
2758 08-01-2020 03:33:18 5.8 C 30 %
2759 08-01-2020 03:43:18 6 C 30 %
2760 08-01-2020 03:53:17 5.9 C 30 %
2761 08-01-2020 04:03:18 5.9 C 30 %
2762 08-01-2020 04:13:18 5.8 C 31 %
2763 08-01-2020 04:23:18 5.8 C 31 %
2764 08-01-2020 04:33:18 5.7 C 32 %
2765 08-01-2020 04:43:18 5.7 C 32 %
2766 08-01-2020 04:54:17 5.6 C 33 %
2767 08-01-2020 05:04:17 5.6 C 33 %
2768 08-01-2020 05:14:17 5.7 C 33 %
2769 08-01-2020 05:24:17 5.8 C 34 %
2770 08-01-2020 05:34:17 5.7 C 34 %
2771 08-01-2020 05:44:17 5.8 C 35 %
2772 08-01-2020 05:54:17 5.8 C 35 %
2773 08-01-2020 06:04:17 6 C 35 %
2774 08-01-2020 06:14:17 5.9 C 35 %
2775 08-01-2020 06:24:17 6 C 35 %
Sensor: Nr:Datum:Temp:Feuchte:
Aussen-T/F 2776 08-01-2020 06:34:17 6.2 C 35 %
2777 08-01-2020 06:44:17 6.1 C 36 %
2778 08-01-2020 06:54:17 6 C 39 %
2779 08-01-2020 07:04:17 5.8 C 41 %
2780 08-01-2020 07:14:17 5.9 C 42 %
2781 08-01-2020 07:24:18 6 C 42 %
2782 08-01-2020 07:34:18 6.1 C 42 %
2783 08-01-2020 07:44:18 6.2 C 42 %
2784 08-01-2020 07:54:17 6.2 C 42 %
2785 08-01-2020 08:04:17 6.3 C 42 %
2786 08-01-2020 08:14:17 6.2 C 42 %
2787 08-01-2020 08:24:17 6.2 C 42 %
2788 08-01-2020 08:34:18 6.1 C 42 %
2789 08-01-2020 08:44:18 6.6 C 41 %
2790 08-01-2020 08:54:17 6.7 C 39 %
2791 08-01-2020 09:04:17 6.8 C 39 %
2792 08-01-2020 09:14:17 6.8 C 39 %
2793 08-01-2020 09:24:17 6.7 C 39 %
2794 08-01-2020 09:34:17 6.7 C 40 %
2795 08-01-2020 09:44:17 6.9 C 39 %
2796 08-01-2020 09:54:17 7.1 C 38 %
2797 08-01-2020 10:04:17 7.1 C 38 %
2798 08-01-2020 10:14:17 7.2 C 37 %
2799 08-01-2020 10:24:17 7.4 C 36 %
2800 08-01-2020 10:34:17 7.3 C 36 %
Sensor: Nr:Datum:Temp:Feuchte:
Aussen-T/F 2801 08-01-2020 10:44:17 7.4 C 36 %
2802 08-01-2020 10:54:17 7.5 C 35 %
2803 08-01-2020 11:04:17 7.7 C 35 %
2804 08-01-2020 11:14:17 7.8 C 35 %
2805 08-01-2020 11:24:17 7.9 C 34 %
2806 08-01-2020 11:34:17 7.8 C 35 %
2807 08-01-2020 11:44:17 7.9 C 34 %
2808 08-01-2020 11:54:17 7.7 C 35 %
2809 08-01-2020 12:04:17 7.6 C 36 %
2810 08-01-2020 12:14:17 7.7 C 36 %
2811 08-01-2020 12:24:16 7.9 C 35 %
2812 08-01-2020 12:34:17 8 C 34 %
2813 08-01-2020 12:44:17 8.1 C 34 %
2814 08-01-2020 12:54:17 8.8 C 33 %
2815 08-01-2020 13:04:17 9 C 31 %
2816 08-01-2020 13:14:17 8.8 C 32 %
2817 08-01-2020 13:24:17 8.7 C 32 %
2818 08-01-2020 13:34:17 8.8 C 32 %
2819 08-01-2020 13:44:17 8.8 C 32 %
2820 08-01-2020 13:54:17 8.7 C 32 %
2821 08-01-2020 14:04:16 8.9 C 32 %
2822 08-01-2020 14:14:16 9 C 32 %
2823 08-01-2020 14:24:16 9 C 32 %
2824 08-01-2020 14:34:16 9 C 32 %
2825 08-01-2020 14:44:16 9.1 C 32 %
Sensor: Nr:Datum:Temp:Feuchte:
Aussen-T/F 2826 08-01-2020 14:54:16 9.3 C 31 %
2827 08-01-2020 15:04:16 9.4 C 31 %
2828 08-01-2020 15:14:16 9.4 C 31 %
2829 08-01-2020 15:24:16 9.4 C 31 %
2830 08-01-2020 15:34:16 9.3 C 32 %
2831 08-01-2020 15:44:16 9.3 C 32 %
2832 08-01-2020 15:54:16 9.4 C 32 %
2833 08-01-2020 16:04:17 9.3 C 32 %
2834 08-01-2020 16:14:17 9.3 C 32 %
2835 08-01-2020 16:24:17 9.2 C 33 %
2836 08-01-2020 16:34:17 9.2 C 33 %
2837 08-01-2020 16:44:17 9.3 C 33 %
2838 08-01-2020 16:54:17 9.3 C 34 %
2839 08-01-2020 17:04:17 9.3 C 34 %
2840 08-01-2020 17:14:17 9.3 C 34 %
2841 08-01-2020 17:24:17 9.3 C 34 %
2842 08-01-2020 17:34:17 9.2 C 35 %
2843 08-01-2020 17:44:17 9.2 C 35 %
2844 08-01-2020 17:54:17 9.1 C 35 %
2845 08-01-2020 18:04:17 9.2 C 35 %
2846 08-01-2020 18:14:17 9.1 C 36 %
2847 08-01-2020 18:24:17 9.1 C 36 %
2848 08-01-2020 18:34:17 9.2 C 35 %
2849 08-01-2020 18:44:17 9.4 C 35 %
2850 08-01-2020 18:54:17 9.4 C 35 %
Sensor: Nr:Datum:Temp:Feuchte:
Aussen-T/F 2851 08-01-2020 19:04:17 9.5 C 36 %
2852 08-01-2020 19:14:17 9.6 C 35 %
2853 08-01-2020 19:24:17 9.7 C 35 %
2854 08-01-2020 19:34:17 9.6 C 35 %
2855 08-01-2020 19:44:17 9.5 C 35 %
2856 08-01-2020 19:54:17 9.3 C 36 %
2857 08-01-2020 20:04:17 9.7 C 36 %
2858 08-01-2020 20:14:17 9.7 C 35 %
2859 08-01-2020 20:24:17 9.9 C 35 %
2860 08-01-2020 20:34:17 9.8 C 35 %
2861 08-01-2020 20:44:17 9.9 C 35 %
2862 08-01-2020 20:54:16 9.9 C 35 %
2863 08-01-2020 21:04:17 10 C 35 %
2864 08-01-2020 21:14:17 9.8 C 35 %
2865 08-01-2020 21:24:17 9.8 C 35 %
2866 08-01-2020 21:34:17 9.9 C 36 %
2867 08-01-2020 21:44:17 10 C 35 %
2868 08-01-2020 21:54:16 9.6 C 37 %
2869 08-01-2020 22:04:16 9.5 C 37 %
2870 08-01-2020 22:14:16 9.6 C 38 %
2871 08-01-2020 22:24:16 9.9 C 36 %
2872 08-01-2020 22:34:16 9.8 C 36 %
2873 08-01-2020 22:44:16 9.6 C 37 %
2874 08-01-2020 22:54:16 9.6 C 38 %
2875 08-01-2020 23:04:16 9.7 C 38 %
Sensor: Nr:Datum:Temp:Feuchte:
Aussen-T/F 2876 08-01-2020 23:14:16 9.5 C 38 %
2877 08-01-2020 23:24:16 9.5 C 39 %
2878 08-01-2020 23:34:16 9.5 C 39 %
2879 08-01-2020 23:44:16 9.5 C 39 %
2880 08-01-2020 23:54:16 9.5 C 40 %
2881 09-01-2020 00:04:16 9.1 C 40 %
2882 09-01-2020 00:14:16 9.2 C 40 %
2883 09-01-2020 00:24:16 9.2 C 40 %
2884 09-01-2020 00:34:16 9.1 C 41 %
2885 09-01-2020 00:44:16 9 C 41 %
2886 09-01-2020 00:54:16 9 C 41 %
2887 09-01-2020 01:04:16 9.1 C 42 %
2888 09-01-2020 01:14:16 9 C 41 %
2889 09-01-2020 01:24:16 9 C 42 %
2890 09-01-2020 01:34:16 8.9 C 42 %
2891 09-01-2020 01:44:16 8.9 C 42 %
2892 09-01-2020 01:54:16 8.9 C 42 %
2893 09-01-2020 02:04:16 8.9 C 42 %
2894 09-01-2020 02:14:16 8.7 C 42 %
2895 09-01-2020 02:24:16 8.8 C 42 %
2896 09-01-2020 02:34:16 8.7 C 42 %
2897 09-01-2020 02:44:16 8.8 C 42 %
2898 09-01-2020 02:54:18 8.8 C 41 %
2899 09-01-2020 03:04:18 8.8 C 40 %
2900 09-01-2020 03:14:18 8.7 C 40 %
Sensor: Nr:Datum:Temp:Feuchte:
Aussen-T/F 2901 09-01-2020 03:24:17 8.7 C 40 %
2902 09-01-2020 03:34:17 8.7 C 40 %
2903 09-01-2020 03:44:17 8.6 C 40 %
2904 09-01-2020 03:54:17 8.5 C 40 %
2905 09-01-2020 04:04:17 8.4 C 41 %
2906 09-01-2020 04:14:17 8.5 C 42 %
2907 09-01-2020 04:24:17 8.5 C 42 %
2908 09-01-2020 04:34:17 8.5 C 42 %
2909 09-01-2020 04:44:17 8.6 C 42 %
2910 09-01-2020 04:54:17 8.5 C 42 %
2911 09-01-2020 05:04:17 8.5 C 42 %
2912 09-01-2020 05:14:17 8.5 C 42 %
2913 09-01-2020 05:24:17 8.5 C 42 %
2914 09-01-2020 05:34:17 8.5 C 41 %
2915 09-01-2020 05:44:17 8.5 C 42 %
2916 09-01-2020 05:54:18 8.5 C 42 %
2917 09-01-2020 06:04:18 8.5 C 41 %
2918 09-01-2020 06:14:18 8.5 C 41 %
2919 09-01-2020 06:24:18 8.6 C 41 %
2920 09-01-2020 06:34:18 8.6 C 41 %
2921 09-01-2020 06:44:18 8.6 C 41 %
2922 09-01-2020 06:54:18 8.7 C 41 %
2923 09-01-2020 07:04:18 8.7 C 41 %
2924 09-01-2020 07:14:18 8.8 C 41 %
2925 09-01-2020 07:24:18 8.8 C 41 %
Sensor: Nr:Datum:Temp:Feuchte:
Aussen-T/F 2926 09-01-2020 07:34:18 9 C 41 %
2927 09-01-2020 07:44:18 9 C 41 %
2928 09-01-2020 07:54:18 9 C 41 %
2929 09-01-2020 08:04:18 9 C 41 %
2930 09-01-2020 08:14:18 9 C 41 %
2931 09-01-2020 08:24:18 9.3 C 41 %
2932 09-01-2020 08:34:18 9.2 C 41 %
2933 09-01-2020 08:44:18 9.5 C 41 %
2934 09-01-2020 08:54:18 9.6 C 41 %
2935 09-01-2020 09:04:18 9.8 C 40 %
2936 09-01-2020 09:14:18 10 C 40 %
2937 09-01-2020 09:24:18 9.8 C 40 %
2938 09-01-2020 09:34:17 9.8 C 39 %
2939 09-01-2020 09:44:17 10.1 C 39 %
2940 09-01-2020 09:54:17 10.3 C 37 %
2941 09-01-2020 10:04:17 10.7 C 35 %
2942 09-01-2020 10:14:17 10.8 C 35 %
2943 09-01-2020 10:24:17 11.1 C 33 %
2944 09-01-2020 10:34:18 11.4 C 32 %
2945 09-01-2020 10:44:18 11.5 C 32 %
2946 09-01-2020 10:54:17 11.6 C 32 %
2947 09-01-2020 11:04:18 11.8 C 31 %
2948 09-01-2020 11:14:18 12 C 30 %
2949 09-01-2020 11:24:18 12.2 C 30 %
2950 09-01-2020 11:34:18 12.3 C 30 %
Sensor: Nr:Datum:Temp:Feuchte:
Aussen-T/F 2951 09-01-2020 11:44:18 12.5 C 30 %
2952 09-01-2020 11:54:17 12.7 C 29 %
2953 09-01-2020 12:04:17 12.8 C 29 %
2954 09-01-2020 12:14:17 12.9 C 28 %
2955 09-01-2020 12:24:17 13 C 27 %
2956 09-01-2020 12:34:17 13 C 27 %
2957 09-01-2020 12:44:17 13.1 C 27 %
2958 09-01-2020 12:54:17 13.2 C 27 %
2959 09-01-2020 13:04:17 13.2 C 27 %
2960 09-01-2020 13:14:17 13.2 C 27 %
2961 09-01-2020 13:24:17 13.2 C 26 %
2962 09-01-2020 13:34:18 13.3 C 27 %
2963 09-01-2020 13:44:18 13.3 C 26 %
2964 09-01-2020 13:54:18 13.1 C 26 %
2965 09-01-2020 14:04:18 13 C 26 %
2966 09-01-2020 14:14:18 12.7 C 28 %
2967 09-01-2020 14:24:17 12.3 C 29 %
2968 09-01-2020 14:34:17 12.2 C 29 %
2969 09-01-2020 14:44:17 12.1 C 30 %
2970 09-01-2020 14:54:17 12.2 C 30 %
2971 09-01-2020 15:04:17 12.3 C 30 %
2972 09-01-2020 15:14:18 12.1 C 29 %
2973 09-01-2020 15:24:18 12.4 C 28 %
2974 09-01-2020 15:34:17 12.4 C 29 %
2975 09-01-2020 15:44:17 12.4 C 29 %
Sensor: Nr:Datum:Temp:Feuchte:
Aussen-T/F 2976 09-01-2020 15:54:17 12.4 C 29 %
2977 09-01-2020 16:04:17 12.4 C 29 %
2978 09-01-2020 16:14:17 12.5 C 28 %
2979 09-01-2020 16:24:17 12.1 C 29 %
2980 09-01-2020 16:34:17 12.3 C 28 %
2981 09-01-2020 16:44:17 12.2 C 29 %
2982 09-01-2020 16:54:17 12 C 29 %
2983 09-01-2020 17:04:17 12.2 C 29 %
2984 09-01-2020 17:14:17 12.3 C 28 %
2985 09-01-2020 17:24:18 12.1 C 28 %
2986 09-01-2020 17:34:17 12.1 C 28 %
2987 09-01-2020 17:44:17 12 C 28 %
2988 09-01-2020 17:54:18 11.7 C 30 %
2989 09-01-2020 18:04:18 11.4 C 30 %
2990 09-01-2020 18:14:18 11.3 C 31 %
2991 09-01-2020 18:24:17 10.9 C 32 %
2992 09-01-2020 18:34:17 11.1 C 30 %
2993 09-01-2020 18:44:17 11 C 30 %
2994 09-01-2020 18:54:17 11 C 30 %
2995 09-01-2020 19:04:17 11.4 C 29 %
2996 09-01-2020 19:14:17 11.3 C 29 %
2997 09-01-2020 19:24:17 11 C 30 %
2998 09-01-2020 19:34:18 10.7 C 31 %
2999 09-01-2020 19:44:18 10.8 C 31 %
3000 09-01-2020 19:54:17 10.1 C 35 %
Sensor: Nr:Datum:Temp:Feuchte:
Aussen-T/F 3001 09-01-2020 20:04:18 10 C 37 %
3002 09-01-2020 20:14:18 9.7 C 37 %
3003 09-01-2020 20:24:17 9.7 C 35 %
3004 09-01-2020 20:34:17 9.9 C 37 %
3005 09-01-2020 20:44:17 9.7 C 36 %
3006 09-01-2020 20:54:17 9.6 C 35 %
3007 09-01-2020 21:04:17 9.4 C 37 %
3008 09-01-2020 21:14:18 9.3 C 38 %
3009 09-01-2020 21:24:18 9.2 C 39 %
3010 09-01-2020 21:34:18 9.1 C 40 %
3011 09-01-2020 21:44:18 9.3 C 37 %
3012 09-01-2020 21:54:17 9.2 C 37 %
3013 09-01-2020 22:04:18 9.2 C 38 %
3014 09-01-2020 22:14:18 9.2 C 38 %
3015 09-01-2020 22:24:17 9.2 C 38 %
3016 09-01-2020 22:34:18 9.2 C 38 %
3017 09-01-2020 22:44:18 9.3 C 36 %
3018 09-01-2020 22:54:18 9.4 C 34 %
3019 09-01-2020 23:04:18 9.8 C 32 %
3020 09-01-2020 23:14:18 9.8 C 31 %
3021 09-01-2020 23:24:18 9.7 C 31 %
3022 09-01-2020 23:34:18 9.6 C 32 %
3023 09-01-2020 23:44:18 10 C 30 %
3024 09-01-2020 23:54:17 10.2 C 30 %
3025 10-01-2020 00:04:17 10.1 C 30 %
Sensor: Nr:Datum:Temp:Feuchte:
Aussen-T/F 3026 10-01-2020 00:14:17 10.1 C 30 %
3027 10-01-2020 00:24:17 9.9 C 30 %
3028 10-01-2020 00:34:17 9.8 C 31 %
3029 10-01-2020 00:44:17 9.6 C 32 %
3030 10-01-2020 00:54:17 9.5 C 32 %
3031 10-01-2020 01:04:17 9.9 C 30 %
3032 10-01-2020 01:14:17 9.7 C 31 %
3033 10-01-2020 01:24:17 9.7 C 31 %
3034 10-01-2020 01:34:17 9.6 C 31 %
3035 10-01-2020 01:44:17 9.3 C 31 %
3036 10-01-2020 01:54:17 9.6 C 31 %
3037 10-01-2020 02:04:17 9.5 C 31 %
3038 10-01-2020 02:14:17 9.7 C 31 %
3039 10-01-2020 02:24:18 9.7 C 30 %
3040 10-01-2020 02:34:17 9.8 C 30 %
3041 10-01-2020 02:44:17 9.8 C 30 %
3042 10-01-2020 02:54:18 9.6 C 30 %
3043 10-01-2020 03:04:17 10.1 C 29 %
3044 10-01-2020 03:14:17 9.8 C 30 %
3045 10-01-2020 03:24:17 9.8 C 30 %
3046 10-01-2020 03:34:18 10.1 C 28 %
3047 10-01-2020 03:44:18 10 C 27 %
3048 10-01-2020 03:54:17 10 C 27 %
3049 10-01-2020 04:04:18 10.1 C 26 %
3050 10-01-2020 04:14:18 10.2 C 26 %
Sensor: Nr:Datum:Temp:Feuchte:
Aussen-T/F 3051 10-01-2020 04:24:18 10 C 26 %
3052 10-01-2020 04:34:18 9.9 C 26 %
3053 10-01-2020 04:44:18 9.8 C 26 %
3054 10-01-2020 04:54:17 9.7 C 26 %
3055 10-01-2020 05:04:18 9.5 C 26 %
3056 10-01-2020 05:14:18 9.8 C 26 %
3057 10-01-2020 05:24:18 9.7 C 26 %
3058 10-01-2020 05:34:18 9.1 C 27 %
3059 10-01-2020 05:44:18 9.2 C 27 %
3060 10-01-2020 05:54:18 9.3 C 27 %
3061 10-01-2020 06:04:18 9.2 C 27 %
3062 10-01-2020 06:14:18 8.9 C 28 %
3063 10-01-2020 06:24:18 8.3 C 32 %
3064 10-01-2020 06:34:17 8 C 36 %
3065 10-01-2020 06:44:17 8 C 39 %
3066 10-01-2020 06:54:17 7.8 C 40 %
3067 10-01-2020 07:04:17 7.8 C 40 %
3068 10-01-2020 07:14:17 7.8 C 40 %
3069 10-01-2020 07:24:17 7.8 C 41 %
3070 10-01-2020 07:34:17 7.7 C 41 %
3071 10-01-2020 07:44:17 7.7 C 40 %
3072 10-01-2020 07:54:18 7.7 C 40 %
3073 10-01-2020 08:04:18 7.7 C 40 %
3074 10-01-2020 08:14:18 7.8 C 38 %
3075 10-01-2020 08:24:17 7.6 C 38 %
Sensor: Nr:Datum:Temp:Feuchte:
Aussen-T/F 3076 10-01-2020 08:34:17 7.7 C 39 %
3077 10-01-2020 08:44:17 8 C 35 %
3078 10-01-2020 08:54:17 8 C 35 %
3079 10-01-2020 09:04:17 8.5 C 32 %
3080 10-01-2020 09:14:17 8.4 C 32 %
3081 10-01-2020 09:24:17 8.7 C 31 %
3082 10-01-2020 09:34:17 8.9 C 31 %
3083 10-01-2020 09:44:17 9 C 30 %
3084 10-01-2020 09:54:17 9.1 C 30 %
3085 10-01-2020 10:04:18 9.1 C 30 %
3086 10-01-2020 10:14:18 9.1 C 30 %
3087 10-01-2020 10:24:18 9.2 C 30 %
3088 10-01-2020 10:34:17 9.2 C 30 %
3089 10-01-2020 10:44:17 9.5 C 30 %
3090 10-01-2020 10:54:18 9.5 C 29 %
3091 10-01-2020 11:04:18 10.2 C 26 %
3092 10-01-2020 11:14:18 10.2 C 26 %
3093 10-01-2020 11:24:17 10.2 C 26 %
3094 10-01-2020 11:34:17 10.4 C 26 %
3095 10-01-2020 11:44:17 10.3 C 26 %
3096 10-01-2020 11:54:17 10.7 C 26 %
3097 10-01-2020 12:04:17 10.8 C 26 %
3098 10-01-2020 12:14:17 11 C 26 %
3099 10-01-2020 12:24:17 10.1 C 27 %
3100 10-01-2020 12:34:17 10.4 C 27 %
Sensor: Nr:Datum:Temp:Feuchte:
Aussen-T/F 3101 10-01-2020 12:44:17 10.6 C 26 %
3102 10-01-2020 12:54:17 9.4 C 31 %
3103 10-01-2020 13:04:17 8.7 C 31 %
3104 10-01-2020 13:14:17 8.3 C 34 %
3105 10-01-2020 13:24:17 8.4 C 32 %
3106 10-01-2020 13:34:17 8.7 C 33 %
3107 10-01-2020 13:44:17 8.7 C 33 %
3108 10-01-2020 13:54:17 8.6 C 35 %
3109 10-01-2020 14:04:18 8.4 C 32 %
3110 10-01-2020 14:14:18 8.8 C 30 %
3111 10-01-2020 14:24:29 9 C 29 %
3112 10-01-2020 14:34:17 9 C 28 %
3113 10-01-2020 14:44:17 9 C 27 %
3114 10-01-2020 14:54:17 9 C 26 %
3115 10-01-2020 15:04:20 8.9 C 27 %
3116 10-01-2020 15:14:20 8.8 C 27 %
3117 10-01-2020 15:24:17 8.7 C 27 %
3118 10-01-2020 15:34:18 8.6 C 27 %
3119 10-01-2020 15:44:18 8.6 C 27 %
3120 10-01-2020 15:54:17 8.6 C 27 %
3121 10-01-2020 16:04:17 8.3 C 28 %
3122 10-01-2020 16:14:17 7.6 C 31 %
3123 10-01-2020 16:24:17 7.5 C 34 %
3124 10-01-2020 16:34:18 7.4 C 32 %
3125 10-01-2020 16:44:18 7.2 C 33 %
Sensor: Nr:Datum:Temp:Feuchte:
Aussen-T/F 3126 10-01-2020 16:54:17 7 C 32 %
3127 10-01-2020 17:04:18 6.7 C 34 %
3128 10-01-2020 17:14:18 6.8 C 34 %
3129 10-01-2020 17:24:17 6.9 C 32 %
3130 10-01-2020 17:34:18 6.7 C 32 %
3131 10-01-2020 17:44:18 6.6 C 32 %
3132 10-01-2020 17:54:17 6.9 C 31 %
3133 10-01-2020 18:04:17 7 C 31 %
3134 10-01-2020 18:14:17 7 C 30 %
3135 10-01-2020 18:24:18 6.8 C 31 %
3136 10-01-2020 18:34:17 7 C 30 %
3137 10-01-2020 18:44:17 7.1 C 30 %
3138 10-01-2020 18:54:17 6.6 C 32 %
3139 10-01-2020 19:04:17 6.5 C 33 %
3140 10-01-2020 19:14:18 6.3 C 35 %
3141 10-01-2020 19:24:17 6 C 37 %
3142 10-01-2020 19:34:17 6 C 36 %
3143 10-01-2020 19:44:17 5.9 C 39 %
3144 10-01-2020 19:54:17 5.8 C 36 %
3145 10-01-2020 20:04:17 5.9 C 38 %
3146 10-01-2020 20:14:18 6 C 34 %
3147 10-01-2020 20:24:17 6 C 34 %
3148 10-01-2020 20:34:18 6 C 32 %
3149 10-01-2020 20:44:18 6 C 31 %
3150 10-01-2020 20:54:17 6 C 31 %
Sensor: Nr:Datum:Temp:Feuchte:
Aussen-T/F 3151 10-01-2020 21:04:17 6.1 C 30 %
3152 10-01-2020 21:14:17 5.8 C 31 %
3153 10-01-2020 21:24:17 5.8 C 31 %
3154 10-01-2020 21:34:17 6 C 30 %
3155 10-01-2020 21:44:17 6.2 C 30 %
3156 10-01-2020 21:54:17 6 C 30 %
3157 10-01-2020 22:04:18 6.1 C 30 %
3158 10-01-2020 22:14:18 6.2 C 30 %
3159 10-01-2020 22:24:17 6.2 C 30 %
3160 10-01-2020 22:34:17 6.2 C 30 %
3161 10-01-2020 22:44:17 6.2 C 29 %
3162 10-01-2020 22:54:17 6.1 C 30 %
3163 10-01-2020 23:04:17 6.2 C 30 %
3164 10-01-2020 23:14:17 6.2 C 30 %
3165 10-01-2020 23:24:17 6.1 C 30 %
3166 10-01-2020 23:34:17 5.9 C 30 %
3167 10-01-2020 23:44:17 5.8 C 30 %
3168 10-01-2020 23:54:18 5.8 C 30 %
3169 11-01-2020 00:04:17 5.5 C 30 %
3170 11-01-2020 00:14:17 5.3 C 30 %
3171 11-01-2020 00:24:17 5.4 C 30 %
3172 11-01-2020 00:34:18 5 C 30 %
3173 11-01-2020 00:44:18 4.7 C 32 %
3174 11-01-2020 00:54:17 4.1 C 35 %
3175 11-01-2020 01:04:18 3.5 C 37 %
Sensor: Nr:Datum:Temp:Feuchte:
Aussen-T/F 3176 11-01-2020 01:14:18 3.8 C 39 %
3177 11-01-2020 01:24:17 4.1 C 38 %
3178 11-01-2020 01:34:17 4.3 C 36 %
3179 11-01-2020 01:44:17 4.5 C 36 %
3180 11-01-2020 01:54:17 4.3 C 35 %
3181 11-01-2020 02:04:17 3.7 C 38 %
3182 11-01-2020 02:14:17 3.7 C 39 %
3183 11-01-2020 02:24:17 3.3 C 39 %
3184 11-01-2020 02:34:18 2.7 C 41 %
3185 11-01-2020 02:44:18 2.9 C 42 %
3186 11-01-2020 02:54:17 3.2 C 42 %
3187 11-01-2020 03:04:18 3 C 41 %
3188 11-01-2020 03:14:18 2.6 C 41 %
3189 11-01-2020 03:24:17 2.3 C 44 %
3190 11-01-2020 03:34:17 2.9 C 45 %
3191 11-01-2020 03:44:17 3 C 43 %
3192 11-01-2020 03:54:17 2.9 C 44 %
3193 11-01-2020 04:04:17 2.9 C 44 %
3194 11-01-2020 04:14:17 3 C 43 %
3195 11-01-2020 04:24:17 3.1 C 44 %
3196 11-01-2020 04:34:18 3.4 C 40 %
3197 11-01-2020 04:44:18 3.3 C 40 %
3198 11-01-2020 04:54:17 3.3 C 40 %
3199 11-01-2020 05:04:18 3.1 C 39 %
3200 11-01-2020 05:14:18 2.9 C 40 %
Sensor: Nr:Datum:Temp:Feuchte:
Aussen-T/F 3201 11-01-2020 05:24:17 2.7 C 41 %
3202 11-01-2020 05:34:17 2.7 C 42 %
3203 11-01-2020 05:44:17 3 C 40 %
3204 11-01-2020 05:54:17 3 C 40 %
3205 11-01-2020 06:04:17 2.9 C 40 %
3206 11-01-2020 06:14:17 2.9 C 40 %
3207 11-01-2020 06:24:17 2.9 C 40 %
3208 11-01-2020 06:34:17 2.8 C 40 %
3209 11-01-2020 06:44:18 2.7 C 40 %
3210 11-01-2020 06:54:17 2.7 C 40 %
3211 11-01-2020 07:04:17 2.8 C 40 %
3212 11-01-2020 07:14:17 2.6 C 40 %
3213 11-01-2020 07:24:17 2.4 C 40 %
3214 11-01-2020 07:34:17 2.5 C 41 %
3215 11-01-2020 07:44:18 1.9 C 41 %
3216 11-01-2020 07:54:17 1 C 40 %
3217 11-01-2020 08:04:17 1 C 45 %
3218 11-01-2020 08:14:17 0.6 C 45 %
3219 11-01-2020 08:24:17 0.4 C 45 %
3220 11-01-2020 08:34:17 0.5 C 46 %
3221 11-01-2020 08:44:18 0.9 C 47 %
3222 11-01-2020 08:54:17 0.2 C 45 %
3223 11-01-2020 09:04:17 1 C 46 %
3224 11-01-2020 09:14:17 1 C 45 %
3225 11-01-2020 09:24:17 1.3 C 45 %
Sensor: Nr:Datum:Temp:Feuchte:
Aussen-T/F 3226 11-01-2020 09:34:17 1.8 C 43 %
3227 11-01-2020 09:44:17 1.9 C 40 %
3228 11-01-2020 09:54:18 1.9 C 40 %
3229 11-01-2020 10:04:18 2 C 38 %
3230 11-01-2020 10:14:18 2.2 C 38 %
3231 11-01-2020 10:24:17 2.4 C 38 %
3232 11-01-2020 10:34:17 2.4 C 37 %
3233 11-01-2020 10:44:17 2.5 C 37 %
3234 11-01-2020 10:54:18 2.7 C 38 %
3235 11-01-2020 11:04:17 3.4 C 37 %
3236 11-01-2020 11:14:17 4.1 C 34 %
3237 11-01-2020 11:24:17 4.1 C 32 %
3238 11-01-2020 11:34:18 4.4 C 30 %
3239 11-01-2020 11:44:18 4.9 C 30 %
3240 11-01-2020 11:54:17 5.5 C 29 %
3241 11-01-2020 12:04:17 5.9 C 29 %
3242 11-01-2020 12:14:17 6.2 C 28 %
3243 11-01-2020 12:24:17 6.6 C 23 %
3244 11-01-2020 12:34:18 7 C 20 %
3245 11-01-2020 12:44:18 7 C 20 %
3246 11-01-2020 12:54:17 7.3 C 20 %
3247 11-01-2020 13:04:17 7.2 C 20 %
3248 11-01-2020 13:14:17 7.2 C 20 %
3249 11-01-2020 13:24:18 7 C 20 %
3250 11-01-2020 13:34:17 7 C 20 %
Sensor: Nr:Datum:Temp:Feuchte:
Aussen-T/F 3251 11-01-2020 13:44:17 6.9 C 20 %
3252 11-01-2020 13:54:17 6.8 C 20 %
3253 11-01-2020 14:04:17 6.9 C 20 %
3254 11-01-2020 14:14:18 6.8 C 20 %
3255 11-01-2020 14:24:17 6.8 C 20 %
3256 11-01-2020 14:34:18 6.7 C 20 %
3257 11-01-2020 14:44:18 6.7 C 20 %
3258 11-01-2020 14:54:17 6.6 C 20 %
3259 11-01-2020 15:04:17 6.6 C 20 %
3260 11-01-2020 15:14:17 6.5 C 20 %
3261 11-01-2020 15:24:18 6.6 C 20 %
3262 11-01-2020 15:34:17 6.4 C 20 %
3263 11-01-2020 15:44:17 6.4 C 20 %
3264 11-01-2020 15:54:17 6.6 C 20 %
3265 11-01-2020 16:04:18 6.4 C 20 %
3266 11-01-2020 16:14:18 6.2 C 20 %
3267 11-01-2020 16:24:17 6.2 C 20 %
3268 11-01-2020 16:34:41 6.1 C 20 %
3269 11-01-2020 16:44:41 6.1 C 20 %
3270 11-01-2020 16:54:17 6 C 20 %
3271 11-01-2020 17:04:18 5.9 C 20 %
3272 11-01-2020 17:14:18 5.8 C 20 %
3273 11-01-2020 17:24:17 5.7 C 20 %
3274 11-01-2020 17:34:18 5.2 C 20 %
3275 11-01-2020 17:44:18 5.3 C 20 %
Sensor: Nr:Datum:Temp:Feuchte:
Aussen-T/F 3276 11-01-2020 17:54:17 5 C 23 %
3277 11-01-2020 18:04:17 5.1 C 20 %
3278 11-01-2020 18:14:17 5 C 20 %
3279 11-01-2020 18:24:17 4.5 C 26 %
3280 11-01-2020 18:34:17 4.1 C 27 %
3281 11-01-2020 18:44:17 3.9 C 30 %
3282 11-01-2020 18:54:17 3.8 C 31 %
3283 11-01-2020 19:04:17 3.6 C 31 %
3284 11-01-2020 19:14:17 3 C 33 %
3285 11-01-2020 19:24:17 2.8 C 35 %
3286 11-01-2020 19:34:17 2.7 C 35 %
3287 11-01-2020 19:44:17 2.7 C 34 %
3288 11-01-2020 19:54:17 2.8 C 34 %
3289 11-01-2020 20:04:17 2.5 C 34 %
3290 11-01-2020 20:14:18 2.4 C 35 %
3291 11-01-2020 20:24:17 2.4 C 34 %
3292 11-01-2020 20:34:17 1.9 C 36 %
3293 11-01-2020 20:44:17 2.2 C 36 %
3294 11-01-2020 20:54:17 2.1 C 36 %
3295 11-01-2020 21:04:17 2.1 C 36 %
3296 11-01-2020 21:14:17 1.9 C 37 %
3297 11-01-2020 21:24:17 1.7 C 37 %
3298 11-01-2020 21:34:17 1.5 C 38 %
3299 11-01-2020 21:44:17 1.1 C 40 %
3300 11-01-2020 21:54:17 1.5 C 40 %
Sensor: Nr:Datum:Temp:Feuchte:
Aussen-T/F 3301 11-01-2020 22:04:17 1.3 C 40 %
3302 11-01-2020 22:14:18 1.1 C 40 %
3303 11-01-2020 22:24:17 0.9 C 42 %
3304 11-01-2020 22:34:17 0.8 C 43 %
3305 11-01-2020 22:44:17 1.2 C 41 %
3306 11-01-2020 22:54:17 0.9 C 41 %
3307 11-01-2020 23:04:17 0.9 C 42 %
3308 11-01-2020 23:14:17 1.7 C 39 %
3309 11-01-2020 23:24:17 1.2 C 38 %
3310 11-01-2020 23:34:17 0.8 C 41 %
3311 11-01-2020 23:44:17 0.5 C 42 %
3312 11-01-2020 23:54:17 0.5 C 43 %
3313 12-01-2020 00:04:17 0.7 C 44 %
3314 12-01-2020 00:14:17 1.1 C 42 %
3315 12-01-2020 00:24:17 0.8 C 41 %
3316 12-01-2020 00:34:17 1.3 C 40 %
3317 12-01-2020 00:44:17 0.7 C 41 %
3318 12-01-2020 00:54:17 0.7 C 42 %
3319 12-01-2020 01:04:17 0.7 C 42 %
3320 12-01-2020 01:14:17 0.8 C 43 %
3321 12-01-2020 01:24:17 1.1 C 42 %
3322 12-01-2020 01:34:17 0.8 C 41 %
3323 12-01-2020 01:44:17 1.2 C 40 %
3324 12-01-2020 01:54:17 1.8 C 39 %
3325 12-01-2020 02:04:17 1.7 C 37 %
Sensor: Nr:Datum:Temp:Feuchte:
Aussen-T/F 3326 12-01-2020 02:14:17 1.9 C 36 %
3327 12-01-2020 02:24:17 1.9 C 36 %
3328 12-01-2020 02:34:17 1.8 C 37 %
3329 12-01-2020 02:44:17 1.9 C 35 %
3330 12-01-2020 02:54:17 1.4 C 37 %
3331 12-01-2020 03:04:17 2.2 C 35 %
3332 12-01-2020 03:14:17 1.5 C 37 %
3333 12-01-2020 03:24:17 1.7 C 36 %
3334 12-01-2020 03:34:17 1.4 C 37 %
3335 12-01-2020 03:44:17 1 C 40 %
3336 12-01-2020 03:54:17 1.5 C 41 %
3337 12-01-2020 04:04:17 1.4 C 41 %
3338 12-01-2020 04:14:17 1.5 C 40 %
3339 12-01-2020 04:24:17 1.8 C 41 %
3340 12-01-2020 04:34:17 2.1 C 38 %
3341 12-01-2020 04:44:17 2.3 C 37 %
3342 12-01-2020 04:54:17 2.7 C 35 %
3343 12-01-2020 05:04:17 3 C 33 %
3344 12-01-2020 05:14:18 3.3 C 31 %
3345 12-01-2020 05:24:17 3.2 C 31 %
3346 12-01-2020 05:34:17 3.2 C 31 %
3347 12-01-2020 05:44:17 3.5 C 31 %
3348 12-01-2020 05:54:17 3.6 C 30 %
3349 12-01-2020 06:04:18 3.7 C 30 %
3350 12-01-2020 06:14:18 3.6 C 30 %
Sensor: Nr:Datum:Temp:Feuchte:
Aussen-T/F 3351 12-01-2020 06:24:17 3.6 C 30 %
3352 12-01-2020 06:34:17 3.7 C 30 %
3353 12-01-2020 06:44:17 3.6 C 30 %
3354 12-01-2020 06:54:17 3.7 C 30 %
3355 12-01-2020 07:04:17 3.7 C 30 %
3356 12-01-2020 07:14:17 4.1 C 29 %
3357 12-01-2020 07:24:17 3.7 C 30 %
3358 12-01-2020 07:34:17 3.7 C 30 %
3359 12-01-2020 07:44:17 3.8 C 29 %
3360 12-01-2020 07:54:17 3.8 C 29 %
3361 12-01-2020 08:04:18 3.7 C 29 %
3362 12-01-2020 08:14:18 3.7 C 29 %
3363 12-01-2020 08:24:17 3.7 C 29 %
3364 12-01-2020 08:34:17 4 C 28 %
3365 12-01-2020 08:44:17 4.2 C 27 %
3366 12-01-2020 08:54:17 4.2 C 27 %
3367 12-01-2020 09:04:17 4.2 C 27 %
3368 12-01-2020 09:14:17 4.2 C 27 %
3369 12-01-2020 09:24:17 4.3 C 27 %
3370 12-01-2020 09:34:17 4.5 C 26 %
3371 12-01-2020 09:44:17 4.7 C 26 %
3372 12-01-2020 09:54:17 4.7 C 26 %
3373 12-01-2020 10:04:17 4.8 C 26 %
3374 12-01-2020 10:14:17 4.8 C 26 %
3375 12-01-2020 10:24:17 4.9 C 25 %
Sensor: Nr:Datum:Temp:Feuchte:
Aussen-T/F 3376 12-01-2020 10:34:18 4.9 C 25 %
3377 12-01-2020 10:44:18 4.9 C 25 %
3378 12-01-2020 10:54:17 5 C 25 %
3379 12-01-2020 11:04:17 5.3 C 23 %
3380 12-01-2020 11:14:17 5.3 C 23 %
3381 12-01-2020 11:24:18 5.3 C 23 %
3382 12-01-2020 11:34:17 5.3 C 23 %
3383 12-01-2020 11:44:17 5.3 C 23 %
3384 12-01-2020 11:54:17 5.5 C 23 %
3385 12-01-2020 12:04:18 5.7 C 23 %
3386 12-01-2020 12:14:18 5.8 C 23 %
3387 12-01-2020 12:24:17 6.1 C 21 %
3388 12-01-2020 12:34:17 6.4 C 21 %
3389 12-01-2020 12:44:17 6.1 C 21 %
3390 12-01-2020 12:54:17 6.1 C 21 %
3391 12-01-2020 13:04:18 6.2 C 21 %
3392 12-01-2020 13:14:18 6.3 C 21 %
3393 12-01-2020 13:24:17 6.5 C 21 %
3394 12-01-2020 13:34:17 6.8 C 21 %
3395 12-01-2020 13:44:17 6.7 C 23 %
3396 12-01-2020 13:54:18 6.7 C 23 %
3397 12-01-2020 14:04:17 6.9 C 21 %
3398 12-01-2020 14:14:17 6.8 C 23 %
3399 12-01-2020 14:24:17 6.9 C 23 %
3400 12-01-2020 14:34:18 6.9 C 25 %
Sensor: Nr:Datum:Temp:Feuchte:
Aussen-T/F 3401 12-01-2020 14:44:18 6.8 C 25 %
3402 12-01-2020 14:54:17 6.8 C 25 %
3403 12-01-2020 15:04:17 6.7 C 25 %
3404 12-01-2020 15:14:17 6.8 C 25 %
3405 12-01-2020 15:24:18 6.8 C 25 %
3406 12-01-2020 15:34:17 6.8 C 25 %
3407 12-01-2020 15:44:17 6.7 C 25 %
3408 12-01-2020 15:54:17 6.6 C 25 %
3409 12-01-2020 16:04:18 6.7 C 25 %
3410 12-01-2020 16:14:18 6.5 C 25 %
3411 12-01-2020 16:24:18 6.3 C 26 %
3412 12-01-2020 16:34:17 6.3 C 27 %
3413 12-01-2020 16:44:17 6.1 C 27 %
3414 12-01-2020 16:54:17 6.1 C 27 %
3415 12-01-2020 17:04:18 6.1 C 27 %
3416 12-01-2020 17:14:18 6 C 27 %
3417 12-01-2020 17:24:17 6 C 28 %
3418 12-01-2020 17:34:17 6 C 28 %
3419 12-01-2020 17:44:17 5.9 C 29 %
3420 12-01-2020 17:54:18 5.7 C 30 %
3421 12-01-2020 18:04:18 5.4 C 30 %
3422 12-01-2020 18:14:18 5.5 C 30 %
3423 12-01-2020 18:24:17 5.4 C 30 %
3424 12-01-2020 18:34:17 5.6 C 30 %
3425 12-01-2020 18:44:17 5.6 C 30 %
Sensor: Nr:Datum:Temp:Feuchte:
Aussen-T/F 3426 12-01-2020 18:54:18 5.7 C 30 %
3427 12-01-2020 19:04:17 5 C 31 %
3428 12-01-2020 19:14:17 4.7 C 34 %
3429 12-01-2020 19:24:17 4.9 C 36 %
3430 12-01-2020 19:34:18 5.6 C 33 %
3431 12-01-2020 19:44:18 5.9 C 32 %
3432 12-01-2020 19:54:17 6 C 31 %
3433 12-01-2020 20:04:18 6 C 31 %
3434 12-01-2020 20:14:18 5.9 C 31 %
3435 12-01-2020 20:24:17 5.7 C 32 %
3436 12-01-2020 20:34:17 5.6 C 32 %
3437 12-01-2020 20:44:17 5.8 C 33 %
3438 12-01-2020 20:54:17 6 C 32 %
3439 12-01-2020 21:04:17 6.1 C 32 %
3440 12-01-2020 21:14:17 6.2 C 32 %
3441 12-01-2020 21:24:17 6.2 C 32 %
3442 12-01-2020 21:34:18 6.1 C 32 %
3443 12-01-2020 21:44:18 6.5 C 31 %
3444 12-01-2020 21:54:17 6.5 C 31 %
3445 12-01-2020 22:04:18 6.4 C 31 %
3446 12-01-2020 22:14:18 6.3 C 32 %
3447 12-01-2020 22:24:17 6 C 32 %
3448 12-01-2020 22:34:17 6.3 C 32 %
3449 12-01-2020 22:44:17 6.2 C 33 %
3450 12-01-2020 22:54:17 5.8 C 33 %
Sensor: Nr:Datum:Temp:Feuchte:
Aussen-T/F 3451 12-01-2020 23:04:17 5.6 C 36 %
3452 12-01-2020 23:14:17 5.2 C 35 %
3453 12-01-2020 23:24:17 5 C 39 %
3454 12-01-2020 23:34:18 6 C 35 %
3455 12-01-2020 23:44:18 5.7 C 33 %
3456 12-01-2020 23:54:17 5.9 C 34 %
3457 13-01-2020 00:04:18 6.3 C 32 %
3458 13-01-2020 00:14:18 5.9 C 33 %
3459 13-01-2020 00:24:17 6.4 C 32 %
3460 13-01-2020 00:34:17 6.5 C 32 %
3461 13-01-2020 00:44:17 6.7 C 31 %
3462 13-01-2020 00:54:18 6.4 C 32 %
3463 13-01-2020 01:04:17 6.1 C 36 %
3464 13-01-2020 01:14:17 5.9 C 37 %
3465 13-01-2020 01:24:17 5.7 C 40 %
3466 13-01-2020 01:34:18 5.6 C 41 %
3467 13-01-2020 01:44:18 5.6 C 42 %
3468 13-01-2020 01:54:17 5.7 C 40 %
3469 13-01-2020 02:04:17 5.9 C 39 %
3470 13-01-2020 02:14:17 5.9 C 38 %
3471 13-01-2020 02:24:18 6 C 36 %
3472 13-01-2020 02:34:17 5.7 C 37 %
3473 13-01-2020 02:44:17 5.9 C 37 %
3474 13-01-2020 02:54:17 5.6 C 39 %
3475 13-01-2020 03:04:18 5.6 C 40 %
Sensor: Nr:Datum:Temp:Feuchte:
Aussen-T/F 3476 13-01-2020 03:14:18 5.7 C 39 %
3477 13-01-2020 03:24:17 5.1 C 38 %
3478 13-01-2020 03:34:17 4.7 C 41 %
3479 13-01-2020 03:44:17 4 C 41 %
3480 13-01-2020 03:54:17 4.1 C 42 %
3481 13-01-2020 04:04:17 3.5 C 44 %
3482 13-01-2020 04:14:17 3.5 C 44 %
3483 13-01-2020 04:24:17 4 C 43 %
3484 13-01-2020 04:34:18 4.1 C 43 %
3485 13-01-2020 04:44:18 3.7 C 43 %
3486 13-01-2020 04:54:17 4 C 43 %
3487 13-01-2020 05:04:18 4.3 C 43 %
3488 13-01-2020 05:14:18 4.3 C 42 %
3489 13-01-2020 05:24:18 4.5 C 42 %
3490 13-01-2020 05:34:17 4.6 C 42 %
3491 13-01-2020 05:44:17 4.6 C 42 %
3492 13-01-2020 05:54:17 4.9 C 42 %
3493 13-01-2020 06:04:17 4.9 C 42 %
3494 13-01-2020 06:14:17 4.8 C 40 %
3495 13-01-2020 06:24:17 4.6 C 40 %
3496 13-01-2020 06:34:17 4.2 C 40 %
3497 13-01-2020 06:44:17 4.7 C 41 %
3498 13-01-2020 06:54:17 4.7 C 40 %
3499 13-01-2020 07:04:17 4.4 C 37 %
3500 13-01-2020 07:14:17 4.1 C 38 %
Sensor: Nr:Datum:Temp:Feuchte:
Aussen-T/F 3501 13-01-2020 07:24:18 4.2 C 39 %
3502 13-01-2020 07:34:17 3.9 C 41 %
3503 13-01-2020 07:44:17 3.9 C 42 %
3504 13-01-2020 07:54:17 3.8 C 42 %
3505 13-01-2020 08:04:18 3.9 C 42 %
3506 13-01-2020 08:14:18 4.3 C 40 %
3507 13-01-2020 08:24:17 4.2 C 40 %
3508 13-01-2020 08:34:17 4.7 C 40 %
3509 13-01-2020 08:44:17 4.8 C 38 %
3510 13-01-2020 08:54:17 4.9 C 38 %
3511 13-01-2020 09:04:17 5.2 C 36 %
3512 13-01-2020 09:14:17 5.4 C 35 %
3513 13-01-2020 09:24:17 5.6 C 34 %
3514 13-01-2020 09:34:18 5.7 C 33 %
3515 13-01-2020 09:44:18 5.8 C 33 %
3516 13-01-2020 09:54:18 5.9 C 33 %
3517 13-01-2020 10:04:17 5.9 C 34 %
3518 13-01-2020 10:14:17 6.2 C 32 %
3519 13-01-2020 10:24:17 6.4 C 32 %
3520 13-01-2020 10:34:18 6.7 C 31 %
3521 13-01-2020 10:44:18 6.8 C 31 %
3522 13-01-2020 10:54:17 6.8 C 31 %
3523 13-01-2020 11:04:17 6.9 C 31 %
3524 13-01-2020 11:14:17 7.1 C 30 %
3525 13-01-2020 11:24:17 7.5 C 29 %
Sensor: Nr:Datum:Temp:Feuchte:
Aussen-T/F 3526 13-01-2020 11:34:17 7.8 C 29 %
3527 13-01-2020 11:44:17 7.8 C 29 %
3528 13-01-2020 11:54:17 7.9 C 29 %
3529 13-01-2020 12:04:18 8 C 29 %
3530 13-01-2020 12:14:18 8 C 28 %
3531 13-01-2020 12:24:18 8.1 C 28 %
3532 13-01-2020 12:34:17 8.1 C 28 %
3533 13-01-2020 12:44:18 8.1 C 28 %
3534 13-01-2020 12:54:17 7.8 C 28 %
3535 13-01-2020 13:04:17 7.4 C 30 %
3536 13-01-2020 13:14:17 7.3 C 30 %
3537 13-01-2020 13:24:17 7.3 C 30 %
3538 13-01-2020 13:34:17 7.5 C 30 %
3539 13-01-2020 13:44:17 7.7 C 30 %
3540 13-01-2020 13:54:17 6.9 C 33 %
3541 13-01-2020 14:04:17 6.9 C 36 %
3542 13-01-2020 14:14:17 7 C 36 %
3543 13-01-2020 14:24:17 7.3 C 35 %
3544 13-01-2020 14:34:17 7.3 C 33 %
3545 13-01-2020 14:44:17 7.3 C 31 %
3546 13-01-2020 14:54:17 7 C 30 %
3547 13-01-2020 15:04:18 7.2 C 31 %
3548 13-01-2020 15:14:18 7.5 C 29 %
3549 13-01-2020 15:24:17 7.5 C 28 %
3550 13-01-2020 15:34:17 7.5 C 28 %
Sensor: Nr:Datum:Temp:Feuchte:
Aussen-T/F 3551 13-01-2020 15:44:17 7.4 C 28 %
3552 13-01-2020 15:54:17 7.4 C 27 %
3553 13-01-2020 16:04:17 7.2 C 29 %
3554 13-01-2020 16:14:17 7.1 C 28 %
3555 13-01-2020 16:24:17 7 C 29 %
3556 13-01-2020 16:34:17 6.9 C 30 %
3557 13-01-2020 16:44:17 6.6 C 30 %
3558 13-01-2020 16:54:17 6.7 C 30 %
3559 13-01-2020 17:04:18 6.6 C 31 %
3560 13-01-2020 17:14:18 6.5 C 30 %
3561 13-01-2020 17:24:17 6.2 C 31 %
3562 13-01-2020 17:34:18 5.8 C 32 %
3563 13-01-2020 17:44:18 5.4 C 33 %
3564 13-01-2020 17:54:17 5.3 C 35 %
3565 13-01-2020 18:04:17 5.3 C 36 %
3566 13-01-2020 18:14:17 5.3 C 36 %
3567 13-01-2020 18:24:18 5.6 C 35 %
3568 13-01-2020 18:34:17 5.7 C 34 %
3569 13-01-2020 18:44:17 5.6 C 34 %
3570 13-01-2020 18:54:17 5.3 C 35 %
3571 13-01-2020 19:04:18 5.5 C 35 %
3572 13-01-2020 19:14:18 5.8 C 34 %
3573 13-01-2020 19:24:17 5.9 C 33 %
3574 13-01-2020 19:34:17 6.2 C 31 %
3575 13-01-2020 19:44:17 6.1 C 32 %
Sensor: Nr:Datum:Temp:Feuchte:
Aussen-T/F 3576 13-01-2020 19:54:17 5.6 C 34 %
3577 13-01-2020 20:04:17 5.6 C 35 %
3578 13-01-2020 20:14:17 5.5 C 35 %
3579 13-01-2020 20:24:17 5.5 C 35 %
3580 13-01-2020 20:34:18 5.6 C 35 %
3581 13-01-2020 20:44:18 5.7 C 35 %
3582 13-01-2020 20:54:17 5.7 C 35 %
3583 13-01-2020 21:04:17 5.7 C 35 %
3584 13-01-2020 21:14:17 5.7 C 35 %
3585 13-01-2020 21:24:17 5.4 C 36 %
3586 13-01-2020 21:34:17 5.6 C 37 %
3587 13-01-2020 21:44:17 5.5 C 36 %
3588 13-01-2020 21:54:17 5.4 C 37 %
3589 13-01-2020 22:04:18 5.6 C 37 %
3590 13-01-2020 22:14:18 5.7 C 37 %
3591 13-01-2020 22:24:17 5.9 C 36 %
3592 13-01-2020 22:34:17 6 C 35 %
3593 13-01-2020 22:44:17 6.1 C 34 %
3594 13-01-2020 22:54:18 6.3 C 34 %
3595 13-01-2020 23:04:17 6.2 C 35 %
3596 13-01-2020 23:14:17 6 C 35 %
3597 13-01-2020 23:24:17 6 C 35 %
3598 13-01-2020 23:34:17 6.2 C 35 %
3599 13-01-2020 23:44:17 6.1 C 37 %
3600 13-01-2020 23:54:17 6.3 C 36 %
Sensor: Nr:Datum:Temp:Feuchte:
Aussen-T/F 3601 14-01-2020 00:04:18 6.4 C 36 %
3602 14-01-2020 00:14:18 6.5 C 35 %
3603 14-01-2020 00:24:18 6.7 C 35 %
3604 14-01-2020 00:34:17 6.5 C 35 %
3605 14-01-2020 00:44:17 6.6 C 35 %
3606 14-01-2020 00:54:17 6.5 C 35 %
3607 14-01-2020 01:04:18 6.3 C 36 %
3608 14-01-2020 01:14:18 6 C 36 %
3609 14-01-2020 01:24:17 5.8 C 38 %
3610 14-01-2020 01:34:17 5.6 C 40 %
3611 14-01-2020 01:44:17 6.1 C 37 %
3612 14-01-2020 01:54:17 6 C 36 %
3613 14-01-2020 02:04:17 6.2 C 35 %
3614 14-01-2020 02:14:17 6.5 C 33 %
3615 14-01-2020 02:24:17 6.5 C 32 %
3616 14-01-2020 02:34:18 6.4 C 32 %
3617 14-01-2020 02:44:18 6.3 C 33 %
3618 14-01-2020 02:54:17 6.4 C 32 %
3619 14-01-2020 03:04:17 6.5 C 32 %
3620 14-01-2020 03:14:17 6.7 C 32 %
3621 14-01-2020 03:24:17 6.6 C 31 %
3622 14-01-2020 03:34:17 6.5 C 31 %
3623 14-01-2020 03:44:17 6.7 C 30 %
3624 14-01-2020 03:54:17 7 C 30 %
3625 14-01-2020 04:04:18 7.1 C 30 %
Sensor: Nr:Datum:Temp:Feuchte:
Aussen-T/F 3626 14-01-2020 04:14:18 6.8 C 30 %
3627 14-01-2020 04:24:17 6.7 C 30 %
3628 14-01-2020 04:34:17 6.5 C 31 %
3629 14-01-2020 04:44:17 6.6 C 32 %
3630 14-01-2020 04:54:17 6.6 C 31 %
3631 14-01-2020 05:04:17 7.2 C 29 %
3632 14-01-2020 05:14:17 7.3 C 28 %
3633 14-01-2020 05:24:17 7.6 C 27 %
3634 14-01-2020 05:34:17 7.4 C 28 %
3635 14-01-2020 05:44:17 7.2 C 27 %
3636 14-01-2020 05:54:18 7.2 C 27 %
3637 14-01-2020 06:04:17 7.3 C 27 %
3638 14-01-2020 06:14:17 7.3 C 27 %
3639 14-01-2020 06:24:17 6.9 C 29 %
3640 14-01-2020 06:34:18 7 C 28 %
3641 14-01-2020 06:44:18 7.2 C 27 %
3642 14-01-2020 06:54:17 7.2 C 27 %
3643 14-01-2020 07:04:17 7.3 C 26 %
3644 14-01-2020 07:14:17 6.8 C 28 %
3645 14-01-2020 07:24:17 7 C 27 %
3646 14-01-2020 07:34:18 6.9 C 28 %
3647 14-01-2020 07:44:18 7.1 C 26 %
3648 14-01-2020 07:54:17 7.3 C 26 %
3649 14-01-2020 08:04:17 7.6 C 25 %
3650 14-01-2020 08:14:17 8 C 25 %
Sensor: Nr:Datum:Temp:Feuchte:
Aussen-T/F 3651 14-01-2020 08:24:17 7.9 C 25 %
3652 14-01-2020 08:34:17 7.9 C 25 %
3653 14-01-2020 08:44:17 7.9 C 25 %
3654 14-01-2020 08:54:18 8.1 C 25 %
3655 14-01-2020 09:04:18 8.5 C 23 %
3656 14-01-2020 09:14:18 8.3 C 25 %
3657 14-01-2020 09:24:17 8.6 C 25 %
3658 14-01-2020 09:34:17 8.4 C 25 %
3659 14-01-2020 09:44:17 8.7 C 25 %
3660 14-01-2020 09:54:17 8.9 C 25 %
3661 14-01-2020 10:04:18 9.4 C 21 %
3662 14-01-2020 10:14:18 9.5 C 20 %
3663 14-01-2020 10:24:18 9.2 C 20 %
3664 14-01-2020 10:34:18 9.1 C 20 %
3665 14-01-2020 10:44:18 9.1 C 21 %
3666 14-01-2020 10:54:17 9.2 C 20 %
3667 14-01-2020 11:04:17 9.4 C 20 %
3668 14-01-2020 11:14:17 9.5 C 20 %
3669 14-01-2020 11:24:17 9.8 C 20 %
3670 14-01-2020 11:34:18 9.9 C 20 %
3671 14-01-2020 11:44:18 9.9 C 20 %
3672 14-01-2020 11:54:17 9.7 C 20 %
3673 14-01-2020 12:04:17 9.8 C 20 %
3674 14-01-2020 12:14:17 9.8 C 20 %
3675 14-01-2020 12:24:17 10 C 20 %
Sensor: Nr:Datum:Temp:Feuchte:
Aussen-T/F 3676 14-01-2020 12:34:17 10.1 C 20 %
3677 14-01-2020 12:44:17 10.1 C 20 %
3678 14-01-2020 12:54:18 10.2 C 20 %
3679 14-01-2020 13:04:18 10.2 C 20 %
3680 14-01-2020 13:14:18 10.1 C 20 %
3681 14-01-2020 13:24:18 10.4 C 20 %
3682 14-01-2020 13:34:17 10.5 C 20 %
3683 14-01-2020 13:44:17 10.8 C 20 %
3684 14-01-2020 13:54:17 11.5 C 20 %
3685 14-01-2020 14:04:17 12 C 20 %
3686 14-01-2020 14:14:17 12.1 C 20 %
3687 14-01-2020 14:24:17 12.1 C 20 %
3688 14-01-2020 14:34:17 12 C 20 %
3689 14-01-2020 14:44:17 12 C 20 %
3690 14-01-2020 14:54:17 12 C 20 %
3691 14-01-2020 15:04:17 12.2 C 20 %
3692 14-01-2020 15:14:17 12.2 C 20 %
3693 14-01-2020 15:24:17 12.1 C 20 %
3694 14-01-2020 15:34:18 11.9 C 20 %
3695 14-01-2020 15:44:18 11.5 C 20 %
3696 14-01-2020 15:54:17 11.1 C 20 %
3697 14-01-2020 16:04:18 10.8 C 20 %
3698 14-01-2020 16:14:18 11.1 C 20 %
3699 14-01-2020 16:24:17 10.9 C 20 %
3700 14-01-2020 16:34:18 10.6 C 20 %
Sensor: Nr:Datum:Temp:Feuchte:
Aussen-T/F 3701 14-01-2020 16:44:18 10.7 C 20 %
3702 14-01-2020 16:54:17 10.8 C 20 %
3703 14-01-2020 17:04:17 10.7 C 20 %
3704 14-01-2020 17:14:18 10.7 C 20 %
3705 14-01-2020 17:24:17 10.6 C 20 %
3706 14-01-2020 17:34:17 10.6 C 20 %
3707 14-01-2020 17:44:17 11 C 20 %
3708 14-01-2020 17:54:18 10.7 C 20 %
3709 14-01-2020 18:04:17 10.7 C 20 %
3710 14-01-2020 18:14:17 10.9 C 20 %
3711 14-01-2020 18:24:17 10.4 C 20 %
3712 14-01-2020 18:34:18 10.5 C 20 %
3713 14-01-2020 18:44:18 10.8 C 20 %
3714 14-01-2020 18:54:17 11.1 C 20 %
3715 14-01-2020 19:04:17 11.2 C 20 %
3716 14-01-2020 19:14:17 11 C 20 %
3717 14-01-2020 19:24:17 10.9 C 20 %
3718 14-01-2020 19:34:17 10.9 C 20 %
3719 14-01-2020 19:44:17 11 C 20 %
3720 14-01-2020 19:54:17 10.7 C 20 %
3721 14-01-2020 20:04:18 10.8 C 20 %
3722 14-01-2020 20:14:18 10.8 C 20 %
3723 14-01-2020 20:24:18 11 C 20 %
3724 14-01-2020 20:34:17 11.5 C 20 %
3725 14-01-2020 20:44:17 11.5 C 20 %
Sensor: Nr:Datum:Temp:Feuchte:
Aussen-T/F 3726 14-01-2020 20:54:17 11.5 C 20 %
3727 14-01-2020 21:04:18 11.7 C 20 %
3728 14-01-2020 21:14:18 11.4 C 20 %
3729 14-01-2020 21:24:17 11.6 C 20 %
3730 14-01-2020 21:34:18 12.2 C 20 %
3731 14-01-2020 21:44:18 11.7 C 20 %
3732 14-01-2020 21:54:18 11.5 C 20 %
3733 14-01-2020 22:04:17 11.7 C 20 %
3734 14-01-2020 22:14:17 11.7 C 20 %
3735 14-01-2020 22:24:17 11.4 C 20 %
3736 14-01-2020 22:34:18 11.7 C 20 %
3737 14-01-2020 22:44:18 11.1 C 20 %
3738 14-01-2020 22:54:17 11.3 C 20 %
3739 14-01-2020 23:04:18 11.7 C 20 %
3740 14-01-2020 23:14:18 11.6 C 20 %
3741 14-01-2020 23:24:17 11.8 C 20 %
3742 14-01-2020 23:34:18 11.7 C 20 %
3743 14-01-2020 23:44:18 11.3 C 20 %
3744 14-01-2020 23:54:17 11.2 C 20 %
3745 15-01-2020 00:04:17 11.3 C 20 %
3746 15-01-2020 00:14:17 11.1 C 20 %
3747 15-01-2020 00:24:17 11.8 C 20 %
3748 15-01-2020 00:34:18 11.5 C 20 %
3749 15-01-2020 00:44:18 11.2 C 20 %
3750 15-01-2020 00:54:17 11.3 C 20 %
Sensor: Nr:Datum:Temp:Feuchte:
Aussen-T/F 3751 15-01-2020 01:04:17 11.3 C 20 %
3752 15-01-2020 01:14:17 11.1 C 20 %
3753 15-01-2020 01:24:17 10.8 C 20 %
3754 15-01-2020 01:34:18 10.9 C 20 %
3755 15-01-2020 01:44:18 11 C 20 %
3756 15-01-2020 01:54:17 10.8 C 20 %
3757 15-01-2020 02:04:18 10.3 C 20 %
3758 15-01-2020 02:14:18 10.2 C 20 %
3759 15-01-2020 02:24:18 10.2 C 20 %
3760 15-01-2020 02:34:17 10.2 C 20 %
3761 15-01-2020 02:44:17 10 C 20 %
3762 15-01-2020 02:54:17 9.8 C 20 %
3763 15-01-2020 03:04:18 9.6 C 23 %
3764 15-01-2020 03:14:18 9.9 C 23 %
3765 15-01-2020 03:24:17 10 C 21 %
3766 15-01-2020 03:34:17 9.4 C 25 %
3767 15-01-2020 03:44:17 9.3 C 26 %
3768 15-01-2020 03:54:17 9.2 C 27 %
3769 15-01-2020 04:04:18 9.1 C 27 %
3770 15-01-2020 04:14:18 9.1 C 27 %
3771 15-01-2020 04:24:17 9 C 27 %
3772 15-01-2020 04:34:17 8.7 C 29 %
3773 15-01-2020 04:44:17 8.5 C 28 %
3774 15-01-2020 04:54:17 8.2 C 28 %
3775 15-01-2020 05:04:17 8.3 C 28 %
Sensor: Nr:Datum:Temp:Feuchte:
Aussen-T/F 3776 15-01-2020 05:14:17 8.6 C 27 %
3777 15-01-2020 05:24:17 9.2 C 25 %
3778 15-01-2020 05:34:17 9.7 C 25 %
3779 15-01-2020 05:44:17 9.6 C 25 %
3780 15-01-2020 05:54:17 9.8 C 23 %
3781 15-01-2020 06:04:17 9.8 C 21 %
3782 15-01-2020 06:14:17 9.7 C 21 %
3783 15-01-2020 06:24:17 9.8 C 20 %
3784 15-01-2020 06:34:18 9.1 C 20 %
3785 15-01-2020 06:44:18 8.7 C 21 %
3786 15-01-2020 06:54:17 8 C 25 %
3787 15-01-2020 07:04:17 7.5 C 25 %
3788 15-01-2020 07:14:17 7.3 C 26 %
3789 15-01-2020 07:24:17 7 C 27 %
3790 15-01-2020 07:34:18 7 C 27 %
3791 15-01-2020 07:44:18 7 C 27 %
3792 15-01-2020 07:54:18 6.2 C 29 %
3793 15-01-2020 08:04:17 6 C 31 %
3794 15-01-2020 08:14:18 5.8 C 31 %
3795 15-01-2020 08:24:17 5.8 C 31 %
3796 15-01-2020 08:34:17 5.7 C 32 %
3797 15-01-2020 08:44:17 6.3 C 30 %
3798 15-01-2020 08:54:17 6.7 C 30 %
3799 15-01-2020 09:04:18 6.6 C 30 %
3800 15-01-2020 09:14:18 6.6 C 29 %
Sensor: Nr:Datum:Temp:Feuchte:
Aussen-T/F 3801 15-01-2020 09:24:17 6.9 C 29 %
3802 15-01-2020 09:34:18 6.6 C 29 %
3803 15-01-2020 09:44:18 6.8 C 30 %
3804 15-01-2020 09:54:18 7.1 C 28 %
3805 15-01-2020 10:04:18 7.5 C 27 %
3806 15-01-2020 10:14:18 7.6 C 27 %
3807 15-01-2020 10:24:17 7.7 C 27 %
3808 15-01-2020 10:34:18 7.3 C 27 %
3809 15-01-2020 10:44:18 7.4 C 27 %
3810 15-01-2020 10:54:17 8.3 C 27 %
3811 15-01-2020 11:04:17 9.1 C 25 %
3812 15-01-2020 11:14:17 9.7 C 20 %
3813 15-01-2020 11:24:17 10 C 20 %
3814 15-01-2020 11:34:17 10.9 C 20 %
3815 15-01-2020 11:44:17 10.9 C 20 %
3816 15-01-2020 11:54:17 11 C 20 %
3817 15-01-2020 12:04:18 11.2 C 20 %
3818 15-01-2020 12:14:18 11.6 C 20 %
3819 15-01-2020 12:24:17 11.6 C 20 %
3820 15-01-2020 12:34:18 11.5 C 20 %
3821 15-01-2020 12:44:18 11.1 C 20 %
3822 15-01-2020 12:54:18 11.6 C 20 %
3823 15-01-2020 13:04:18 12 C 20 %
3824 15-01-2020 13:14:18 12.2 C 20 %
3825 15-01-2020 13:24:18 12.5 C 20 %
Sensor: Nr:Datum:Temp:Feuchte:
Aussen-T/F 3826 15-01-2020 13:34:17 12.5 C 20 %
3827 15-01-2020 13:44:17 12.2 C 20 %
3828 15-01-2020 13:54:17 11.8 C 20 %
3829 15-01-2020 14:04:17 11.4 C 20 %
3830 15-01-2020 14:14:17 11.2 C 20 %
3831 15-01-2020 14:24:17 11.6 C 20 %
3832 15-01-2020 14:34:18 11.7 C 20 %
3833 15-01-2020 14:44:18 12 C 20 %
3834 15-01-2020 14:54:18 12.7 C 20 %
3835 15-01-2020 15:04:17 13.1 C 20 %
3836 15-01-2020 15:14:17 13.1 C 20 %
3837 15-01-2020 15:24:17 13.1 C 20 %
3838 15-01-2020 15:34:17 13.2 C 20 %
3839 15-01-2020 15:44:17 12.9 C 20 %
3840 15-01-2020 15:54:17 13.2 C 20 %
3841 15-01-2020 16:04:17 12.9 C 20 %
3842 15-01-2020 16:14:17 12.7 C 20 %
3843 15-01-2020 16:24:17 12.5 C 20 %
3844 15-01-2020 16:34:18 12.6 C 20 %
3845 15-01-2020 16:44:18 12.1 C 20 %
3846 15-01-2020 16:54:17 12 C 20 %
3847 15-01-2020 17:04:18 11.8 C 20 %
3848 15-01-2020 17:14:18 11.7 C 20 %
3849 15-01-2020 17:24:17 11.9 C 20 %
3850 15-01-2020 17:34:18 11.9 C 20 %
Sensor: Nr:Datum:Temp:Feuchte:
Aussen-T/F 3851 15-01-2020 17:44:18 11.4 C 20 %
3852 15-01-2020 17:54:18 11.2 C 20 %
3853 15-01-2020 18:04:17 11.2 C 20 %
3854 15-01-2020 18:14:17 11.2 C 20 %
3855 15-01-2020 18:24:17 11.2 C 20 %
3856 15-01-2020 18:34:17 11.8 C 20 %
3857 15-01-2020 18:44:17 11.9 C 20 %
3858 15-01-2020 18:54:17 12.2 C 20 %
3859 15-01-2020 19:04:18 12 C 20 %
3860 15-01-2020 19:14:18 12.2 C 20 %
3861 15-01-2020 19:24:18 12 C 20 %
3862 15-01-2020 19:34:17 12.5 C 20 %
3863 15-01-2020 19:44:17 12.9 C 20 %
3864 15-01-2020 19:54:18 12.9 C 20 %
3865 15-01-2020 20:04:17 13 C 20 %
3866 15-01-2020 20:14:18 12.8 C 20 %
3867 15-01-2020 20:24:17 12.7 C 20 %
3868 15-01-2020 20:34:17 12.5 C 20 %
3869 15-01-2020 20:44:17 12.7 C 20 %
3870 15-01-2020 20:54:17 12.6 C 20 %
3871 15-01-2020 21:04:18 12.7 C 20 %
3872 15-01-2020 21:14:18 12.8 C 20 %
3873 15-01-2020 21:24:18 12.5 C 20 %
3874 15-01-2020 21:34:17 12.4 C 20 %
3875 15-01-2020 21:44:17 10.8 C 25 %
Sensor: Nr:Datum:Temp:Feuchte:
Aussen-T/F 3876 15-01-2020 21:54:17 10.2 C 28 %
3877 15-01-2020 22:04:18 10.1 C 30 %
3878 15-01-2020 22:14:18 9.8 C 35 %
3879 15-01-2020 22:24:18 9.4 C 38 %
3880 15-01-2020 22:34:17 9.3 C 40 %
3881 15-01-2020 22:44:17 9.3 C 40 %
3882 15-01-2020 22:54:17 9.1 C 40 %
3883 15-01-2020 23:04:18 9.1 C 40 %
3884 15-01-2020 23:14:18 9.1 C 38 %
3885 15-01-2020 23:24:17 9.1 C 36 %
3886 15-01-2020 23:34:17 8.9 C 37 %
3887 15-01-2020 23:44:17 8.6 C 36 %
3888 15-01-2020 23:54:17 8.4 C 37 %
3889 16-01-2020 00:04:17 8.7 C 34 %
3890 16-01-2020 00:14:17 8.4 C 36 %
3891 16-01-2020 00:24:17 9.2 C 33 %
3892 16-01-2020 00:34:17 8.6 C 36 %
3893 16-01-2020 00:44:17 8.7 C 37 %
3894 16-01-2020 00:54:18 8.8 C 37 %
3895 16-01-2020 01:04:17 8.9 C 37 %
3896 16-01-2020 01:14:17 9 C 36 %
3897 16-01-2020 01:24:17 9.1 C 35 %
3898 16-01-2020 01:34:18 9 C 36 %
3899 16-01-2020 01:44:18 8.9 C 37 %
3900 16-01-2020 01:54:17 8.6 C 38 %
Sensor: Nr:Datum:Temp:Feuchte:
Aussen-T/F 3901 16-01-2020 02:04:17 8.6 C 40 %
3902 16-01-2020 02:14:17 8.6 C 39 %
3903 16-01-2020 02:24:17 8.8 C 37 %
3904 16-01-2020 02:34:17 8.7 C 38 %
3905 16-01-2020 02:44:18 8.6 C 42 %
3906 16-01-2020 02:54:17 8.7 C 42 %
3907 16-01-2020 03:04:18 8.6 C 42 %
3908 16-01-2020 03:14:18 8.6 C 42 %
3909 16-01-2020 03:24:18 8.7 C 43 %
3910 16-01-2020 03:34:17 8.6 C 42 %
3911 16-01-2020 03:44:17 8.6 C 42 %
3912 16-01-2020 03:54:17 8.7 C 42 %
3913 16-01-2020 04:04:18 8.7 C 42 %
3914 16-01-2020 04:14:18 8.6 C 42 %
3915 16-01-2020 04:24:17 8.6 C 42 %
3916 16-01-2020 04:34:18 8.4 C 42 %
3917 16-01-2020 04:44:18 8.2 C 42 %
3918 16-01-2020 04:54:17 8.2 C 42 %
3919 16-01-2020 05:04:17 8.3 C 42 %
3920 16-01-2020 05:14:17 8.1 C 42 %
3921 16-01-2020 05:24:17 8.1 C 42 %
3922 16-01-2020 05:34:17 7.7 C 42 %
3923 16-01-2020 05:44:17 7.1 C 42 %
3924 16-01-2020 05:54:17 7.9 C 42 %
3925 16-01-2020 06:04:17 8 C 42 %
Sensor: Nr:Datum:Temp:Feuchte:
Aussen-T/F 3926 16-01-2020 06:14:17 7.6 C 42 %
3927 16-01-2020 06:24:17 7.2 C 41 %
3928 16-01-2020 06:34:18 7.1 C 42 %
3929 16-01-2020 06:44:18 7.3 C 42 %
3930 16-01-2020 06:54:17 6.8 C 42 %
3931 16-01-2020 07:04:17 6.2 C 41 %
3932 16-01-2020 07:14:17 5.6 C 42 %
3933 16-01-2020 07:24:17 6 C 42 %
3934 16-01-2020 07:34:18 6.7 C 43 %
3935 16-01-2020 07:44:18 6.9 C 42 %
3936 16-01-2020 07:54:17 6.9 C 42 %
3937 16-01-2020 08:04:17 6.7 C 42 %
3938 16-01-2020 08:14:17 6.4 C 42 %
3939 16-01-2020 08:24:17 5.9 C 42 %
3940 16-01-2020 08:34:17 5.9 C 42 %
3941 16-01-2020 08:44:17 5.6 C 42 %
3942 16-01-2020 08:54:18 5.4 C 42 %
3943 16-01-2020 09:04:17 5.2 C 42 %
3944 16-01-2020 09:14:17 5.2 C 42 %
3945 16-01-2020 09:24:17 5.6 C 42 %
3946 16-01-2020 09:34:17 5.4 C 42 %
3947 16-01-2020 09:44:17 5.7 C 42 %
3948 16-01-2020 09:54:17 6.3 C 42 %
3949 16-01-2020 10:04:17 6.5 C 42 %
3950 16-01-2020 10:14:17 6.5 C 42 %
Sensor: Nr:Datum:Temp:Feuchte:
Aussen-T/F 3951 16-01-2020 10:24:17 6.7 C 42 %
3952 16-01-2020 10:34:17 6.9 C 42 %
3953 16-01-2020 10:44:17 6.8 C 42 %
3954 16-01-2020 10:54:18 7.1 C 41 %
3955 16-01-2020 11:04:17 6.9 C 41 %
3956 16-01-2020 11:14:17 6.7 C 41 %
3957 16-01-2020 11:24:17 6.8 C 41 %
3958 16-01-2020 11:34:17 6.9 C 41 %
3959 16-01-2020 11:44:17 6.8 C 41 %
3960 16-01-2020 11:54:17 6.8 C 41 %
3961 16-01-2020 12:04:18 6.7 C 41 %
3962 16-01-2020 12:14:18 6.5 C 41 %
3963 16-01-2020 12:24:17 6.3 C 41 %
3964 16-01-2020 12:34:17 6.4 C 41 %
3965 16-01-2020 12:44:18 6.7 C 41 %
3966 16-01-2020 12:54:17 7.5 C 41 %
3967 16-01-2020 13:04:18 7.5 C 41 %
3968 16-01-2020 13:14:18 7.7 C 41 %
3969 16-01-2020 13:24:17 7.6 C 40 %
3970 16-01-2020 13:34:17 7.8 C 40 %
3971 16-01-2020 13:44:17 7.8 C 40 %
3972 16-01-2020 13:54:18 7.9 C 40 %
3973 16-01-2020 14:04:17 8.1 C 38 %
3974 16-01-2020 14:14:17 8.3 C 37 %
3975 16-01-2020 14:24:17 9 C 36 %
Sensor: Nr:Datum:Temp:Feuchte:
Aussen-T/F 3976 16-01-2020 14:34:17 9.1 C 36 %
3977 16-01-2020 14:44:17 8.9 C 35 %
3978 16-01-2020 14:54:17 8.7 C 35 %
3979 16-01-2020 15:04:17 8.9 C 35 %
3980 16-01-2020 15:14:17 8.6 C 35 %
3981 16-01-2020 15:24:17 8.5 C 35 %
3982 16-01-2020 15:34:18 8.4 C 35 %
3983 16-01-2020 15:44:18 8.4 C 35 %
3984 16-01-2020 15:54:17 8 C 35 %
3985 16-01-2020 16:04:17 7.6 C 37 %
3986 16-01-2020 16:14:17 7.5 C 37 %
3987 16-01-2020 16:24:17 7.5 C 37 %
3988 16-01-2020 16:34:17 7.1 C 37 %
3989 16-01-2020 16:44:17 7.5 C 39 %
3990 16-01-2020 16:54:18 7.1 C 38 %
3991 16-01-2020 17:04:17 6.8 C 40 %
3992 16-01-2020 17:14:17 7 C 40 %
3993 16-01-2020 17:24:17 6.9 C 40 %
3994 16-01-2020 17:34:18 6.9 C 40 %
3995 16-01-2020 17:44:18 7 C 40 %
3996 16-01-2020 17:54:17 6.5 C 40 %
3997 16-01-2020 18:04:17 6.3 C 40 %
3998 16-01-2020 18:14:17 6.5 C 41 %
3999 16-01-2020 18:24:17 6.5 C 41 %
4000 16-01-2020 18:34:17 6.5 C 41 %
Sensor: Nr:Datum:Temp:Feuchte:
Aussen-T/F 4001 16-01-2020 18:44:17 5.9 C 41 %
4002 16-01-2020 18:54:18 5.9 C 42 %
4003 16-01-2020 19:04:17 6.1 C 42 %
4004 16-01-2020 19:14:17 6.2 C 43 %
4005 16-01-2020 19:24:17 5.4 C 42 %
4006 16-01-2020 19:34:17 5.3 C 43 %
4007 16-01-2020 19:44:17 5.3 C 43 %
4008 16-01-2020 19:54:17 5.2 C 43 %
4009 16-01-2020 20:04:18 5.3 C 43 %
4010 16-01-2020 20:14:18 5.4 C 43 %
4011 16-01-2020 20:24:18 5.7 C 43 %
4012 16-01-2020 20:34:17 5.9 C 42 %
4013 16-01-2020 20:44:17 5.7 C 40 %
4014 16-01-2020 20:54:17 5.4 C 41 %
4015 16-01-2020 21:04:18 5.9 C 42 %
4016 16-01-2020 21:14:18 5.3 C 41 %
4017 16-01-2020 21:24:18 5.6 C 42 %
4018 16-01-2020 21:34:18 5.1 C 41 %
4019 16-01-2020 21:44:18 5 C 42 %
4020 16-01-2020 21:54:17 4.7 C 42 %
4021 16-01-2020 22:04:17 5.2 C 42 %
4022 16-01-2020 22:14:17 5 C 42 %
4023 16-01-2020 22:24:18 5 C 42 %
4024 16-01-2020 22:34:18 5.1 C 42 %
4025 16-01-2020 22:44:18 5.5 C 42 %
Sensor: Nr:Datum:Temp:Feuchte:
Aussen-T/F 4026 16-01-2020 22:54:17 5.1 C 40 %
4027 16-01-2020 23:04:17 5 C 41 %
4028 16-01-2020 23:14:17 5.6 C 41 %
4029 16-01-2020 23:24:17 6.8 C 36 %
4030 16-01-2020 23:34:17 7 C 34 %
4031 16-01-2020 23:44:17 6.4 C 35 %
4032 16-01-2020 23:54:17 5.8 C 36 %
4033 17-01-2020 00:04:17 5.6 C 37 %
4034 17-01-2020 00:14:17 5.3 C 39 %
4035 17-01-2020 00:24:17 5.7 C 40 %
4036 17-01-2020 00:34:18 5.2 C 40 %
4037 17-01-2020 00:44:18 5 C 40 %
4038 17-01-2020 00:54:17 5.1 C 41 %
4039 17-01-2020 01:04:17 5.2 C 41 %
4040 17-01-2020 01:14:17 5 C 41 %
4041 17-01-2020 01:24:17 4.9 C 42 %
4042 17-01-2020 01:34:18 4.8 C 42 %
4043 17-01-2020 01:44:18 4.6 C 41 %
4044 17-01-2020 01:54:17 4.6 C 41 %
4045 17-01-2020 02:04:17 5.5 C 41 %
4046 17-01-2020 02:14:17 4.2 C 39 %
4047 17-01-2020 02:24:17 4 C 40 %
4048 17-01-2020 02:34:18 4 C 43 %
4049 17-01-2020 02:44:18 3.7 C 44 %
4050 17-01-2020 02:54:17 3.9 C 45 %
Sensor: Nr:Datum:Temp:Feuchte:
Aussen-T/F 4051 17-01-2020 03:04:17 3.8 C 44 %
4052 17-01-2020 03:14:17 3.8 C 44 %
4053 17-01-2020 03:24:17 3.7 C 45 %
4054 17-01-2020 03:34:18 3.8 C 45 %
4055 17-01-2020 03:44:18 3.4 C 44 %
4056 17-01-2020 03:54:17 3.6 C 44 %
4057 17-01-2020 04:04:18 3.4 C 44 %
4058 17-01-2020 04:14:18 3.4 C 44 %
4059 17-01-2020 04:24:18 3.5 C 44 %
4060 17-01-2020 04:34:17 3.5 C 44 %
4061 17-01-2020 04:44:17 3.2 C 44 %
4062 17-01-2020 04:54:17 3 C 43 %
4063 17-01-2020 05:04:18 2.9 C 45 %
4064 17-01-2020 05:14:18 2.8 C 45 %
4065 17-01-2020 05:24:17 2.7 C 45 %
4066 17-01-2020 05:34:17 2.5 C 45 %
4067 17-01-2020 05:44:17 2.3 C 45 %
4068 17-01-2020 05:54:17 2.4 C 45 %
4069 17-01-2020 06:04:17 2.1 C 45 %
4070 17-01-2020 06:14:17 2 C 45 %
4071 17-01-2020 06:24:17 1.8 C 45 %
4072 17-01-2020 06:34:17 1.8 C 45 %
4073 17-01-2020 06:44:17 1.8 C 46 %
4074 17-01-2020 06:54:17 1.7 C 45 %
4075 17-01-2020 07:04:18 1.8 C 45 %
Sensor: Nr:Datum:Temp:Feuchte:
Aussen-T/F 4076 17-01-2020 07:14:18 1.5 C 45 %
4077 17-01-2020 07:24:17 1.3 C 45 %
4078 17-01-2020 07:34:17 1.2 C 45 %
4079 17-01-2020 07:44:17 1.4 C 45 %
4080 17-01-2020 07:54:17 1.6 C 46 %
4081 17-01-2020 08:04:18 1.9 C 46 %
4082 17-01-2020 08:14:18 2.2 C 45 %
4083 17-01-2020 08:24:17 2 C 45 %
4084 17-01-2020 08:34:17 2.2 C 45 %
4085 17-01-2020 08:44:17 2.3 C 45 %
4086 17-01-2020 08:54:18 2.3 C 45 %
4087 17-01-2020 09:04:17 2.4 C 45 %
4088 17-01-2020 09:14:17 2.2 C 44 %
4089 17-01-2020 09:24:17 2 C 44 %
4090 17-01-2020 09:34:17 2.1 C 44 %
4091 17-01-2020 09:44:17 2.9 C 45 %
4092 17-01-2020 09:54:17 3 C 44 %
4093 17-01-2020 10:04:17 3.1 C 44 %
4094 17-01-2020 10:14:17 3.4 C 44 %
4095 17-01-2020 10:24:17 3.5 C 44 %
4096 17-01-2020 10:34:18 3.7 C 44 %
4097 17-01-2020 10:44:18 4 C 43 %
4098 17-01-2020 10:54:17 4.1 C 42 %
4099 17-01-2020 11:04:17 4.4 C 42 %
4100 17-01-2020 11:14:17 4.4 C 41 %
Sensor: Nr:Datum:Temp:Feuchte:
Aussen-T/F 4101 17-01-2020 11:24:17 4.6 C 42 %
4102 17-01-2020 11:34:18 5.8 C 42 %
4103 17-01-2020 11:44:18 6 C 40 %
4104 17-01-2020 11:54:17 6.3 C 37 %
4105 17-01-2020 12:04:17 6.7 C 36 %
4106 17-01-2020 12:14:17 6.8 C 36 %
4107 17-01-2020 12:24:17 7 C 35 %
4108 17-01-2020 12:34:17 7.2 C 36 %
4109 17-01-2020 12:44:17 7.3 C 35 %
4110 17-01-2020 12:54:17 7.3 C 35 %
4111 17-01-2020 13:04:18 7.3 C 35 %
4112 17-01-2020 13:14:18 7.7 C 34 %
4113 17-01-2020 13:24:18 8.6 C 33 %
4114 17-01-2020 13:34:18 8.9 C 32 %
4115 17-01-2020 13:44:18 9.3 C 31 %
4116 17-01-2020 13:54:17 9 C 31 %
4117 17-01-2020 14:04:17 9.2 C 31 %
4118 17-01-2020 14:14:17 9.3 C 31 %
4119 17-01-2020 14:24:17 9.3 C 31 %
4120 17-01-2020 14:34:17 9.1 C 31 %
4121 17-01-2020 14:44:17 8.8 C 33 %
4122 17-01-2020 14:54:17 8.6 C 35 %
4123 17-01-2020 15:04:17 8.5 C 35 %
4124 17-01-2020 15:14:17 8.3 C 36 %
4125 17-01-2020 15:24:17 8.3 C 36 %
Sensor: Nr:Datum:Temp:Feuchte:
Aussen-T/F 4126 17-01-2020 15:34:18 8.2 C 36 %
4127 17-01-2020 15:44:18 8.1 C 38 %
4128 17-01-2020 15:54:17 8.1 C 37 %
4129 17-01-2020 16:04:18 8 C 37 %
4130 17-01-2020 16:14:18 8 C 37 %
4131 17-01-2020 16:24:17 8.1 C 36 %
4132 17-01-2020 16:34:17 8.1 C 37 %
4133 17-01-2020 16:44:17 7.9 C 37 %
4134 17-01-2020 16:54:17 7.8 C 38 %
4135 17-01-2020 17:04:17 7.9 C 38 %
4136 17-01-2020 17:14:17 8.5 C 35 %
4137 17-01-2020 17:24:17 8.5 C 35 %
4138 17-01-2020 17:34:17 8.4 C 34 %
4139 17-01-2020 17:44:17 8.2 C 35 %
4140 17-01-2020 17:54:17 8.5 C 34 %
4141 17-01-2020 18:04:17 8.7 C 32 %
4142 17-01-2020 18:14:18 8.5 C 33 %
4143 17-01-2020 18:24:18 8.4 C 33 %
4144 17-01-2020 18:34:18 8.3 C 33 %
4145 17-01-2020 18:44:18 8.3 C 34 %
4146 17-01-2020 18:54:18 7.8 C 35 %
4147 17-01-2020 19:04:17 7.1 C 36 %
4148 17-01-2020 19:14:17 7.6 C 35 %
4149 17-01-2020 19:24:17 6.3 C 37 %
4150 17-01-2020 19:34:17 5.9 C 40 %
Sensor: Nr:Datum:Temp:Feuchte:
Aussen-T/F 4151 17-01-2020 19:44:17 5.9 C 41 %
4152 17-01-2020 19:54:17 5.9 C 42 %
4153 17-01-2020 20:04:17 6 C 42 %
4154 17-01-2020 20:14:17 6.3 C 42 %
4155 17-01-2020 20:24:17 6.6 C 40 %
4156 17-01-2020 20:34:17 7.9 C 32 %
4157 17-01-2020 20:44:17 7.7 C 31 %
4158 17-01-2020 20:54:18 7.9 C 31 %
4159 17-01-2020 21:04:17 7.8 C 30 %
4160 17-01-2020 21:14:17 7.4 C 31 %
4161 17-01-2020 21:24:17 6.9 C 31 %
4162 17-01-2020 21:34:17 6.7 C 31 %
4163 17-01-2020 21:44:17 6.8 C 31 %
4164 17-01-2020 21:54:18 6.3 C 31 %
4165 17-01-2020 22:04:17 5.8 C 31 %
4166 17-01-2020 22:14:17 5 C 32 %
4167 17-01-2020 22:24:17 4.4 C 35 %
4168 17-01-2020 22:34:18 4.2 C 36 %
4169 17-01-2020 22:44:18 4.2 C 35 %
4170 17-01-2020 22:54:17 3.9 C 37 %
4171 17-01-2020 23:04:17 4 C 37 %
4172 17-01-2020 23:14:17 3.3 C 39 %
4173 17-01-2020 23:24:17 3.6 C 39 %
4174 17-01-2020 23:34:18 3.6 C 39 %
4175 17-01-2020 23:44:18 3.1 C 38 %
Sensor: Nr:Datum:Temp:Feuchte:
Aussen-T/F 4176 17-01-2020 23:54:17 2.6 C 40 %
Sensor: Nr:Datum:Temp:Feuchte:
G-T/H 1 20-12-2019 00:02:17 9.7 C 75 %
2 20-12-2019 00:12:17 9.7 C 75 %
3 20-12-2019 00:22:17 9.7 C 75 %
4 20-12-2019 00:32:17 9.6 C 75 %
5 20-12-2019 00:42:17 9.6 C 75 %
6 20-12-2019 00:52:17 9.6 C 75 %
7 20-12-2019 01:02:17 9.6 C 75 %
8 20-12-2019 01:12:17 9.6 C 75 %
9 20-12-2019 01:22:17 9.6 C 75 %
10 20-12-2019 01:32:17 9.6 C 75 %
11 20-12-2019 01:42:17 9.6 C 75 %
12 20-12-2019 01:52:17 9.7 C 74 %
13 20-12-2019 02:02:17 9.6 C 74 %
14 20-12-2019 02:12:17 9.6 C 74 %
15 20-12-2019 02:22:17 9.6 C 74 %
16 20-12-2019 02:32:18 9.6 C 74 %
17 20-12-2019 02:42:18 9.6 C 74 %
18 20-12-2019 02:52:17 9.6 C 74 %
19 20-12-2019 03:02:17 9.6 C 74 %
20 20-12-2019 03:12:17 9.6 C 74 %
21 20-12-2019 03:22:17 9.6 C 74 %
22 20-12-2019 03:32:17 9.6 C 74 %
23 20-12-2019 03:42:17 9.6 C 74 %
24 20-12-2019 03:52:17 9.6 C 74 %
25 20-12-2019 04:02:17 9.6 C 74 %
Sensor: Nr:Datum:Temp:Feuchte:
G-T/H 26 20-12-2019 04:12:17 9.5 C 74 %
27 20-12-2019 04:22:17 9.6 C 74 %
28 20-12-2019 04:32:18 9.6 C 74 %
29 20-12-2019 04:42:18 9.6 C 74 %
30 20-12-2019 04:52:17 9.6 C 74 %
31 20-12-2019 05:02:17 9.6 C 74 %
32 20-12-2019 05:12:17 9.6 C 74 %
33 20-12-2019 05:22:17 9.6 C 74 %
34 20-12-2019 05:32:17 9.5 C 74 %
35 20-12-2019 05:42:17 9.5 C 74 %
36 20-12-2019 05:52:18 9.5 C 74 %
37 20-12-2019 06:02:18 9.5 C 74 %
38 20-12-2019 06:12:18 9.5 C 74 %
39 20-12-2019 06:22:17 9.5 C 74 %
40 20-12-2019 06:32:17 9.5 C 74 %
41 20-12-2019 06:42:17 9.5 C 74 %
42 20-12-2019 06:52:17 9.6 C 74 %
43 20-12-2019 07:02:17 9.5 C 74 %
44 20-12-2019 07:12:17 9.6 C 74 %
45 20-12-2019 07:22:17 9.5 C 74 %
46 20-12-2019 07:32:17 9.5 C 74 %
47 20-12-2019 07:42:17 9.5 C 74 %
48 20-12-2019 07:52:17 9.5 C 74 %
49 20-12-2019 08:02:17 9.5 C 74 %
50 20-12-2019 08:12:17 9.5 C 74 %
Sensor: Nr:Datum:Temp:Feuchte:
G-T/H 51 20-12-2019 08:22:17 9.5 C 74 %
52 20-12-2019 08:32:18 9.5 C 75 %
53 20-12-2019 08:42:18 9.5 C 75 %
54 20-12-2019 08:52:17 9.5 C 75 %
55 20-12-2019 09:02:17 9.5 C 75 %
56 20-12-2019 09:12:17 9.5 C 75 %
57 20-12-2019 09:22:17 9.5 C 75 %
58 20-12-2019 09:32:17 9.5 C 75 %
59 20-12-2019 09:42:17 9.6 C 75 %
60 20-12-2019 09:52:17 9.5 C 75 %
61 20-12-2019 10:02:17 9.6 C 75 %
62 20-12-2019 10:12:17 9.5 C 75 %
63 20-12-2019 10:22:17 9.5 C 75 %
64 20-12-2019 10:32:17 9.5 C 75 %
65 20-12-2019 10:42:17 9.5 C 75 %
66 20-12-2019 10:52:17 9.6 C 75 %
67 20-12-2019 11:02:17 9.6 C 75 %
68 20-12-2019 11:12:17 9.6 C 75 %
69 20-12-2019 11:22:17 9.5 C 75 %
70 20-12-2019 11:32:17 9.6 C 75 %
71 20-12-2019 11:42:17 9.6 C 75 %
72 20-12-2019 11:52:17 9.6 C 75 %
73 20-12-2019 12:02:18 9.6 C 75 %
74 20-12-2019 12:12:18 9.5 C 75 %
75 20-12-2019 12:22:18 9.5 C 75 %
Sensor: Nr:Datum:Temp:Feuchte:
G-T/H 76 20-12-2019 12:32:17 9.5 C 75 %
77 20-12-2019 12:42:18 9.6 C 75 %
78 20-12-2019 12:52:17 9.6 C 75 %
79 20-12-2019 13:02:18 9.6 C 75 %
80 20-12-2019 13:12:18 9.6 C 75 %
81 20-12-2019 13:22:17 9.6 C 75 %
82 20-12-2019 13:32:17 9.6 C 75 %
83 20-12-2019 13:42:17 9.6 C 75 %
84 20-12-2019 13:52:17 9.6 C 75 %
85 20-12-2019 14:02:17 9.6 C 75 %
86 20-12-2019 14:12:17 9.6 C 76 %
87 20-12-2019 14:22:17 9.6 C 76 %
88 20-12-2019 14:32:17 9.7 C 76 %
89 20-12-2019 14:42:17 9.6 C 76 %
90 20-12-2019 14:52:18 9.7 C 76 %
91 20-12-2019 15:02:17 9.7 C 76 %
92 20-12-2019 15:12:17 9.7 C 76 %
93 20-12-2019 15:22:17 9.7 C 76 %
94 20-12-2019 15:32:17 9.7 C 76 %
95 20-12-2019 15:42:17 9.7 C 76 %
96 20-12-2019 15:52:17 9.7 C 76 %
97 20-12-2019 16:02:17 9.7 C 76 %
98 20-12-2019 16:12:18 9.7 C 76 %
99 20-12-2019 16:22:17 9.7 C 76 %
100 20-12-2019 16:32:17 9.7 C 76 %
Sensor: Nr:Datum:Temp:Feuchte:
G-T/H 101 20-12-2019 16:42:17 9.7 C 76 %
102 20-12-2019 16:52:18 9.8 C 76 %
103 20-12-2019 17:02:17 9.8 C 76 %
104 20-12-2019 17:12:18 9.8 C 76 %
105 20-12-2019 17:22:17 9.8 C 76 %
106 20-12-2019 17:32:17 9.8 C 76 %
107 20-12-2019 17:42:17 9.8 C 76 %
108 20-12-2019 17:52:18 9.8 C 76 %
109 20-12-2019 18:02:17 9.8 C 76 %
110 20-12-2019 18:12:17 9.8 C 76 %
111 20-12-2019 18:22:17 9.9 C 76 %
112 20-12-2019 18:32:17 9.8 C 76 %
113 20-12-2019 18:42:17 9.9 C 76 %
114 20-12-2019 18:52:18 9.9 C 76 %
115 20-12-2019 19:02:17 9.9 C 76 %
116 20-12-2019 19:12:17 9.9 C 76 %
117 20-12-2019 19:22:17 9.9 C 77 %
118 20-12-2019 19:32:17 9.9 C 77 %
119 20-12-2019 19:42:17 9.9 C 77 %
120 20-12-2019 19:52:18 9.9 C 77 %
121 20-12-2019 20:02:18 10 C 75 %
122 20-12-2019 20:12:18 9.9 C 77 %
123 20-12-2019 20:22:17 9.9 C 77 %
124 20-12-2019 20:32:18 10 C 75 %
125 20-12-2019 20:42:18 10 C 75 %
Sensor: Nr:Datum:Temp:Feuchte:
G-T/H 126 20-12-2019 20:52:17 10 C 75 %
127 20-12-2019 21:02:18 10 C 75 %
128 20-12-2019 21:12:18 10 C 75 %
129 20-12-2019 21:22:17 10 C 75 %
130 20-12-2019 21:32:17 10 C 75 %
131 20-12-2019 21:42:17 10 C 75 %
132 20-12-2019 21:52:17 10 C 75 %
133 20-12-2019 22:02:17 10 C 75 %
134 20-12-2019 22:12:17 10.1 C 75 %
135 20-12-2019 22:22:17 10.1 C 75 %
136 20-12-2019 22:32:17 10.1 C 75 %
137 20-12-2019 22:42:17 10.1 C 75 %
138 20-12-2019 22:52:17 10.1 C 75 %
139 20-12-2019 23:02:17 10.1 C 75 %
140 20-12-2019 23:12:17 10 C 75 %
141 20-12-2019 23:22:17 10.1 C 75 %
142 20-12-2019 23:32:17 10.1 C 75 %
143 20-12-2019 23:42:17 10.1 C 75 %
144 20-12-2019 23:52:18 10.1 C 75 %
145 21-12-2019 00:02:17 10.1 C 75 %
146 21-12-2019 00:12:17 10.1 C 75 %
147 21-12-2019 00:22:17 10.1 C 75 %
148 21-12-2019 00:32:17 10.1 C 75 %
149 21-12-2019 00:42:17 10.1 C 75 %
150 21-12-2019 00:52:18 10.1 C 75 %
Sensor: Nr:Datum:Temp:Feuchte:
G-T/H 151 21-12-2019 01:02:17 10.1 C 75 %
152 21-12-2019 01:12:17 10.1 C 75 %
153 21-12-2019 01:22:17 10.1 C 75 %
154 21-12-2019 01:32:17 10.1 C 75 %
155 21-12-2019 01:42:17 10.1 C 75 %
156 21-12-2019 01:52:17 10.1 C 75 %
157 21-12-2019 02:02:17 10.1 C 75 %
158 21-12-2019 02:12:17 10.1 C 75 %
159 21-12-2019 02:22:17 10.2 C 75 %
160 21-12-2019 02:32:18 10.2 C 75 %
161 21-12-2019 02:42:18 10.2 C 75 %
162 21-12-2019 02:52:17 10.2 C 75 %
163 21-12-2019 03:02:17 10.2 C 75 %
164 21-12-2019 03:12:17 10.2 C 75 %
165 21-12-2019 03:22:17 10.2 C 75 %
166 21-12-2019 03:32:18 10.2 C 75 %
167 21-12-2019 03:42:18 10.2 C 75 %
168 21-12-2019 03:52:17 10.2 C 75 %
169 21-12-2019 04:02:17 10.2 C 75 %
170 21-12-2019 04:12:17 10.2 C 75 %
171 21-12-2019 04:22:17 10.2 C 75 %
172 21-12-2019 04:32:18 10.2 C 75 %
173 21-12-2019 04:42:18 10.2 C 75 %
174 21-12-2019 04:52:17 10.2 C 75 %
175 21-12-2019 05:02:17 10.2 C 75 %
Sensor: Nr:Datum:Temp:Feuchte:
G-T/H 176 21-12-2019 05:12:17 10.2 C 75 %
177 21-12-2019 05:22:17 10.2 C 75 %
178 21-12-2019 05:32:18 10.2 C 75 %
179 21-12-2019 05:42:18 10.2 C 75 %
180 21-12-2019 05:52:17 10.2 C 75 %
181 21-12-2019 06:02:17 10.2 C 75 %
182 21-12-2019 06:12:17 10.2 C 75 %
183 21-12-2019 06:22:18 10.2 C 75 %
184 21-12-2019 06:32:17 10.1 C 75 %
185 21-12-2019 06:42:17 10.1 C 75 %
186 21-12-2019 06:52:18 10.2 C 75 %
187 21-12-2019 07:02:17 10.1 C 75 %
188 21-12-2019 07:12:18 10.1 C 75 %
189 21-12-2019 07:22:17 10.1 C 75 %
190 21-12-2019 07:32:17 10.1 C 75 %
191 21-12-2019 07:42:17 10.1 C 75 %
192 21-12-2019 07:52:17 10.1 C 75 %
193 21-12-2019 08:02:17 10.1 C 74 %
194 21-12-2019 08:12:17 10.1 C 74 %
195 21-12-2019 08:22:17 10.1 C 74 %
196 21-12-2019 08:32:17 10.1 C 74 %
197 21-12-2019 08:42:17 10.1 C 74 %
198 21-12-2019 08:52:17 10.1 C 74 %
199 21-12-2019 09:02:17 10.1 C 74 %
200 21-12-2019 09:12:17 10.1 C 74 %
Sensor: Nr:Datum:Temp:Feuchte:
G-T/H 201 21-12-2019 09:22:17 10.1 C 74 %
202 21-12-2019 09:32:17 10.1 C 74 %
203 21-12-2019 09:42:17 10.1 C 74 %
204 21-12-2019 09:52:17 10 C 74 %
205 21-12-2019 10:02:17 10 C 74 %
206 21-12-2019 10:12:17 10 C 74 %
207 21-12-2019 10:22:17 10 C 74 %
208 21-12-2019 10:32:17 10 C 74 %
209 21-12-2019 10:42:17 10 C 74 %
210 21-12-2019 10:52:17 10 C 74 %
211 21-12-2019 11:02:17 10 C 74 %
212 21-12-2019 11:12:17 10 C 74 %
213 21-12-2019 11:22:17 10 C 74 %
214 21-12-2019 11:32:17 10 C 74 %
215 21-12-2019 11:42:17 10 C 74 %
216 21-12-2019 11:52:17 10.1 C 74 %
217 21-12-2019 12:02:17 10.1 C 74 %
218 21-12-2019 12:12:17 10.2 C 74 %
219 21-12-2019 12:22:17 10.1 C 74 %
220 21-12-2019 12:32:17 10.1 C 74 %
221 21-12-2019 12:42:17 10.1 C 74 %
222 21-12-2019 12:52:17 10.1 C 74 %
223 21-12-2019 13:02:17 10.1 C 74 %
224 21-12-2019 13:12:17 10 C 74 %
225 21-12-2019 13:22:17 10 C 74 %
Sensor: Nr:Datum:Temp:Feuchte:
G-T/H 226 21-12-2019 13:32:17 10 C 74 %
227 21-12-2019 13:42:17 10 C 74 %
228 21-12-2019 13:52:18 10 C 74 %
229 21-12-2019 14:02:17 10 C 74 %
230 21-12-2019 14:12:17 10 C 74 %
231 21-12-2019 14:22:17 10 C 74 %
232 21-12-2019 14:32:18 10 C 74 %
233 21-12-2019 14:42:18 10 C 74 %
234 21-12-2019 14:52:17 10 C 74 %
235 21-12-2019 15:02:18 10 C 74 %
236 21-12-2019 15:12:18 10 C 74 %
237 21-12-2019 15:22:18 10 C 74 %
238 21-12-2019 15:32:17 10 C 74 %
239 21-12-2019 15:42:17 10 C 74 %
240 21-12-2019 15:52:17 10 C 74 %
241 21-12-2019 16:02:17 10 C 74 %
242 21-12-2019 16:12:17 10 C 74 %
243 21-12-2019 16:22:17 10 C 74 %
244 21-12-2019 16:32:17 9.9 C 76 %
245 21-12-2019 16:42:17 10 C 74 %
246 21-12-2019 16:52:17 10 C 74 %
247 21-12-2019 17:02:17 10 C 74 %
248 21-12-2019 17:12:17 10 C 75 %
249 21-12-2019 17:22:17 10 C 75 %
250 21-12-2019 17:32:17 10 C 75 %
Sensor: Nr:Datum:Temp:Feuchte:
G-T/H 251 21-12-2019 17:42:17 10 C 75 %
252 21-12-2019 17:52:17 10 C 75 %
253 21-12-2019 18:02:17 10 C 75 %
254 21-12-2019 18:12:17 10 C 75 %
255 21-12-2019 18:22:17 10 C 75 %
256 21-12-2019 18:32:18 10 C 75 %
257 21-12-2019 18:42:18 10 C 75 %
258 21-12-2019 18:52:17 10 C 75 %
259 21-12-2019 19:02:17 10 C 75 %
260 21-12-2019 19:12:17 10 C 75 %
261 21-12-2019 19:22:17 10 C 75 %
262 21-12-2019 19:32:17 10 C 75 %
263 21-12-2019 19:42:17 10 C 75 %
264 21-12-2019 19:52:17 10 C 75 %
265 21-12-2019 20:02:17 10 C 75 %
266 21-12-2019 20:12:17 10 C 75 %
267 21-12-2019 20:22:17 10 C 75 %
268 21-12-2019 20:32:17 10 C 75 %
269 21-12-2019 20:42:17 10 C 75 %
270 21-12-2019 20:52:17 10 C 75 %
271 21-12-2019 21:02:18 10 C 75 %
272 21-12-2019 21:12:18 10 C 75 %
273 21-12-2019 21:22:17 10 C 75 %
274 21-12-2019 21:32:17 10 C 75 %
275 21-12-2019 21:42:17 10 C 75 %
Sensor: Nr:Datum:Temp:Feuchte:
G-T/H 276 21-12-2019 21:52:18 10 C 75 %
277 21-12-2019 22:02:18 10 C 75 %
278 21-12-2019 22:12:18 10 C 75 %
279 21-12-2019 22:22:17 10 C 75 %
280 21-12-2019 22:32:17 10 C 75 %
281 21-12-2019 22:42:17 10 C 75 %
282 21-12-2019 22:52:17 10 C 74 %
283 21-12-2019 23:02:17 10 C 74 %
284 21-12-2019 23:12:17 10 C 74 %
285 21-12-2019 23:22:17 10 C 74 %
286 21-12-2019 23:32:18 10 C 74 %
287 21-12-2019 23:42:18 10 C 74 %
288 21-12-2019 23:52:17 10 C 74 %
289 22-12-2019 00:02:17 10 C 74 %
290 22-12-2019 00:12:17 10 C 74 %
291 22-12-2019 00:22:17 10 C 74 %
292 22-12-2019 00:32:17 10 C 74 %
293 22-12-2019 00:42:17 10 C 74 %
294 22-12-2019 00:52:17 10 C 74 %
295 22-12-2019 01:02:17 10 C 74 %
296 22-12-2019 01:12:18 10 C 74 %
297 22-12-2019 01:22:17 10 C 74 %
298 22-12-2019 01:32:17 10 C 74 %
299 22-12-2019 01:42:17 10 C 74 %
300 22-12-2019 01:52:17 10 C 74 %
Sensor: Nr:Datum:Temp:Feuchte:
G-T/H 301 22-12-2019 02:02:17 10 C 74 %
302 22-12-2019 02:12:18 10 C 74 %
303 22-12-2019 02:22:17 10 C 74 %
304 22-12-2019 02:32:17 10 C 74 %
305 22-12-2019 02:42:17 10 C 74 %
306 22-12-2019 02:52:18 10 C 74 %
307 22-12-2019 03:02:17 10 C 74 %
308 22-12-2019 03:12:17 10 C 74 %
309 22-12-2019 03:22:17 10 C 74 %
310 22-12-2019 03:32:17 10 C 74 %
311 22-12-2019 03:42:17 10 C 74 %
312 22-12-2019 03:52:17 10 C 74 %
313 22-12-2019 04:02:18 10 C 75 %
314 22-12-2019 04:12:18 10 C 74 %
315 22-12-2019 04:22:17 10 C 75 %
316 22-12-2019 04:32:17 10 C 75 %
317 22-12-2019 04:42:17 10 C 75 %
318 22-12-2019 04:52:17 10 C 75 %
319 22-12-2019 05:02:17 10 C 75 %
320 22-12-2019 05:12:17 10 C 75 %
321 22-12-2019 05:22:17 10 C 75 %
322 22-12-2019 05:32:17 10 C 75 %
323 22-12-2019 05:42:17 10 C 75 %
324 22-12-2019 05:52:17 10 C 75 %
325 22-12-2019 06:02:17 10 C 75 %
Sensor: Nr:Datum:Temp:Feuchte:
G-T/H 326 22-12-2019 06:12:17 10 C 75 %
327 22-12-2019 06:22:17 10 C 75 %
328 22-12-2019 06:32:17 10 C 75 %
329 22-12-2019 06:42:17 10 C 75 %
330 22-12-2019 06:52:17 10 C 75 %
331 22-12-2019 07:02:17 10 C 75 %
332 22-12-2019 07:12:17 10 C 75 %
333 22-12-2019 07:22:17 10 C 75 %
334 22-12-2019 07:32:17 10 C 75 %
335 22-12-2019 07:42:17 10 C 75 %
336 22-12-2019 07:52:17 10 C 75 %
337 22-12-2019 08:02:18 10 C 75 %
338 22-12-2019 08:12:18 10 C 75 %
339 22-12-2019 08:22:17 10 C 75 %
340 22-12-2019 08:32:17 10 C 75 %
341 22-12-2019 08:42:17 10 C 75 %
342 22-12-2019 08:52:18 10 C 75 %
343 22-12-2019 09:02:17 10 C 75 %
344 22-12-2019 09:12:17 10 C 75 %
345 22-12-2019 09:22:17 10 C 75 %
346 22-12-2019 09:32:17 10 C 75 %
347 22-12-2019 09:42:17 10 C 75 %
348 22-12-2019 09:52:17 10 C 75 %
349 22-12-2019 10:02:17 10 C 75 %
350 22-12-2019 10:12:17 10 C 75 %
Sensor: Nr:Datum:Temp:Feuchte:
G-T/H 351 22-12-2019 10:22:17 10 C 75 %
352 22-12-2019 10:32:17 10 C 75 %
353 22-12-2019 10:42:17 10 C 75 %
354 22-12-2019 10:52:17 10 C 75 %
355 22-12-2019 11:02:17 10 C 75 %
356 22-12-2019 11:12:17 10 C 75 %
357 22-12-2019 11:22:17 10 C 75 %
358 22-12-2019 11:32:18 10 C 75 %
359 22-12-2019 11:42:18 10 C 75 %
360 22-12-2019 11:52:17 10 C 75 %
361 22-12-2019 12:02:17 10 C 75 %
362 22-12-2019 12:12:17 10 C 75 %
363 22-12-2019 12:22:17 10 C 75 %
364 22-12-2019 12:32:17 10.1 C 75 %
365 22-12-2019 12:42:17 10.1 C 75 %
366 22-12-2019 12:52:17 10.1 C 75 %
367 22-12-2019 13:02:17 10.1 C 75 %
368 22-12-2019 13:12:17 10.1 C 75 %
369 22-12-2019 13:22:17 10.1 C 75 %
370 22-12-2019 13:32:17 10.1 C 75 %
371 22-12-2019 13:42:17 10.1 C 75 %
372 22-12-2019 13:52:17 10.1 C 75 %
373 22-12-2019 14:02:17 10.1 C 75 %
374 22-12-2019 14:12:17 10.1 C 75 %
375 22-12-2019 14:22:17 10.1 C 75 %
Sensor: Nr:Datum:Temp:Feuchte:
G-T/H 376 22-12-2019 14:32:17 10.1 C 75 %
377 22-12-2019 14:42:17 10.1 C 75 %
378 22-12-2019 14:52:17 10.1 C 75 %
379 22-12-2019 15:02:17 10.2 C 76 %
380 22-12-2019 15:12:17 10.2 C 76 %
381 22-12-2019 15:22:17 10.2 C 76 %
382 22-12-2019 15:32:17 10.2 C 76 %
383 22-12-2019 15:42:17 10.2 C 76 %
384 22-12-2019 15:52:18 10.2 C 76 %
385 22-12-2019 16:02:18 10.2 C 76 %
386 22-12-2019 16:12:18 10.2 C 76 %
387 22-12-2019 16:22:17 10.2 C 76 %
388 22-12-2019 16:32:17 10.2 C 76 %
389 22-12-2019 16:42:17 10.3 C 76 %
390 22-12-2019 16:52:17 10.3 C 76 %
391 22-12-2019 17:02:18 10.3 C 76 %
392 22-12-2019 17:12:18 10.3 C 76 %
393 22-12-2019 17:22:17 10.3 C 76 %
394 22-12-2019 17:32:17 10.3 C 76 %
395 22-12-2019 17:42:17 10.3 C 76 %
396 22-12-2019 17:52:17 10.3 C 76 %
397 22-12-2019 18:02:17 10.3 C 76 %
398 22-12-2019 18:12:17 10.3 C 76 %
399 22-12-2019 18:22:17 10.3 C 76 %
400 22-12-2019 18:32:17 10.4 C 76 %
Sensor: Nr:Datum:Temp:Feuchte:
G-T/H 401 22-12-2019 18:42:17 10.3 C 76 %
402 22-12-2019 18:52:17 10.3 C 76 %
403 22-12-2019 19:02:17 10.4 C 76 %
404 22-12-2019 19:12:17 10.4 C 76 %
405 22-12-2019 19:22:17 10.4 C 76 %
406 22-12-2019 19:32:17 10.4 C 76 %
407 22-12-2019 19:42:17 10.4 C 76 %
408 22-12-2019 19:52:17 10.4 C 76 %
409 22-12-2019 20:02:17 10.4 C 76 %
410 22-12-2019 20:12:17 10.4 C 76 %
411 22-12-2019 20:22:17 10.4 C 76 %
412 22-12-2019 20:32:17 10.4 C 76 %
413 22-12-2019 20:42:17 10.4 C 76 %
414 22-12-2019 20:52:17 10.4 C 76 %
415 22-12-2019 21:02:17 10.4 C 76 %
416 22-12-2019 21:12:17 10.4 C 76 %
417 22-12-2019 21:22:17 10.4 C 76 %
418 22-12-2019 21:32:17 10.4 C 76 %
419 22-12-2019 21:42:17 10.4 C 76 %
420 22-12-2019 21:52:17 10.4 C 76 %
421 22-12-2019 22:02:17 10.4 C 76 %
422 22-12-2019 22:12:17 10.4 C 76 %
423 22-12-2019 22:22:17 10.4 C 76 %
424 22-12-2019 22:32:17 10.4 C 76 %
425 22-12-2019 22:42:17 10.4 C 76 %
Sensor: Nr:Datum:Temp:Feuchte:
G-T/H 426 22-12-2019 22:52:17 10.4 C 75 %
427 22-12-2019 23:02:17 10.4 C 75 %
428 22-12-2019 23:12:17 10.4 C 75 %
429 22-12-2019 23:22:17 10.4 C 75 %
430 22-12-2019 23:32:17 10.4 C 75 %
431 22-12-2019 23:42:17 10.4 C 75 %
432 22-12-2019 23:52:17 10.4 C 75 %
433 23-12-2019 00:02:17 10.4 C 75 %
434 23-12-2019 00:12:17 10.4 C 75 %
435 23-12-2019 00:22:17 10.4 C 75 %
436 23-12-2019 00:32:17 10.4 C 75 %
437 23-12-2019 00:42:17 10.4 C 75 %
438 23-12-2019 00:52:17 10.4 C 75 %
439 23-12-2019 01:02:17 10.4 C 75 %
440 23-12-2019 01:12:17 10.4 C 75 %
441 23-12-2019 01:22:17 10.4 C 75 %
442 23-12-2019 01:32:17 10.4 C 75 %
443 23-12-2019 01:42:17 10.4 C 75 %
444 23-12-2019 01:52:17 10.4 C 75 %
445 23-12-2019 02:02:17 10.3 C 75 %
446 23-12-2019 02:12:17 10.3 C 75 %
447 23-12-2019 02:22:17 10.4 C 75 %
448 23-12-2019 02:32:17 10.3 C 75 %
449 23-12-2019 02:42:17 10.4 C 75 %
450 23-12-2019 02:52:17 10.3 C 75 %
Sensor: Nr:Datum:Temp:Feuchte:
G-T/H 451 23-12-2019 03:02:17 10.3 C 75 %
452 23-12-2019 03:12:17 10.3 C 75 %
453 23-12-2019 03:22:17 10.3 C 75 %
454 23-12-2019 03:32:17 10.3 C 75 %
455 23-12-2019 03:42:17 10.3 C 75 %
456 23-12-2019 03:52:17 10.3 C 75 %
457 23-12-2019 04:02:17 10.3 C 75 %
458 23-12-2019 04:12:17 10.3 C 75 %
459 23-12-2019 04:22:17 10.3 C 75 %
460 23-12-2019 04:32:17 10.3 C 75 %
461 23-12-2019 04:42:17 10.3 C 75 %
462 23-12-2019 04:52:17 10.3 C 75 %
463 23-12-2019 05:02:17 10.3 C 75 %
464 23-12-2019 05:12:17 10.3 C 75 %
465 23-12-2019 05:22:17 10.2 C 75 %
466 23-12-2019 05:32:17 10.3 C 75 %
467 23-12-2019 05:42:17 10.2 C 75 %
468 23-12-2019 05:52:17 10.2 C 75 %
469 23-12-2019 06:02:18 10.2 C 75 %
470 23-12-2019 06:12:18 10.2 C 75 %
471 23-12-2019 06:22:17 10.2 C 75 %
472 23-12-2019 06:32:18 10.2 C 75 %
473 23-12-2019 06:42:18 10.2 C 75 %
474 23-12-2019 06:52:17 10.2 C 75 %
475 23-12-2019 07:02:17 10.2 C 75 %
Sensor: Nr:Datum:Temp:Feuchte:
G-T/H 476 23-12-2019 07:12:17 10.2 C 75 %
477 23-12-2019 07:22:17 10.2 C 75 %
478 23-12-2019 07:32:17 10.2 C 75 %
479 23-12-2019 07:42:17 10.2 C 75 %
480 23-12-2019 07:52:17 10.2 C 75 %
481 23-12-2019 08:02:17 10.2 C 75 %
482 23-12-2019 08:12:17 10.2 C 75 %
483 23-12-2019 08:22:17 10.2 C 75 %
484 23-12-2019 08:32:18 10.2 C 75 %
485 23-12-2019 08:42:18 10.2 C 75 %
486 23-12-2019 08:52:17 10.2 C 75 %
487 23-12-2019 09:02:17 10.2 C 75 %
488 23-12-2019 09:12:18 10.2 C 75 %
489 23-12-2019 09:22:17 10.2 C 75 %
490 23-12-2019 09:32:18 10.2 C 75 %
491 23-12-2019 09:42:18 10.2 C 75 %
492 23-12-2019 09:52:18 10.2 C 75 %
493 23-12-2019 10:02:17 10.2 C 75 %
494 23-12-2019 10:12:18 10.2 C 75 %
495 23-12-2019 10:22:17 10.2 C 75 %
496 23-12-2019 10:32:18 10.2 C 75 %
497 23-12-2019 10:42:18 10.2 C 75 %
498 23-12-2019 10:52:17 10.2 C 75 %
499 23-12-2019 11:02:18 10.2 C 75 %
500 23-12-2019 11:12:18 10.2 C 75 %
Sensor: Nr:Datum:Temp:Feuchte:
G-T/H 501 23-12-2019 11:22:17 10.2 C 75 %
502 23-12-2019 11:32:18 10.2 C 75 %
503 23-12-2019 11:42:18 10.2 C 75 %
504 23-12-2019 11:52:17 10.2 C 75 %
505 23-12-2019 12:02:18 10.2 C 75 %
506 23-12-2019 12:12:18 10.2 C 75 %
507 23-12-2019 12:22:17